<?xml version="1.0" encoding="UTF-8" standalone="no" ?>
<gpx xmlns="http://www.topografix.com/GPX/1/1" xmlns:xsi="http://www.w3.org/2001/XMLSchema-instance" xsi:schemaLocation="http://www.topografix.com/GPX/1/1 http://www.topografix.com/GPX/1/1/gpx.xsd" version="1.1" creator="VisuGPX - https://www.visugpx.com">
  <metadata>
    <name>Commenailles</name>
  </metadata>
  <trk>
    <name><![CDATA[Commenailles_1]]></name>
    <extensions>
      <line xmlns="http://www.topografix.com/GPX/gpx_style/0/2">
        <color>0000FF</color>
        <width>4</width>
      </line>
    </extensions>
    <trkseg>
      <trkpt lat="46.80131" lon="5.44938">
        <ele>215.1</ele>
        <time>2022-05-08T10:32:19Z</time>
      </trkpt>
      <trkpt lat="46.80134" lon="5.44942">
        <ele>214.9</ele>
        <time>2022-05-08T10:32:41Z</time>
      </trkpt>
      <trkpt lat="46.80138" lon="5.44946">
        <ele>218.5</ele>
        <time>2022-05-08T10:39:21Z</time>
      </trkpt>
      <trkpt lat="46.80139" lon="5.44953">
        <ele>216.4</ele>
        <time>2022-05-08T10:41:15Z</time>
      </trkpt>
      <trkpt lat="46.80144" lon="5.44954">
        <ele>215.3</ele>
        <time>2022-05-08T10:41:24Z</time>
      </trkpt>
      <trkpt lat="46.80149" lon="5.44954">
        <ele>214.6</ele>
        <time>2022-05-08T10:41:31Z</time>
      </trkpt>
      <trkpt lat="46.80154" lon="5.44954">
        <ele>214.2</ele>
        <time>2022-05-08T10:41:37Z</time>
      </trkpt>
      <trkpt lat="46.80159" lon="5.44956">
        <ele>213.7</ele>
        <time>2022-05-08T10:41:43Z</time>
      </trkpt>
      <trkpt lat="46.80163" lon="5.44959">
        <ele>213.7</ele>
        <time>2022-05-08T10:41:48Z</time>
      </trkpt>
      <trkpt lat="46.80169" lon="5.44961">
        <ele>213.1</ele>
        <time>2022-05-08T10:41:54Z</time>
      </trkpt>
      <trkpt lat="46.80174" lon="5.44961">
        <ele>212.9</ele>
        <time>2022-05-08T10:41:58Z</time>
      </trkpt>
      <trkpt lat="46.80179" lon="5.44963">
        <ele>212.9</ele>
        <time>2022-05-08T10:42:03Z</time>
      </trkpt>
      <trkpt lat="46.80184" lon="5.44965">
        <ele>212.9</ele>
        <time>2022-05-08T10:42:09Z</time>
      </trkpt>
      <trkpt lat="46.80188" lon="5.44967">
        <ele>212.9</ele>
        <time>2022-05-08T10:42:20Z</time>
      </trkpt>
      <trkpt lat="46.80193" lon="5.44969">
        <ele>212.5</ele>
        <time>2022-05-08T10:42:42Z</time>
      </trkpt>
      <trkpt lat="46.80197" lon="5.44971">
        <ele>212.5</ele>
        <time>2022-05-08T10:42:47Z</time>
      </trkpt>
      <trkpt lat="46.80202" lon="5.44973">
        <ele>212.6</ele>
        <time>2022-05-08T10:42:52Z</time>
      </trkpt>
      <trkpt lat="46.80207" lon="5.44975">
        <ele>212.6</ele>
        <time>2022-05-08T10:42:58Z</time>
      </trkpt>
      <trkpt lat="46.80211" lon="5.44976">
        <ele>212.9</ele>
        <time>2022-05-08T10:43:03Z</time>
      </trkpt>
      <trkpt lat="46.80216" lon="5.44979">
        <ele>212.8</ele>
        <time>2022-05-08T10:43:08Z</time>
      </trkpt>
      <trkpt lat="46.8022" lon="5.44981">
        <ele>212.7</ele>
        <time>2022-05-08T10:43:13Z</time>
      </trkpt>
      <trkpt lat="46.80223" lon="5.44986">
        <ele>212.5</ele>
        <time>2022-05-08T10:43:19Z</time>
      </trkpt>
      <trkpt lat="46.80227" lon="5.44991">
        <ele>212.7</ele>
        <time>2022-05-08T10:43:25Z</time>
      </trkpt>
      <trkpt lat="46.80232" lon="5.44994">
        <ele>212.9</ele>
        <time>2022-05-08T10:43:30Z</time>
      </trkpt>
      <trkpt lat="46.80237" lon="5.44995">
        <ele>213.4</ele>
        <time>2022-05-08T10:43:34Z</time>
      </trkpt>
      <trkpt lat="46.80242" lon="5.44996">
        <ele>214</ele>
        <time>2022-05-08T10:43:39Z</time>
      </trkpt>
      <trkpt lat="46.80246" lon="5.44999">
        <ele>214.5</ele>
        <time>2022-05-08T10:43:43Z</time>
      </trkpt>
      <trkpt lat="46.80251" lon="5.45001">
        <ele>214.7</ele>
        <time>2022-05-08T10:43:47Z</time>
      </trkpt>
      <trkpt lat="46.80256" lon="5.45003">
        <ele>214.7</ele>
        <time>2022-05-08T10:43:52Z</time>
      </trkpt>
      <trkpt lat="46.80261" lon="5.45005">
        <ele>214.9</ele>
        <time>2022-05-08T10:43:58Z</time>
      </trkpt>
      <trkpt lat="46.80266" lon="5.45009">
        <ele>215.2</ele>
        <time>2022-05-08T10:44:03Z</time>
      </trkpt>
      <trkpt lat="46.8027" lon="5.45014">
        <ele>215.5</ele>
        <time>2022-05-08T10:44:08Z</time>
      </trkpt>
      <trkpt lat="46.80275" lon="5.45016">
        <ele>215.3</ele>
        <time>2022-05-08T10:44:15Z</time>
      </trkpt>
      <trkpt lat="46.8028" lon="5.45015">
        <ele>214.3</ele>
        <time>2022-05-08T10:44:21Z</time>
      </trkpt>
      <trkpt lat="46.80281" lon="5.45008">
        <ele>213.2</ele>
        <time>2022-05-08T10:44:28Z</time>
      </trkpt>
      <trkpt lat="46.80281" lon="5.45">
        <ele>212.6</ele>
        <time>2022-05-08T10:44:33Z</time>
      </trkpt>
      <trkpt lat="46.80281" lon="5.44993">
        <ele>212.3</ele>
        <time>2022-05-08T10:44:37Z</time>
      </trkpt>
      <trkpt lat="46.80283" lon="5.44985">
        <ele>211.9</ele>
        <time>2022-05-08T10:44:43Z</time>
      </trkpt>
      <trkpt lat="46.80285" lon="5.44978">
        <ele>212</ele>
        <time>2022-05-08T10:44:48Z</time>
      </trkpt>
      <trkpt lat="46.80285" lon="5.4497">
        <ele>212.1</ele>
        <time>2022-05-08T10:44:53Z</time>
      </trkpt>
      <trkpt lat="46.80284" lon="5.44964">
        <ele>211.9</ele>
        <time>2022-05-08T10:44:57Z</time>
      </trkpt>
      <trkpt lat="46.80286" lon="5.44958">
        <ele>212.1</ele>
        <time>2022-05-08T10:45:12Z</time>
      </trkpt>
      <trkpt lat="46.80289" lon="5.44952">
        <ele>213.5</ele>
        <time>2022-05-08T10:46:26Z</time>
      </trkpt>
      <trkpt lat="46.8029" lon="5.44945">
        <ele>213.7</ele>
        <time>2022-05-08T10:46:31Z</time>
      </trkpt>
      <trkpt lat="46.80293" lon="5.4494">
        <ele>213.4</ele>
        <time>2022-05-08T10:46:36Z</time>
      </trkpt>
      <trkpt lat="46.80294" lon="5.44933">
        <ele>212.6</ele>
        <time>2022-05-08T10:46:41Z</time>
      </trkpt>
      <trkpt lat="46.80295" lon="5.44926">
        <ele>211.9</ele>
        <time>2022-05-08T10:46:45Z</time>
      </trkpt>
      <trkpt lat="46.80296" lon="5.4492">
        <ele>211.5</ele>
        <time>2022-05-08T10:46:49Z</time>
      </trkpt>
      <trkpt lat="46.80297" lon="5.44913">
        <ele>211.2</ele>
        <time>2022-05-08T10:46:55Z</time>
      </trkpt>
      <trkpt lat="46.80298" lon="5.44905">
        <ele>211.4</ele>
        <time>2022-05-08T10:47:01Z</time>
      </trkpt>
      <trkpt lat="46.80299" lon="5.44898">
        <ele>212</ele>
        <time>2022-05-08T10:47:08Z</time>
      </trkpt>
      <trkpt lat="46.803" lon="5.44891">
        <ele>212.5</ele>
        <time>2022-05-08T10:47:13Z</time>
      </trkpt>
      <trkpt lat="46.80302" lon="5.44884">
        <ele>212.5</ele>
        <time>2022-05-08T10:47:18Z</time>
      </trkpt>
      <trkpt lat="46.80303" lon="5.44877">
        <ele>212.7</ele>
        <time>2022-05-08T10:47:24Z</time>
      </trkpt>
      <trkpt lat="46.80305" lon="5.44869">
        <ele>212.7</ele>
        <time>2022-05-08T10:47:29Z</time>
      </trkpt>
      <trkpt lat="46.80307" lon="5.44862">
        <ele>212.5</ele>
        <time>2022-05-08T10:47:34Z</time>
      </trkpt>
      <trkpt lat="46.80307" lon="5.44854">
        <ele>211.9</ele>
        <time>2022-05-08T10:47:39Z</time>
      </trkpt>
      <trkpt lat="46.80308" lon="5.44847">
        <ele>211.6</ele>
        <time>2022-05-08T10:47:44Z</time>
      </trkpt>
      <trkpt lat="46.80308" lon="5.4484">
        <ele>211.7</ele>
        <time>2022-05-08T10:47:48Z</time>
      </trkpt>
      <trkpt lat="46.8031" lon="5.44833">
        <ele>212</ele>
        <time>2022-05-08T10:47:54Z</time>
      </trkpt>
      <trkpt lat="46.80311" lon="5.44825">
        <ele>211.7</ele>
        <time>2022-05-08T10:47:59Z</time>
      </trkpt>
      <trkpt lat="46.80312" lon="5.44818">
        <ele>211.6</ele>
        <time>2022-05-08T10:48:03Z</time>
      </trkpt>
      <trkpt lat="46.80313" lon="5.44811">
        <ele>211.5</ele>
        <time>2022-05-08T10:48:08Z</time>
      </trkpt>
      <trkpt lat="46.80313" lon="5.44803">
        <ele>211.6</ele>
        <time>2022-05-08T10:48:14Z</time>
      </trkpt>
      <trkpt lat="46.80317" lon="5.44798">
        <ele>211.7</ele>
        <time>2022-05-08T10:48:20Z</time>
      </trkpt>
      <trkpt lat="46.80321" lon="5.44794">
        <ele>211.5</ele>
        <time>2022-05-08T10:48:24Z</time>
      </trkpt>
      <trkpt lat="46.80324" lon="5.44788">
        <ele>211.4</ele>
        <time>2022-05-08T10:48:29Z</time>
      </trkpt>
      <trkpt lat="46.80328" lon="5.44784">
        <ele>211.7</ele>
        <time>2022-05-08T10:48:33Z</time>
      </trkpt>
      <trkpt lat="46.80331" lon="5.44778">
        <ele>212</ele>
        <time>2022-05-08T10:48:38Z</time>
      </trkpt>
      <trkpt lat="46.80335" lon="5.44773">
        <ele>212.6</ele>
        <time>2022-05-08T10:48:43Z</time>
      </trkpt>
      <trkpt lat="46.80337" lon="5.44767">
        <ele>213.1</ele>
        <time>2022-05-08T10:48:48Z</time>
      </trkpt>
      <trkpt lat="46.80341" lon="5.44762">
        <ele>213.4</ele>
        <time>2022-05-08T10:48:53Z</time>
      </trkpt>
      <trkpt lat="46.80345" lon="5.44758">
        <ele>213.9</ele>
        <time>2022-05-08T10:48:58Z</time>
      </trkpt>
      <trkpt lat="46.80347" lon="5.44752">
        <ele>214.2</ele>
        <time>2022-05-08T10:49:03Z</time>
      </trkpt>
      <trkpt lat="46.80352" lon="5.44749">
        <ele>214.2</ele>
        <time>2022-05-08T10:49:08Z</time>
      </trkpt>
      <trkpt lat="46.80356" lon="5.44744">
        <ele>213.8</ele>
        <time>2022-05-08T10:49:14Z</time>
      </trkpt>
      <trkpt lat="46.80359" lon="5.44738">
        <ele>213.4</ele>
        <time>2022-05-08T10:49:20Z</time>
      </trkpt>
      <trkpt lat="46.80362" lon="5.44731">
        <ele>213.4</ele>
        <time>2022-05-08T10:49:24Z</time>
      </trkpt>
      <trkpt lat="46.80365" lon="5.44725">
        <ele>213.5</ele>
        <time>2022-05-08T10:49:28Z</time>
      </trkpt>
      <trkpt lat="46.80369" lon="5.4472">
        <ele>213.8</ele>
        <time>2022-05-08T10:49:32Z</time>
      </trkpt>
      <trkpt lat="46.80372" lon="5.44716">
        <ele>214</ele>
        <time>2022-05-08T10:49:36Z</time>
      </trkpt>
      <trkpt lat="46.80377" lon="5.44714">
        <ele>214.1</ele>
        <time>2022-05-08T10:49:40Z</time>
      </trkpt>
      <trkpt lat="46.80381" lon="5.4471">
        <ele>214.4</ele>
        <time>2022-05-08T10:49:44Z</time>
      </trkpt>
      <trkpt lat="46.80384" lon="5.44705">
        <ele>214.6</ele>
        <time>2022-05-08T10:49:48Z</time>
      </trkpt>
      <trkpt lat="46.80389" lon="5.44701">
        <ele>215.1</ele>
        <time>2022-05-08T10:49:52Z</time>
      </trkpt>
      <trkpt lat="46.80393" lon="5.44696">
        <ele>215.9</ele>
        <time>2022-05-08T10:49:56Z</time>
      </trkpt>
      <trkpt lat="46.80398" lon="5.44693">
        <ele>216.8</ele>
        <time>2022-05-08T10:50:01Z</time>
      </trkpt>
      <trkpt lat="46.80403" lon="5.4469">
        <ele>217.5</ele>
        <time>2022-05-08T10:50:06Z</time>
      </trkpt>
      <trkpt lat="46.80408" lon="5.44687">
        <ele>218.1</ele>
        <time>2022-05-08T10:50:11Z</time>
      </trkpt>
      <trkpt lat="46.80413" lon="5.44685">
        <ele>218.5</ele>
        <time>2022-05-08T10:50:16Z</time>
      </trkpt>
      <trkpt lat="46.80417" lon="5.44681">
        <ele>218.7</ele>
        <time>2022-05-08T10:50:20Z</time>
      </trkpt>
      <trkpt lat="46.8042" lon="5.44676">
        <ele>218.7</ele>
        <time>2022-05-08T10:50:24Z</time>
      </trkpt>
      <trkpt lat="46.80425" lon="5.44673">
        <ele>218.7</ele>
        <time>2022-05-08T10:50:28Z</time>
      </trkpt>
      <trkpt lat="46.80429" lon="5.44669">
        <ele>218.6</ele>
        <time>2022-05-08T10:50:33Z</time>
      </trkpt>
      <trkpt lat="46.80434" lon="5.44667">
        <ele>218.1</ele>
        <time>2022-05-08T10:50:39Z</time>
      </trkpt>
      <trkpt lat="46.80439" lon="5.44666">
        <ele>217.3</ele>
        <time>2022-05-08T10:50:44Z</time>
      </trkpt>
      <trkpt lat="46.80444" lon="5.44664">
        <ele>216.6</ele>
        <time>2022-05-08T10:50:48Z</time>
      </trkpt>
      <trkpt lat="46.80449" lon="5.44661">
        <ele>216</ele>
        <time>2022-05-08T10:50:52Z</time>
      </trkpt>
      <trkpt lat="46.80453" lon="5.44658">
        <ele>215.5</ele>
        <time>2022-05-08T10:50:56Z</time>
      </trkpt>
      <trkpt lat="46.80458" lon="5.44654">
        <ele>215.1</ele>
        <time>2022-05-08T10:51:01Z</time>
      </trkpt>
      <trkpt lat="46.80464" lon="5.44652">
        <ele>214.9</ele>
        <time>2022-05-08T10:51:06Z</time>
      </trkpt>
      <trkpt lat="46.80469" lon="5.44652">
        <ele>214.8</ele>
        <time>2022-05-08T10:51:10Z</time>
      </trkpt>
      <trkpt lat="46.80474" lon="5.4465">
        <ele>214.9</ele>
        <time>2022-05-08T10:51:15Z</time>
      </trkpt>
      <trkpt lat="46.80479" lon="5.44647">
        <ele>215.5</ele>
        <time>2022-05-08T10:51:21Z</time>
      </trkpt>
      <trkpt lat="46.80483" lon="5.44644">
        <ele>216.2</ele>
        <time>2022-05-08T10:51:26Z</time>
      </trkpt>
      <trkpt lat="46.80489" lon="5.44643">
        <ele>216.9</ele>
        <time>2022-05-08T10:51:31Z</time>
      </trkpt>
      <trkpt lat="46.80494" lon="5.4464">
        <ele>217.4</ele>
        <time>2022-05-08T10:51:36Z</time>
      </trkpt>
      <trkpt lat="46.80499" lon="5.44639">
        <ele>217.7</ele>
        <time>2022-05-08T10:51:40Z</time>
      </trkpt>
      <trkpt lat="46.80504" lon="5.44638">
        <ele>218.4</ele>
        <time>2022-05-08T10:51:44Z</time>
      </trkpt>
      <trkpt lat="46.80508" lon="5.44635">
        <ele>219.1</ele>
        <time>2022-05-08T10:51:48Z</time>
      </trkpt>
      <trkpt lat="46.80513" lon="5.44633">
        <ele>219.4</ele>
        <time>2022-05-08T10:51:52Z</time>
      </trkpt>
      <trkpt lat="46.80517" lon="5.44632">
        <ele>219.4</ele>
        <time>2022-05-08T10:51:56Z</time>
      </trkpt>
      <trkpt lat="46.80521" lon="5.4463">
        <ele>219.2</ele>
        <time>2022-05-08T10:51:59Z</time>
      </trkpt>
      <trkpt lat="46.80527" lon="5.44628">
        <ele>218.7</ele>
        <time>2022-05-08T10:52:03Z</time>
      </trkpt>
      <trkpt lat="46.80531" lon="5.44625">
        <ele>218.1</ele>
        <time>2022-05-08T10:52:07Z</time>
      </trkpt>
      <trkpt lat="46.80535" lon="5.44622">
        <ele>217.5</ele>
        <time>2022-05-08T10:52:11Z</time>
      </trkpt>
      <trkpt lat="46.8054" lon="5.4462">
        <ele>216.9</ele>
        <time>2022-05-08T10:52:15Z</time>
      </trkpt>
      <trkpt lat="46.80544" lon="5.44617">
        <ele>216.1</ele>
        <time>2022-05-08T10:52:19Z</time>
      </trkpt>
      <trkpt lat="46.80548" lon="5.44612">
        <ele>215.5</ele>
        <time>2022-05-08T10:52:23Z</time>
      </trkpt>
      <trkpt lat="46.80552" lon="5.44609">
        <ele>215.1</ele>
        <time>2022-05-08T10:52:27Z</time>
      </trkpt>
      <trkpt lat="46.80557" lon="5.44604">
        <ele>214.8</ele>
        <time>2022-05-08T10:52:31Z</time>
      </trkpt>
      <trkpt lat="46.80561" lon="5.44601">
        <ele>214.5</ele>
        <time>2022-05-08T10:52:35Z</time>
      </trkpt>
      <trkpt lat="46.80565" lon="5.44596">
        <ele>214.2</ele>
        <time>2022-05-08T10:52:39Z</time>
      </trkpt>
      <trkpt lat="46.8057" lon="5.44593">
        <ele>214.1</ele>
        <time>2022-05-08T10:52:43Z</time>
      </trkpt>
      <trkpt lat="46.80575" lon="5.4459">
        <ele>213.7</ele>
        <time>2022-05-08T10:52:48Z</time>
      </trkpt>
      <trkpt lat="46.80578" lon="5.44585">
        <ele>213.5</ele>
        <time>2022-05-08T10:52:52Z</time>
      </trkpt>
      <trkpt lat="46.80583" lon="5.44583">
        <ele>213.5</ele>
        <time>2022-05-08T10:52:56Z</time>
      </trkpt>
      <trkpt lat="46.80587" lon="5.44579">
        <ele>213.3</ele>
        <time>2022-05-08T10:53:00Z</time>
      </trkpt>
      <trkpt lat="46.80591" lon="5.44574">
        <ele>212.9</ele>
        <time>2022-05-08T10:53:04Z</time>
      </trkpt>
      <trkpt lat="46.80595" lon="5.4457">
        <ele>212.1</ele>
        <time>2022-05-08T10:53:09Z</time>
      </trkpt>
      <trkpt lat="46.80599" lon="5.44566">
        <ele>211.4</ele>
        <time>2022-05-08T10:53:13Z</time>
      </trkpt>
      <trkpt lat="46.80603" lon="5.44562">
        <ele>210.7</ele>
        <time>2022-05-08T10:53:17Z</time>
      </trkpt>
      <trkpt lat="46.80606" lon="5.44557">
        <ele>210.2</ele>
        <time>2022-05-08T10:53:21Z</time>
      </trkpt>
      <trkpt lat="46.8061" lon="5.44551">
        <ele>209.7</ele>
        <time>2022-05-08T10:53:26Z</time>
      </trkpt>
      <trkpt lat="46.80613" lon="5.44544">
        <ele>209.6</ele>
        <time>2022-05-08T10:53:30Z</time>
      </trkpt>
      <trkpt lat="46.80616" lon="5.44537">
        <ele>209.8</ele>
        <time>2022-05-08T10:53:34Z</time>
      </trkpt>
      <trkpt lat="46.80618" lon="5.44531">
        <ele>210.2</ele>
        <time>2022-05-08T10:53:37Z</time>
      </trkpt>
      <trkpt lat="46.80622" lon="5.44525">
        <ele>210.6</ele>
        <time>2022-05-08T10:53:41Z</time>
      </trkpt>
      <trkpt lat="46.80626" lon="5.44521">
        <ele>211</ele>
        <time>2022-05-08T10:53:45Z</time>
      </trkpt>
      <trkpt lat="46.8063" lon="5.44515">
        <ele>211.6</ele>
        <time>2022-05-08T10:53:50Z</time>
      </trkpt>
      <trkpt lat="46.80633" lon="5.44509">
        <ele>212.5</ele>
        <time>2022-05-08T10:53:54Z</time>
      </trkpt>
      <trkpt lat="46.80636" lon="5.44503">
        <ele>212.9</ele>
        <time>2022-05-08T10:53:58Z</time>
      </trkpt>
      <trkpt lat="46.8064" lon="5.44498">
        <ele>213.1</ele>
        <time>2022-05-08T10:54:02Z</time>
      </trkpt>
      <trkpt lat="46.80643" lon="5.44492">
        <ele>213.1</ele>
        <time>2022-05-08T10:54:07Z</time>
      </trkpt>
      <trkpt lat="46.80647" lon="5.44488">
        <ele>213.1</ele>
        <time>2022-05-08T10:54:12Z</time>
      </trkpt>
      <trkpt lat="46.8065" lon="5.44481">
        <ele>213</ele>
        <time>2022-05-08T10:54:17Z</time>
      </trkpt>
      <trkpt lat="46.80652" lon="5.44473">
        <ele>212.6</ele>
        <time>2022-05-08T10:54:21Z</time>
      </trkpt>
      <trkpt lat="46.80655" lon="5.44468">
        <ele>212</ele>
        <time>2022-05-08T10:54:25Z</time>
      </trkpt>
      <trkpt lat="46.80658" lon="5.44462">
        <ele>211.5</ele>
        <time>2022-05-08T10:54:30Z</time>
      </trkpt>
      <trkpt lat="46.80662" lon="5.44457">
        <ele>211.3</ele>
        <time>2022-05-08T10:54:35Z</time>
      </trkpt>
      <trkpt lat="46.80665" lon="5.44451">
        <ele>211.4</ele>
        <time>2022-05-08T10:54:39Z</time>
      </trkpt>
      <trkpt lat="46.80668" lon="5.44445">
        <ele>211.8</ele>
        <time>2022-05-08T10:54:45Z</time>
      </trkpt>
      <trkpt lat="46.8067" lon="5.44439">
        <ele>212.3</ele>
        <time>2022-05-08T10:54:49Z</time>
      </trkpt>
      <trkpt lat="46.80673" lon="5.44432">
        <ele>212.9</ele>
        <time>2022-05-08T10:54:54Z</time>
      </trkpt>
      <trkpt lat="46.80675" lon="5.44425">
        <ele>213</ele>
        <time>2022-05-08T10:54:58Z</time>
      </trkpt>
      <trkpt lat="46.80677" lon="5.44419">
        <ele>212.7</ele>
        <time>2022-05-08T10:55:02Z</time>
      </trkpt>
      <trkpt lat="46.8068" lon="5.44413">
        <ele>212.4</ele>
        <time>2022-05-08T10:55:07Z</time>
      </trkpt>
      <trkpt lat="46.80684" lon="5.44407">
        <ele>211.7</ele>
        <time>2022-05-08T10:55:12Z</time>
      </trkpt>
      <trkpt lat="46.80688" lon="5.44403">
        <ele>211</ele>
        <time>2022-05-08T10:55:16Z</time>
      </trkpt>
      <trkpt lat="46.80692" lon="5.44397">
        <ele>210.1</ele>
        <time>2022-05-08T10:55:21Z</time>
      </trkpt>
      <trkpt lat="46.80695" lon="5.44392">
        <ele>209.4</ele>
        <time>2022-05-08T10:55:26Z</time>
      </trkpt>
      <trkpt lat="46.80698" lon="5.44386">
        <ele>208.7</ele>
        <time>2022-05-08T10:55:30Z</time>
      </trkpt>
      <trkpt lat="46.80701" lon="5.4438">
        <ele>208.1</ele>
        <time>2022-05-08T10:55:34Z</time>
      </trkpt>
      <trkpt lat="46.80703" lon="5.44373">
        <ele>207.5</ele>
        <time>2022-05-08T10:55:38Z</time>
      </trkpt>
      <trkpt lat="46.80706" lon="5.44367">
        <ele>207.2</ele>
        <time>2022-05-08T10:55:42Z</time>
      </trkpt>
      <trkpt lat="46.80709" lon="5.44362">
        <ele>206.9</ele>
        <time>2022-05-08T10:55:46Z</time>
      </trkpt>
      <trkpt lat="46.80711" lon="5.44356">
        <ele>206.7</ele>
        <time>2022-05-08T10:55:50Z</time>
      </trkpt>
      <trkpt lat="46.80713" lon="5.4435">
        <ele>206.7</ele>
        <time>2022-05-08T10:55:54Z</time>
      </trkpt>
      <trkpt lat="46.80716" lon="5.44343">
        <ele>206.8</ele>
        <time>2022-05-08T10:55:58Z</time>
      </trkpt>
      <trkpt lat="46.80717" lon="5.44337">
        <ele>206.9</ele>
        <time>2022-05-08T10:56:02Z</time>
      </trkpt>
      <trkpt lat="46.80718" lon="5.4433">
        <ele>206.9</ele>
        <time>2022-05-08T10:56:11Z</time>
      </trkpt>
      <trkpt lat="46.80721" lon="5.44323">
        <ele>207.7</ele>
        <time>2022-05-08T10:56:18Z</time>
      </trkpt>
      <trkpt lat="46.80723" lon="5.44317">
        <ele>207.9</ele>
        <time>2022-05-08T10:56:23Z</time>
      </trkpt>
      <trkpt lat="46.80724" lon="5.44309">
        <ele>208.3</ele>
        <time>2022-05-08T10:56:27Z</time>
      </trkpt>
      <trkpt lat="46.80725" lon="5.44302">
        <ele>208.9</ele>
        <time>2022-05-08T10:56:31Z</time>
      </trkpt>
      <trkpt lat="46.80728" lon="5.44297">
        <ele>209.6</ele>
        <time>2022-05-08T10:56:35Z</time>
      </trkpt>
      <trkpt lat="46.80731" lon="5.4429">
        <ele>210.5</ele>
        <time>2022-05-08T10:56:40Z</time>
      </trkpt>
      <trkpt lat="46.80734" lon="5.44285">
        <ele>211</ele>
        <time>2022-05-08T10:56:44Z</time>
      </trkpt>
      <trkpt lat="46.80737" lon="5.44279">
        <ele>211.6</ele>
        <time>2022-05-08T10:56:49Z</time>
      </trkpt>
      <trkpt lat="46.80739" lon="5.44272">
        <ele>212.2</ele>
        <time>2022-05-08T10:56:53Z</time>
      </trkpt>
      <trkpt lat="46.80741" lon="5.44265">
        <ele>212.5</ele>
        <time>2022-05-08T10:56:57Z</time>
      </trkpt>
      <trkpt lat="46.80743" lon="5.44259">
        <ele>212.6</ele>
        <time>2022-05-08T10:57:01Z</time>
      </trkpt>
      <trkpt lat="46.80747" lon="5.44254">
        <ele>212.7</ele>
        <time>2022-05-08T10:57:06Z</time>
      </trkpt>
      <trkpt lat="46.80751" lon="5.44248">
        <ele>212.7</ele>
        <time>2022-05-08T10:57:11Z</time>
      </trkpt>
      <trkpt lat="46.80753" lon="5.4424">
        <ele>212.8</ele>
        <time>2022-05-08T10:57:15Z</time>
      </trkpt>
      <trkpt lat="46.80755" lon="5.44234">
        <ele>212.9</ele>
        <time>2022-05-08T10:57:19Z</time>
      </trkpt>
      <trkpt lat="46.80757" lon="5.44227">
        <ele>212.8</ele>
        <time>2022-05-08T10:57:23Z</time>
      </trkpt>
      <trkpt lat="46.8076" lon="5.4422">
        <ele>212.6</ele>
        <time>2022-05-08T10:57:27Z</time>
      </trkpt>
      <trkpt lat="46.80763" lon="5.44213">
        <ele>212.3</ele>
        <time>2022-05-08T10:57:31Z</time>
      </trkpt>
      <trkpt lat="46.80765" lon="5.44207">
        <ele>212.2</ele>
        <time>2022-05-08T10:57:35Z</time>
      </trkpt>
      <trkpt lat="46.80768" lon="5.44201">
        <ele>212.5</ele>
        <time>2022-05-08T10:57:39Z</time>
      </trkpt>
      <trkpt lat="46.80772" lon="5.44196">
        <ele>213.2</ele>
        <time>2022-05-08T10:57:44Z</time>
      </trkpt>
      <trkpt lat="46.80775" lon="5.44191">
        <ele>213.7</ele>
        <time>2022-05-08T10:57:49Z</time>
      </trkpt>
      <trkpt lat="46.80776" lon="5.44185">
        <ele>214</ele>
        <time>2022-05-08T10:57:53Z</time>
      </trkpt>
      <trkpt lat="46.80781" lon="5.44182">
        <ele>213.9</ele>
        <time>2022-05-08T10:57:57Z</time>
      </trkpt>
      <trkpt lat="46.80783" lon="5.44175">
        <ele>213.7</ele>
        <time>2022-05-08T10:58:01Z</time>
      </trkpt>
      <trkpt lat="46.80785" lon="5.44169">
        <ele>213.4</ele>
        <time>2022-05-08T10:58:05Z</time>
      </trkpt>
      <trkpt lat="46.80788" lon="5.44165">
        <ele>213.1</ele>
        <time>2022-05-08T10:58:09Z</time>
      </trkpt>
      <trkpt lat="46.80792" lon="5.44158">
        <ele>212.7</ele>
        <time>2022-05-08T10:58:14Z</time>
      </trkpt>
      <trkpt lat="46.80794" lon="5.44151">
        <ele>212.3</ele>
        <time>2022-05-08T10:58:18Z</time>
      </trkpt>
      <trkpt lat="46.80798" lon="5.44145">
        <ele>212.2</ele>
        <time>2022-05-08T10:58:23Z</time>
      </trkpt>
      <trkpt lat="46.80802" lon="5.4414">
        <ele>212.5</ele>
        <time>2022-05-08T10:58:28Z</time>
      </trkpt>
      <trkpt lat="46.80805" lon="5.44134">
        <ele>212.5</ele>
        <time>2022-05-08T10:58:32Z</time>
      </trkpt>
      <trkpt lat="46.80809" lon="5.4413">
        <ele>212.4</ele>
        <time>2022-05-08T10:58:36Z</time>
      </trkpt>
      <trkpt lat="46.80813" lon="5.44125">
        <ele>212.3</ele>
        <time>2022-05-08T10:58:41Z</time>
      </trkpt>
      <trkpt lat="46.80817" lon="5.44121">
        <ele>212.2</ele>
        <time>2022-05-08T10:58:45Z</time>
      </trkpt>
      <trkpt lat="46.80822" lon="5.44119">
        <ele>212.1</ele>
        <time>2022-05-08T10:58:49Z</time>
      </trkpt>
      <trkpt lat="46.80826" lon="5.44116">
        <ele>211.8</ele>
        <time>2022-05-08T10:58:53Z</time>
      </trkpt>
      <trkpt lat="46.80831" lon="5.44112">
        <ele>211.4</ele>
        <time>2022-05-08T10:58:58Z</time>
      </trkpt>
      <trkpt lat="46.80835" lon="5.44112">
        <ele>211</ele>
        <time>2022-05-08T10:59:01Z</time>
      </trkpt>
      <trkpt lat="46.80841" lon="5.44109">
        <ele>210.4</ele>
        <time>2022-05-08T10:59:06Z</time>
      </trkpt>
      <trkpt lat="46.80845" lon="5.44107">
        <ele>210</ele>
        <time>2022-05-08T10:59:11Z</time>
      </trkpt>
      <trkpt lat="46.8085" lon="5.44102">
        <ele>209.7</ele>
        <time>2022-05-08T10:59:16Z</time>
      </trkpt>
      <trkpt lat="46.80855" lon="5.44099">
        <ele>208.9</ele>
        <time>2022-05-08T10:59:21Z</time>
      </trkpt>
      <trkpt lat="46.80859" lon="5.44095">
        <ele>208.4</ele>
        <time>2022-05-08T10:59:27Z</time>
      </trkpt>
      <trkpt lat="46.80864" lon="5.44092">
        <ele>207.9</ele>
        <time>2022-05-08T10:59:31Z</time>
      </trkpt>
      <trkpt lat="46.80868" lon="5.44088">
        <ele>207.3</ele>
        <time>2022-05-08T10:59:34Z</time>
      </trkpt>
      <trkpt lat="46.80872" lon="5.44083">
        <ele>206.8</ele>
        <time>2022-05-08T10:59:39Z</time>
      </trkpt>
      <trkpt lat="46.80876" lon="5.44081">
        <ele>206.7</ele>
        <time>2022-05-08T10:59:43Z</time>
      </trkpt>
      <trkpt lat="46.80882" lon="5.44079">
        <ele>206.4</ele>
        <time>2022-05-08T10:59:50Z</time>
      </trkpt>
      <trkpt lat="46.80886" lon="5.44077">
        <ele>206.2</ele>
        <time>2022-05-08T10:59:54Z</time>
      </trkpt>
      <trkpt lat="46.80891" lon="5.44075">
        <ele>206</ele>
        <time>2022-05-08T10:59:58Z</time>
      </trkpt>
      <trkpt lat="46.80896" lon="5.44074">
        <ele>206</ele>
        <time>2022-05-08T11:00:02Z</time>
      </trkpt>
      <trkpt lat="46.809" lon="5.44072">
        <ele>206.2</ele>
        <time>2022-05-08T11:00:06Z</time>
      </trkpt>
      <trkpt lat="46.80904" lon="5.44067">
        <ele>206.5</ele>
        <time>2022-05-08T11:00:10Z</time>
      </trkpt>
      <trkpt lat="46.80907" lon="5.4406">
        <ele>206.8</ele>
        <time>2022-05-08T11:00:14Z</time>
      </trkpt>
      <trkpt lat="46.80909" lon="5.44053">
        <ele>207.1</ele>
        <time>2022-05-08T11:00:18Z</time>
      </trkpt>
      <trkpt lat="46.80912" lon="5.44048">
        <ele>207.4</ele>
        <time>2022-05-08T11:00:22Z</time>
      </trkpt>
      <trkpt lat="46.80916" lon="5.44044">
        <ele>207.4</ele>
        <time>2022-05-08T11:00:27Z</time>
      </trkpt>
      <trkpt lat="46.80919" lon="5.44039">
        <ele>207.6</ele>
        <time>2022-05-08T11:00:31Z</time>
      </trkpt>
      <trkpt lat="46.80922" lon="5.44033">
        <ele>208.1</ele>
        <time>2022-05-08T11:00:35Z</time>
      </trkpt>
      <trkpt lat="46.80927" lon="5.4403">
        <ele>208.3</ele>
        <time>2022-05-08T11:00:39Z</time>
      </trkpt>
      <trkpt lat="46.80932" lon="5.44032">
        <ele>208</ele>
        <time>2022-05-08T11:00:42Z</time>
      </trkpt>
      <trkpt lat="46.80936" lon="5.44033">
        <ele>207.4</ele>
        <time>2022-05-08T11:00:45Z</time>
      </trkpt>
      <trkpt lat="46.80942" lon="5.44033">
        <ele>205.8</ele>
        <time>2022-05-08T11:00:49Z</time>
      </trkpt>
      <trkpt lat="46.80947" lon="5.44029">
        <ele>204.5</ele>
        <time>2022-05-08T11:00:53Z</time>
      </trkpt>
      <trkpt lat="46.80951" lon="5.44024">
        <ele>203.7</ele>
        <time>2022-05-08T11:00:57Z</time>
      </trkpt>
      <trkpt lat="46.80955" lon="5.4402">
        <ele>203.2</ele>
        <time>2022-05-08T11:01:01Z</time>
      </trkpt>
      <trkpt lat="46.80959" lon="5.44016">
        <ele>202.5</ele>
        <time>2022-05-08T11:01:06Z</time>
      </trkpt>
      <trkpt lat="46.80964" lon="5.44012">
        <ele>201.6</ele>
        <time>2022-05-08T11:01:11Z</time>
      </trkpt>
      <trkpt lat="46.80967" lon="5.44006">
        <ele>200.7</ele>
        <time>2022-05-08T11:01:17Z</time>
      </trkpt>
      <trkpt lat="46.80969" lon="5.44">
        <ele>200.3</ele>
        <time>2022-05-08T11:01:23Z</time>
      </trkpt>
      <trkpt lat="46.80973" lon="5.43996">
        <ele>200.2</ele>
        <time>2022-05-08T11:01:28Z</time>
      </trkpt>
      <trkpt lat="46.80977" lon="5.43991">
        <ele>202.3</ele>
        <time>2022-05-08T11:01:37Z</time>
      </trkpt>
      <trkpt lat="46.80976" lon="5.43985">
        <ele>217.6</ele>
        <time>2022-05-08T11:02:28Z</time>
      </trkpt>
      <trkpt lat="46.80972" lon="5.4398">
        <ele>221.8</ele>
        <time>2022-05-08T11:02:39Z</time>
      </trkpt>
      <trkpt lat="46.8097" lon="5.43974">
        <ele>222.8</ele>
        <time>2022-05-08T11:02:47Z</time>
      </trkpt>
      <trkpt lat="46.80969" lon="5.43967">
        <ele>222.3</ele>
        <time>2022-05-08T11:03:01Z</time>
      </trkpt>
      <trkpt lat="46.80969" lon="5.43959">
        <ele>222.1</ele>
        <time>2022-05-08T11:03:07Z</time>
      </trkpt>
      <trkpt lat="46.80969" lon="5.43952">
        <ele>222.5</ele>
        <time>2022-05-08T11:03:13Z</time>
      </trkpt>
      <trkpt lat="46.80965" lon="5.43949">
        <ele>223.1</ele>
        <time>2022-05-08T11:03:21Z</time>
      </trkpt>
      <trkpt lat="46.80963" lon="5.43956">
        <ele>221.2</ele>
        <time>2022-05-08T11:03:52Z</time>
      </trkpt>
      <trkpt lat="46.80961" lon="5.43963">
        <ele>219.9</ele>
        <time>2022-05-08T11:03:57Z</time>
      </trkpt>
      <trkpt lat="46.80957" lon="5.43961">
        <ele>217.9</ele>
        <time>2022-05-08T11:04:13Z</time>
      </trkpt>
      <trkpt lat="46.80956" lon="5.43954">
        <ele>216</ele>
        <time>2022-05-08T11:05:29Z</time>
      </trkpt>
      <trkpt lat="46.80955" lon="5.43947">
        <ele>214.2</ele>
        <time>2022-05-08T11:05:34Z</time>
      </trkpt>
      <trkpt lat="46.80955" lon="5.43953">
        <ele>212.5</ele>
        <time>2022-05-08T11:05:46Z</time>
      </trkpt>
      <trkpt lat="46.80951" lon="5.43949">
        <ele>215.3</ele>
        <time>2022-05-08T11:06:44Z</time>
      </trkpt>
      <trkpt lat="46.80946" lon="5.43946">
        <ele>216.4</ele>
        <time>2022-05-08T11:06:53Z</time>
      </trkpt>
      <trkpt lat="46.80942" lon="5.4394">
        <ele>216.2</ele>
        <time>2022-05-08T11:06:58Z</time>
      </trkpt>
      <trkpt lat="46.80939" lon="5.43935">
        <ele>215.9</ele>
        <time>2022-05-08T11:07:02Z</time>
      </trkpt>
      <trkpt lat="46.80937" lon="5.43929">
        <ele>216.4</ele>
        <time>2022-05-08T11:07:13Z</time>
      </trkpt>
      <trkpt lat="46.80932" lon="5.43926">
        <ele>217</ele>
        <time>2022-05-08T11:07:20Z</time>
      </trkpt>
      <trkpt lat="46.80928" lon="5.43921">
        <ele>217.8</ele>
        <time>2022-05-08T11:07:25Z</time>
      </trkpt>
      <trkpt lat="46.80924" lon="5.43917">
        <ele>218.8</ele>
        <time>2022-05-08T11:07:31Z</time>
      </trkpt>
      <trkpt lat="46.80919" lon="5.43913">
        <ele>220</ele>
        <time>2022-05-08T11:07:37Z</time>
      </trkpt>
      <trkpt lat="46.80915" lon="5.4391">
        <ele>220.7</ele>
        <time>2022-05-08T11:07:42Z</time>
      </trkpt>
      <trkpt lat="46.80912" lon="5.43904">
        <ele>221.1</ele>
        <time>2022-05-08T11:07:47Z</time>
      </trkpt>
      <trkpt lat="46.8091" lon="5.43898">
        <ele>221.5</ele>
        <time>2022-05-08T11:07:53Z</time>
      </trkpt>
      <trkpt lat="46.80905" lon="5.43893">
        <ele>222</ele>
        <time>2022-05-08T11:07:59Z</time>
      </trkpt>
      <trkpt lat="46.80901" lon="5.43889">
        <ele>222.4</ele>
        <time>2022-05-08T11:08:03Z</time>
      </trkpt>
      <trkpt lat="46.80897" lon="5.43885">
        <ele>222.8</ele>
        <time>2022-05-08T11:08:07Z</time>
      </trkpt>
      <trkpt lat="46.80893" lon="5.43881">
        <ele>223.4</ele>
        <time>2022-05-08T11:08:13Z</time>
      </trkpt>
      <trkpt lat="46.8089" lon="5.43875">
        <ele>223.7</ele>
        <time>2022-05-08T11:08:18Z</time>
      </trkpt>
      <trkpt lat="46.80887" lon="5.4387">
        <ele>223.9</ele>
        <time>2022-05-08T11:08:23Z</time>
      </trkpt>
      <trkpt lat="46.80883" lon="5.43865">
        <ele>224.3</ele>
        <time>2022-05-08T11:08:28Z</time>
      </trkpt>
      <trkpt lat="46.8088" lon="5.43859">
        <ele>224.9</ele>
        <time>2022-05-08T11:08:33Z</time>
      </trkpt>
      <trkpt lat="46.80876" lon="5.43854">
        <ele>225.7</ele>
        <time>2022-05-08T11:08:39Z</time>
      </trkpt>
      <trkpt lat="46.80874" lon="5.43847">
        <ele>226.2</ele>
        <time>2022-05-08T11:08:43Z</time>
      </trkpt>
      <trkpt lat="46.80871" lon="5.43841">
        <ele>226.5</ele>
        <time>2022-05-08T11:08:47Z</time>
      </trkpt>
      <trkpt lat="46.80868" lon="5.43834">
        <ele>226.4</ele>
        <time>2022-05-08T11:08:51Z</time>
      </trkpt>
      <trkpt lat="46.80865" lon="5.43828">
        <ele>226.2</ele>
        <time>2022-05-08T11:08:57Z</time>
      </trkpt>
      <trkpt lat="46.80863" lon="5.43822">
        <ele>225.7</ele>
        <time>2022-05-08T11:09:01Z</time>
      </trkpt>
      <trkpt lat="46.80861" lon="5.43813">
        <ele>224.6</ele>
        <time>2022-05-08T11:09:05Z</time>
      </trkpt>
      <trkpt lat="46.80859" lon="5.43807">
        <ele>223.6</ele>
        <time>2022-05-08T11:09:08Z</time>
      </trkpt>
      <trkpt lat="46.80857" lon="5.43801">
        <ele>222.3</ele>
        <time>2022-05-08T11:09:12Z</time>
      </trkpt>
      <trkpt lat="46.80855" lon="5.43794">
        <ele>221.2</ele>
        <time>2022-05-08T11:09:16Z</time>
      </trkpt>
      <trkpt lat="46.80854" lon="5.43786">
        <ele>220.3</ele>
        <time>2022-05-08T11:09:20Z</time>
      </trkpt>
      <trkpt lat="46.80853" lon="5.43779">
        <ele>219.1</ele>
        <time>2022-05-08T11:09:24Z</time>
      </trkpt>
      <trkpt lat="46.80851" lon="5.43772">
        <ele>217.8</ele>
        <time>2022-05-08T11:09:29Z</time>
      </trkpt>
      <trkpt lat="46.80849" lon="5.43765">
        <ele>217</ele>
        <time>2022-05-08T11:09:33Z</time>
      </trkpt>
      <trkpt lat="46.80846" lon="5.43758">
        <ele>216.2</ele>
        <time>2022-05-08T11:09:37Z</time>
      </trkpt>
      <trkpt lat="46.80843" lon="5.43753">
        <ele>215.7</ele>
        <time>2022-05-08T11:09:41Z</time>
      </trkpt>
      <trkpt lat="46.8084" lon="5.43746">
        <ele>215.2</ele>
        <time>2022-05-08T11:09:46Z</time>
      </trkpt>
      <trkpt lat="46.80839" lon="5.43739">
        <ele>215</ele>
        <time>2022-05-08T11:09:50Z</time>
      </trkpt>
      <trkpt lat="46.80838" lon="5.43731">
        <ele>215.1</ele>
        <time>2022-05-08T11:09:54Z</time>
      </trkpt>
      <trkpt lat="46.80836" lon="5.43725">
        <ele>215.3</ele>
        <time>2022-05-08T11:09:58Z</time>
      </trkpt>
      <trkpt lat="46.80835" lon="5.43719">
        <ele>215.4</ele>
        <time>2022-05-08T11:10:02Z</time>
      </trkpt>
      <trkpt lat="46.80833" lon="5.43712">
        <ele>215.1</ele>
        <time>2022-05-08T11:10:06Z</time>
      </trkpt>
      <trkpt lat="46.80833" lon="5.43705">
        <ele>214.3</ele>
        <time>2022-05-08T11:10:11Z</time>
      </trkpt>
      <trkpt lat="46.80832" lon="5.43698">
        <ele>213.7</ele>
        <time>2022-05-08T11:10:15Z</time>
      </trkpt>
      <trkpt lat="46.80831" lon="5.43691">
        <ele>213.2</ele>
        <time>2022-05-08T11:10:19Z</time>
      </trkpt>
      <trkpt lat="46.80831" lon="5.43684">
        <ele>213.1</ele>
        <time>2022-05-08T11:10:23Z</time>
      </trkpt>
      <trkpt lat="46.80831" lon="5.43677">
        <ele>213.4</ele>
        <time>2022-05-08T11:10:28Z</time>
      </trkpt>
      <trkpt lat="46.80831" lon="5.4367">
        <ele>213.2</ele>
        <time>2022-05-08T11:10:34Z</time>
      </trkpt>
      <trkpt lat="46.80832" lon="5.43662">
        <ele>213.1</ele>
        <time>2022-05-08T11:10:39Z</time>
      </trkpt>
      <trkpt lat="46.8083" lon="5.43656">
        <ele>213.2</ele>
        <time>2022-05-08T11:10:44Z</time>
      </trkpt>
      <trkpt lat="46.80829" lon="5.43648">
        <ele>213.9</ele>
        <time>2022-05-08T11:10:50Z</time>
      </trkpt>
      <trkpt lat="46.8083" lon="5.43642">
        <ele>214.9</ele>
        <time>2022-05-08T11:10:55Z</time>
      </trkpt>
      <trkpt lat="46.80828" lon="5.43635">
        <ele>216</ele>
        <time>2022-05-08T11:10:59Z</time>
      </trkpt>
      <trkpt lat="46.80828" lon="5.43628">
        <ele>216.8</ele>
        <time>2022-05-08T11:11:03Z</time>
      </trkpt>
      <trkpt lat="46.80826" lon="5.4362">
        <ele>217.4</ele>
        <time>2022-05-08T11:11:07Z</time>
      </trkpt>
      <trkpt lat="46.80824" lon="5.43613">
        <ele>217.7</ele>
        <time>2022-05-08T11:11:11Z</time>
      </trkpt>
      <trkpt lat="46.80823" lon="5.43605">
        <ele>217.9</ele>
        <time>2022-05-08T11:11:15Z</time>
      </trkpt>
      <trkpt lat="46.80823" lon="5.43597">
        <ele>218.6</ele>
        <time>2022-05-08T11:11:19Z</time>
      </trkpt>
      <trkpt lat="46.80824" lon="5.4359">
        <ele>219.9</ele>
        <time>2022-05-08T11:11:23Z</time>
      </trkpt>
      <trkpt lat="46.80824" lon="5.43583">
        <ele>221.4</ele>
        <time>2022-05-08T11:11:28Z</time>
      </trkpt>
      <trkpt lat="46.80822" lon="5.43576">
        <ele>222.1</ele>
        <time>2022-05-08T11:11:33Z</time>
      </trkpt>
      <trkpt lat="46.80821" lon="5.43568">
        <ele>221.9</ele>
        <time>2022-05-08T11:11:38Z</time>
      </trkpt>
      <trkpt lat="46.80821" lon="5.4356">
        <ele>221.2</ele>
        <time>2022-05-08T11:11:43Z</time>
      </trkpt>
      <trkpt lat="46.80819" lon="5.43553">
        <ele>219.9</ele>
        <time>2022-05-08T11:11:48Z</time>
      </trkpt>
      <trkpt lat="46.80818" lon="5.43546">
        <ele>217.9</ele>
        <time>2022-05-08T11:11:54Z</time>
      </trkpt>
      <trkpt lat="46.80816" lon="5.43538">
        <ele>217.2</ele>
        <time>2022-05-08T11:11:59Z</time>
      </trkpt>
      <trkpt lat="46.80815" lon="5.43531">
        <ele>216.8</ele>
        <time>2022-05-08T11:12:05Z</time>
      </trkpt>
      <trkpt lat="46.80814" lon="5.43523">
        <ele>216.7</ele>
        <time>2022-05-08T11:12:10Z</time>
      </trkpt>
      <trkpt lat="46.80812" lon="5.43515">
        <ele>217.4</ele>
        <time>2022-05-08T11:12:16Z</time>
      </trkpt>
      <trkpt lat="46.8081" lon="5.43509">
        <ele>217.9</ele>
        <time>2022-05-08T11:12:20Z</time>
      </trkpt>
      <trkpt lat="46.80807" lon="5.43503">
        <ele>218.6</ele>
        <time>2022-05-08T11:12:26Z</time>
      </trkpt>
      <trkpt lat="46.80805" lon="5.43496">
        <ele>218.8</ele>
        <time>2022-05-08T11:12:30Z</time>
      </trkpt>
      <trkpt lat="46.80805" lon="5.43489">
        <ele>218.6</ele>
        <time>2022-05-08T11:12:34Z</time>
      </trkpt>
      <trkpt lat="46.80805" lon="5.43482">
        <ele>218.3</ele>
        <time>2022-05-08T11:12:40Z</time>
      </trkpt>
      <trkpt lat="46.80803" lon="5.43475">
        <ele>217.4</ele>
        <time>2022-05-08T11:12:45Z</time>
      </trkpt>
      <trkpt lat="46.80801" lon="5.43469">
        <ele>217</ele>
        <time>2022-05-08T11:12:48Z</time>
      </trkpt>
      <trkpt lat="46.808" lon="5.43461">
        <ele>216.5</ele>
        <time>2022-05-08T11:12:52Z</time>
      </trkpt>
      <trkpt lat="46.80798" lon="5.43455">
        <ele>216.4</ele>
        <time>2022-05-08T11:12:56Z</time>
      </trkpt>
      <trkpt lat="46.80796" lon="5.43447">
        <ele>216.4</ele>
        <time>2022-05-08T11:13:01Z</time>
      </trkpt>
      <trkpt lat="46.80795" lon="5.43441">
        <ele>216.4</ele>
        <time>2022-05-08T11:13:06Z</time>
      </trkpt>
      <trkpt lat="46.80795" lon="5.43433">
        <ele>216.1</ele>
        <time>2022-05-08T11:13:13Z</time>
      </trkpt>
      <trkpt lat="46.80793" lon="5.43427">
        <ele>216.2</ele>
        <time>2022-05-08T11:13:17Z</time>
      </trkpt>
      <trkpt lat="46.80791" lon="5.4342">
        <ele>216.5</ele>
        <time>2022-05-08T11:13:21Z</time>
      </trkpt>
      <trkpt lat="46.80789" lon="5.43412">
        <ele>216.9</ele>
        <time>2022-05-08T11:13:25Z</time>
      </trkpt>
      <trkpt lat="46.80787" lon="5.43404">
        <ele>217.2</ele>
        <time>2022-05-08T11:13:29Z</time>
      </trkpt>
      <trkpt lat="46.80785" lon="5.43397">
        <ele>217.2</ele>
        <time>2022-05-08T11:13:34Z</time>
      </trkpt>
      <trkpt lat="46.80784" lon="5.4339">
        <ele>217.5</ele>
        <time>2022-05-08T11:13:38Z</time>
      </trkpt>
      <trkpt lat="46.80782" lon="5.43383">
        <ele>217.8</ele>
        <time>2022-05-08T11:13:42Z</time>
      </trkpt>
      <trkpt lat="46.8078" lon="5.43376">
        <ele>218.3</ele>
        <time>2022-05-08T11:13:47Z</time>
      </trkpt>
      <trkpt lat="46.80779" lon="5.43369">
        <ele>218.7</ele>
        <time>2022-05-08T11:13:56Z</time>
      </trkpt>
      <trkpt lat="46.80776" lon="5.43364">
        <ele>219.6</ele>
        <time>2022-05-08T11:15:03Z</time>
      </trkpt>
      <trkpt lat="46.80774" lon="5.43358">
        <ele>221.3</ele>
        <time>2022-05-08T11:15:07Z</time>
      </trkpt>
      <trkpt lat="46.80773" lon="5.4335">
        <ele>222.5</ele>
        <time>2022-05-08T11:15:12Z</time>
      </trkpt>
      <trkpt lat="46.80773" lon="5.43343">
        <ele>223.3</ele>
        <time>2022-05-08T11:15:16Z</time>
      </trkpt>
      <trkpt lat="46.80771" lon="5.43337">
        <ele>224.2</ele>
        <time>2022-05-08T11:15:22Z</time>
      </trkpt>
      <trkpt lat="46.80769" lon="5.43331">
        <ele>224.7</ele>
        <time>2022-05-08T11:15:27Z</time>
      </trkpt>
      <trkpt lat="46.80766" lon="5.43324">
        <ele>224.8</ele>
        <time>2022-05-08T11:15:31Z</time>
      </trkpt>
      <trkpt lat="46.80763" lon="5.43316">
        <ele>224.7</ele>
        <time>2022-05-08T11:15:35Z</time>
      </trkpt>
      <trkpt lat="46.8076" lon="5.4331">
        <ele>224.5</ele>
        <time>2022-05-08T11:15:39Z</time>
      </trkpt>
      <trkpt lat="46.80758" lon="5.43303">
        <ele>224</ele>
        <time>2022-05-08T11:15:43Z</time>
      </trkpt>
      <trkpt lat="46.80757" lon="5.43296">
        <ele>223.4</ele>
        <time>2022-05-08T11:15:48Z</time>
      </trkpt>
      <trkpt lat="46.80755" lon="5.4329">
        <ele>223</ele>
        <time>2022-05-08T11:15:52Z</time>
      </trkpt>
      <trkpt lat="46.80753" lon="5.43283">
        <ele>222.8</ele>
        <time>2022-05-08T11:15:56Z</time>
      </trkpt>
      <trkpt lat="46.8075" lon="5.43277">
        <ele>222.8</ele>
        <time>2022-05-08T11:16:00Z</time>
      </trkpt>
      <trkpt lat="46.80746" lon="5.43272">
        <ele>222.8</ele>
        <time>2022-05-08T11:16:05Z</time>
      </trkpt>
      <trkpt lat="46.80742" lon="5.43267">
        <ele>222.7</ele>
        <time>2022-05-08T11:16:09Z</time>
      </trkpt>
      <trkpt lat="46.8074" lon="5.43261">
        <ele>222.2</ele>
        <time>2022-05-08T11:16:14Z</time>
      </trkpt>
      <trkpt lat="46.80736" lon="5.43255">
        <ele>221</ele>
        <time>2022-05-08T11:16:20Z</time>
      </trkpt>
      <trkpt lat="46.80733" lon="5.43249">
        <ele>219.7</ele>
        <time>2022-05-08T11:16:25Z</time>
      </trkpt>
      <trkpt lat="46.80731" lon="5.43243">
        <ele>218.4</ele>
        <time>2022-05-08T11:16:30Z</time>
      </trkpt>
      <trkpt lat="46.80728" lon="5.43237">
        <ele>217</ele>
        <time>2022-05-08T11:16:35Z</time>
      </trkpt>
      <trkpt lat="46.80725" lon="5.4323">
        <ele>215.6</ele>
        <time>2022-05-08T11:16:40Z</time>
      </trkpt>
      <trkpt lat="46.80723" lon="5.43224">
        <ele>214.9</ele>
        <time>2022-05-08T11:16:44Z</time>
      </trkpt>
      <trkpt lat="46.80721" lon="5.43218">
        <ele>214.2</ele>
        <time>2022-05-08T11:16:49Z</time>
      </trkpt>
      <trkpt lat="46.80717" lon="5.43213">
        <ele>213.7</ele>
        <time>2022-05-08T11:16:54Z</time>
      </trkpt>
      <trkpt lat="46.80713" lon="5.43206">
        <ele>213.8</ele>
        <time>2022-05-08T11:16:58Z</time>
      </trkpt>
      <trkpt lat="46.8071" lon="5.43199">
        <ele>214.1</ele>
        <time>2022-05-08T11:17:02Z</time>
      </trkpt>
      <trkpt lat="46.80707" lon="5.43193">
        <ele>215</ele>
        <time>2022-05-08T11:17:06Z</time>
      </trkpt>
      <trkpt lat="46.80705" lon="5.43186">
        <ele>216.1</ele>
        <time>2022-05-08T11:17:11Z</time>
      </trkpt>
      <trkpt lat="46.80701" lon="5.4318">
        <ele>216.8</ele>
        <time>2022-05-08T11:17:16Z</time>
      </trkpt>
      <trkpt lat="46.80697" lon="5.43176">
        <ele>217.2</ele>
        <time>2022-05-08T11:17:20Z</time>
      </trkpt>
      <trkpt lat="46.80693" lon="5.43173">
        <ele>217.7</ele>
        <time>2022-05-08T11:17:24Z</time>
      </trkpt>
      <trkpt lat="46.80688" lon="5.4317">
        <ele>218.2</ele>
        <time>2022-05-08T11:17:28Z</time>
      </trkpt>
      <trkpt lat="46.80684" lon="5.43166">
        <ele>219.2</ele>
        <time>2022-05-08T11:17:33Z</time>
      </trkpt>
      <trkpt lat="46.80679" lon="5.43163">
        <ele>220.3</ele>
        <time>2022-05-08T11:17:38Z</time>
      </trkpt>
      <trkpt lat="46.80676" lon="5.43158">
        <ele>221.4</ele>
        <time>2022-05-08T11:17:42Z</time>
      </trkpt>
      <trkpt lat="46.80672" lon="5.43153">
        <ele>221.9</ele>
        <time>2022-05-08T11:17:46Z</time>
      </trkpt>
      <trkpt lat="46.80668" lon="5.43149">
        <ele>222.2</ele>
        <time>2022-05-08T11:17:51Z</time>
      </trkpt>
      <trkpt lat="46.80665" lon="5.43143">
        <ele>222.3</ele>
        <time>2022-05-08T11:17:55Z</time>
      </trkpt>
      <trkpt lat="46.80662" lon="5.43138">
        <ele>222.1</ele>
        <time>2022-05-08T11:17:59Z</time>
      </trkpt>
      <trkpt lat="46.80659" lon="5.43133">
        <ele>221.1</ele>
        <time>2022-05-08T11:18:05Z</time>
      </trkpt>
      <trkpt lat="46.80655" lon="5.43128">
        <ele>220.1</ele>
        <time>2022-05-08T11:18:09Z</time>
      </trkpt>
      <trkpt lat="46.80651" lon="5.43124">
        <ele>219.1</ele>
        <time>2022-05-08T11:18:13Z</time>
      </trkpt>
      <trkpt lat="46.80647" lon="5.4312">
        <ele>218.4</ele>
        <time>2022-05-08T11:18:17Z</time>
      </trkpt>
      <trkpt lat="46.80642" lon="5.43116">
        <ele>217.7</ele>
        <time>2022-05-08T11:18:21Z</time>
      </trkpt>
      <trkpt lat="46.80638" lon="5.43111">
        <ele>217.2</ele>
        <time>2022-05-08T11:18:25Z</time>
      </trkpt>
      <trkpt lat="46.80633" lon="5.43107">
        <ele>216.7</ele>
        <time>2022-05-08T11:18:30Z</time>
      </trkpt>
      <trkpt lat="46.80629" lon="5.43104">
        <ele>216.5</ele>
        <time>2022-05-08T11:18:34Z</time>
      </trkpt>
      <trkpt lat="46.80626" lon="5.431">
        <ele>216.2</ele>
        <time>2022-05-08T11:18:38Z</time>
      </trkpt>
      <trkpt lat="46.80622" lon="5.43094">
        <ele>216.3</ele>
        <time>2022-05-08T11:18:42Z</time>
      </trkpt>
      <trkpt lat="46.80619" lon="5.43089">
        <ele>216.7</ele>
        <time>2022-05-08T11:18:46Z</time>
      </trkpt>
      <trkpt lat="46.80616" lon="5.43084">
        <ele>216.7</ele>
        <time>2022-05-08T11:18:49Z</time>
      </trkpt>
      <trkpt lat="46.80612" lon="5.4308">
        <ele>216.7</ele>
        <time>2022-05-08T11:18:52Z</time>
      </trkpt>
      <trkpt lat="46.80608" lon="5.43076">
        <ele>217</ele>
        <time>2022-05-08T11:18:56Z</time>
      </trkpt>
      <trkpt lat="46.80604" lon="5.43073">
        <ele>217.4</ele>
        <time>2022-05-08T11:19:01Z</time>
      </trkpt>
      <trkpt lat="46.806" lon="5.43069">
        <ele>217.8</ele>
        <time>2022-05-08T11:19:05Z</time>
      </trkpt>
      <trkpt lat="46.80596" lon="5.43064">
        <ele>218.4</ele>
        <time>2022-05-08T11:19:11Z</time>
      </trkpt>
      <trkpt lat="46.80592" lon="5.4306">
        <ele>219.3</ele>
        <time>2022-05-08T11:19:17Z</time>
      </trkpt>
      <trkpt lat="46.80588" lon="5.43055">
        <ele>219.9</ele>
        <time>2022-05-08T11:19:21Z</time>
      </trkpt>
      <trkpt lat="46.80585" lon="5.43049">
        <ele>220.4</ele>
        <time>2022-05-08T11:19:25Z</time>
      </trkpt>
      <trkpt lat="46.80581" lon="5.43044">
        <ele>221</ele>
        <time>2022-05-08T11:19:30Z</time>
      </trkpt>
      <trkpt lat="46.80577" lon="5.4304">
        <ele>221.2</ele>
        <time>2022-05-08T11:19:34Z</time>
      </trkpt>
      <trkpt lat="46.80574" lon="5.43035">
        <ele>221.3</ele>
        <time>2022-05-08T11:19:38Z</time>
      </trkpt>
      <trkpt lat="46.8057" lon="5.43031">
        <ele>221.2</ele>
        <time>2022-05-08T11:19:42Z</time>
      </trkpt>
      <trkpt lat="46.80566" lon="5.43025">
        <ele>221.4</ele>
        <time>2022-05-08T11:19:47Z</time>
      </trkpt>
      <trkpt lat="46.80562" lon="5.4302">
        <ele>222</ele>
        <time>2022-05-08T11:19:51Z</time>
      </trkpt>
      <trkpt lat="46.80557" lon="5.43017">
        <ele>222.8</ele>
        <time>2022-05-08T11:19:55Z</time>
      </trkpt>
      <trkpt lat="46.80553" lon="5.43013">
        <ele>223.2</ele>
        <time>2022-05-08T11:19:59Z</time>
      </trkpt>
      <trkpt lat="46.80549" lon="5.43008">
        <ele>223.1</ele>
        <time>2022-05-08T11:20:04Z</time>
      </trkpt>
      <trkpt lat="46.80546" lon="5.43002">
        <ele>223.1</ele>
        <time>2022-05-08T11:20:08Z</time>
      </trkpt>
      <trkpt lat="46.80542" lon="5.42997">
        <ele>223.1</ele>
        <time>2022-05-08T11:20:12Z</time>
      </trkpt>
      <trkpt lat="46.80538" lon="5.42994">
        <ele>222.8</ele>
        <time>2022-05-08T11:20:18Z</time>
      </trkpt>
      <trkpt lat="46.80533" lon="5.42989">
        <ele>222.9</ele>
        <time>2022-05-08T11:20:23Z</time>
      </trkpt>
      <trkpt lat="46.80531" lon="5.42984">
        <ele>222.7</ele>
        <time>2022-05-08T11:20:28Z</time>
      </trkpt>
      <trkpt lat="46.80527" lon="5.42979">
        <ele>222.8</ele>
        <time>2022-05-08T11:20:33Z</time>
      </trkpt>
      <trkpt lat="46.80523" lon="5.42974">
        <ele>222.8</ele>
        <time>2022-05-08T11:20:37Z</time>
      </trkpt>
      <trkpt lat="46.80519" lon="5.4297">
        <ele>223</ele>
        <time>2022-05-08T11:20:41Z</time>
      </trkpt>
      <trkpt lat="46.80515" lon="5.42967">
        <ele>223.1</ele>
        <time>2022-05-08T11:20:45Z</time>
      </trkpt>
      <trkpt lat="46.80511" lon="5.42963">
        <ele>223.5</ele>
        <time>2022-05-08T11:20:50Z</time>
      </trkpt>
      <trkpt lat="46.80508" lon="5.42957">
        <ele>224.3</ele>
        <time>2022-05-08T11:20:55Z</time>
      </trkpt>
      <trkpt lat="46.80504" lon="5.42953">
        <ele>225.2</ele>
        <time>2022-05-08T11:21:00Z</time>
      </trkpt>
      <trkpt lat="46.805" lon="5.42949">
        <ele>225.8</ele>
        <time>2022-05-08T11:21:04Z</time>
      </trkpt>
      <trkpt lat="46.80496" lon="5.42945">
        <ele>226.1</ele>
        <time>2022-05-08T11:21:09Z</time>
      </trkpt>
      <trkpt lat="46.80495" lon="5.42938">
        <ele>225</ele>
        <time>2022-05-08T11:21:14Z</time>
      </trkpt>
      <trkpt lat="46.805" lon="5.42937">
        <ele>221.6</ele>
        <time>2022-05-08T11:21:28Z</time>
      </trkpt>
      <trkpt lat="46.80496" lon="5.42932">
        <ele>220.5</ele>
        <time>2022-05-08T11:22:06Z</time>
      </trkpt>
      <trkpt lat="46.80498" lon="5.42925">
        <ele>223.2</ele>
        <time>2022-05-08T11:22:30Z</time>
      </trkpt>
      <trkpt lat="46.80497" lon="5.42918">
        <ele>222.9</ele>
        <time>2022-05-08T11:22:35Z</time>
      </trkpt>
      <trkpt lat="46.80493" lon="5.42915">
        <ele>222.6</ele>
        <time>2022-05-08T11:22:42Z</time>
      </trkpt>
      <trkpt lat="46.80499" lon="5.42916">
        <ele>219.9</ele>
        <time>2022-05-08T11:23:15Z</time>
      </trkpt>
      <trkpt lat="46.80503" lon="5.42911">
        <ele>219</ele>
        <time>2022-05-08T11:23:20Z</time>
      </trkpt>
      <trkpt lat="46.80507" lon="5.42905">
        <ele>218.7</ele>
        <time>2022-05-08T11:23:25Z</time>
      </trkpt>
      <trkpt lat="46.80509" lon="5.42899">
        <ele>218.3</ele>
        <time>2022-05-08T11:23:30Z</time>
      </trkpt>
      <trkpt lat="46.80511" lon="5.42893">
        <ele>218.6</ele>
        <time>2022-05-08T11:23:35Z</time>
      </trkpt>
      <trkpt lat="46.80515" lon="5.4289">
        <ele>219.8</ele>
        <time>2022-05-08T11:23:40Z</time>
      </trkpt>
      <trkpt lat="46.80519" lon="5.42886">
        <ele>221.1</ele>
        <time>2022-05-08T11:23:45Z</time>
      </trkpt>
      <trkpt lat="46.80522" lon="5.42879">
        <ele>222.2</ele>
        <time>2022-05-08T11:23:50Z</time>
      </trkpt>
      <trkpt lat="46.80525" lon="5.42874">
        <ele>222.8</ele>
        <time>2022-05-08T11:23:55Z</time>
      </trkpt>
      <trkpt lat="46.8053" lon="5.42873">
        <ele>222.1</ele>
        <time>2022-05-08T11:24:01Z</time>
      </trkpt>
      <trkpt lat="46.80534" lon="5.42871">
        <ele>221.2</ele>
        <time>2022-05-08T11:24:06Z</time>
      </trkpt>
      <trkpt lat="46.80538" lon="5.42866">
        <ele>220.5</ele>
        <time>2022-05-08T11:24:11Z</time>
      </trkpt>
      <trkpt lat="46.80541" lon="5.42861">
        <ele>220</ele>
        <time>2022-05-08T11:24:17Z</time>
      </trkpt>
      <trkpt lat="46.80545" lon="5.42857">
        <ele>219.1</ele>
        <time>2022-05-08T11:24:23Z</time>
      </trkpt>
      <trkpt lat="46.80549" lon="5.42854">
        <ele>218.1</ele>
        <time>2022-05-08T11:24:28Z</time>
      </trkpt>
      <trkpt lat="46.80553" lon="5.42848">
        <ele>217.7</ele>
        <time>2022-05-08T11:24:33Z</time>
      </trkpt>
      <trkpt lat="46.80557" lon="5.42843">
        <ele>217.8</ele>
        <time>2022-05-08T11:24:37Z</time>
      </trkpt>
      <trkpt lat="46.8056" lon="5.42838">
        <ele>218.2</ele>
        <time>2022-05-08T11:24:42Z</time>
      </trkpt>
      <trkpt lat="46.80564" lon="5.42834">
        <ele>218.6</ele>
        <time>2022-05-08T11:24:47Z</time>
      </trkpt>
      <trkpt lat="46.80568" lon="5.4283">
        <ele>219</ele>
        <time>2022-05-08T11:24:51Z</time>
      </trkpt>
      <trkpt lat="46.80571" lon="5.42825">
        <ele>219.4</ele>
        <time>2022-05-08T11:24:56Z</time>
      </trkpt>
      <trkpt lat="46.80576" lon="5.42821">
        <ele>219.2</ele>
        <time>2022-05-08T11:25:02Z</time>
      </trkpt>
      <trkpt lat="46.8058" lon="5.42816">
        <ele>219</ele>
        <time>2022-05-08T11:25:07Z</time>
      </trkpt>
      <trkpt lat="46.80584" lon="5.42812">
        <ele>218.8</ele>
        <time>2022-05-08T11:25:11Z</time>
      </trkpt>
      <trkpt lat="46.80588" lon="5.42808">
        <ele>218.6</ele>
        <time>2022-05-08T11:25:17Z</time>
      </trkpt>
      <trkpt lat="46.80593" lon="5.42806">
        <ele>218.1</ele>
        <time>2022-05-08T11:25:22Z</time>
      </trkpt>
      <trkpt lat="46.80597" lon="5.42802">
        <ele>217.6</ele>
        <time>2022-05-08T11:25:26Z</time>
      </trkpt>
      <trkpt lat="46.806" lon="5.42798">
        <ele>217.2</ele>
        <time>2022-05-08T11:25:30Z</time>
      </trkpt>
      <trkpt lat="46.80605" lon="5.42797">
        <ele>216.6</ele>
        <time>2022-05-08T11:25:36Z</time>
      </trkpt>
      <trkpt lat="46.8061" lon="5.42797">
        <ele>215.9</ele>
        <time>2022-05-08T11:25:42Z</time>
      </trkpt>
      <trkpt lat="46.80614" lon="5.42793">
        <ele>215.6</ele>
        <time>2022-05-08T11:25:46Z</time>
      </trkpt>
      <trkpt lat="46.80617" lon="5.42787">
        <ele>215.4</ele>
        <time>2022-05-08T11:25:50Z</time>
      </trkpt>
      <trkpt lat="46.8062" lon="5.4278">
        <ele>215.3</ele>
        <time>2022-05-08T11:25:54Z</time>
      </trkpt>
      <trkpt lat="46.80623" lon="5.42775">
        <ele>215.8</ele>
        <time>2022-05-08T11:25:59Z</time>
      </trkpt>
      <trkpt lat="46.80627" lon="5.42771">
        <ele>216.1</ele>
        <time>2022-05-08T11:26:05Z</time>
      </trkpt>
      <trkpt lat="46.80632" lon="5.42768">
        <ele>215.6</ele>
        <time>2022-05-08T11:26:10Z</time>
      </trkpt>
      <trkpt lat="46.80636" lon="5.42765">
        <ele>215</ele>
        <time>2022-05-08T11:26:15Z</time>
      </trkpt>
      <trkpt lat="46.80639" lon="5.42759">
        <ele>214.7</ele>
        <time>2022-05-08T11:26:19Z</time>
      </trkpt>
      <trkpt lat="46.80643" lon="5.42755">
        <ele>214.6</ele>
        <time>2022-05-08T11:26:23Z</time>
      </trkpt>
      <trkpt lat="46.80647" lon="5.4275">
        <ele>214.8</ele>
        <time>2022-05-08T11:26:28Z</time>
      </trkpt>
      <trkpt lat="46.8065" lon="5.42744">
        <ele>215.2</ele>
        <time>2022-05-08T11:26:33Z</time>
      </trkpt>
      <trkpt lat="46.80655" lon="5.4274">
        <ele>215.6</ele>
        <time>2022-05-08T11:26:38Z</time>
      </trkpt>
      <trkpt lat="46.80659" lon="5.42736">
        <ele>215.4</ele>
        <time>2022-05-08T11:26:44Z</time>
      </trkpt>
      <trkpt lat="46.80662" lon="5.4273">
        <ele>215.4</ele>
        <time>2022-05-08T11:26:49Z</time>
      </trkpt>
      <trkpt lat="46.80667" lon="5.42727">
        <ele>215.7</ele>
        <time>2022-05-08T11:26:54Z</time>
      </trkpt>
      <trkpt lat="46.8067" lon="5.42723">
        <ele>216.2</ele>
        <time>2022-05-08T11:26:59Z</time>
      </trkpt>
      <trkpt lat="46.80674" lon="5.42718">
        <ele>216.2</ele>
        <time>2022-05-08T11:27:04Z</time>
      </trkpt>
      <trkpt lat="46.80678" lon="5.42713">
        <ele>216</ele>
        <time>2022-05-08T11:27:09Z</time>
      </trkpt>
      <trkpt lat="46.80681" lon="5.42707">
        <ele>215</ele>
        <time>2022-05-08T11:27:15Z</time>
      </trkpt>
      <trkpt lat="46.80685" lon="5.42703">
        <ele>214</ele>
        <time>2022-05-08T11:27:20Z</time>
      </trkpt>
      <trkpt lat="46.80689" lon="5.42699">
        <ele>213.2</ele>
        <time>2022-05-08T11:27:27Z</time>
      </trkpt>
      <trkpt lat="46.80693" lon="5.42693">
        <ele>212.9</ele>
        <time>2022-05-08T11:27:33Z</time>
      </trkpt>
      <trkpt lat="46.80695" lon="5.42687">
        <ele>213.1</ele>
        <time>2022-05-08T11:27:37Z</time>
      </trkpt>
      <trkpt lat="46.80697" lon="5.42681">
        <ele>213.6</ele>
        <time>2022-05-08T11:27:41Z</time>
      </trkpt>
      <trkpt lat="46.80701" lon="5.42675">
        <ele>214.1</ele>
        <time>2022-05-08T11:27:47Z</time>
      </trkpt>
      <trkpt lat="46.80705" lon="5.4267">
        <ele>214.5</ele>
        <time>2022-05-08T11:27:52Z</time>
      </trkpt>
      <trkpt lat="46.80708" lon="5.42664">
        <ele>214.8</ele>
        <time>2022-05-08T11:27:57Z</time>
      </trkpt>
      <trkpt lat="46.80708" lon="5.42656">
        <ele>214.9</ele>
        <time>2022-05-08T11:28:01Z</time>
      </trkpt>
      <trkpt lat="46.80709" lon="5.42649">
        <ele>214.9</ele>
        <time>2022-05-08T11:28:05Z</time>
      </trkpt>
      <trkpt lat="46.8071" lon="5.42642">
        <ele>215.2</ele>
        <time>2022-05-08T11:28:09Z</time>
      </trkpt>
      <trkpt lat="46.80713" lon="5.42635">
        <ele>215.2</ele>
        <time>2022-05-08T11:28:14Z</time>
      </trkpt>
      <trkpt lat="46.80715" lon="5.4263">
        <ele>215.3</ele>
        <time>2022-05-08T11:28:19Z</time>
      </trkpt>
      <trkpt lat="46.80718" lon="5.42623">
        <ele>215.8</ele>
        <time>2022-05-08T11:28:24Z</time>
      </trkpt>
      <trkpt lat="46.80721" lon="5.42618">
        <ele>216.5</ele>
        <time>2022-05-08T11:28:29Z</time>
      </trkpt>
      <trkpt lat="46.80724" lon="5.42612">
        <ele>216.9</ele>
        <time>2022-05-08T11:28:34Z</time>
      </trkpt>
      <trkpt lat="46.80727" lon="5.42606">
        <ele>217.3</ele>
        <time>2022-05-08T11:28:39Z</time>
      </trkpt>
      <trkpt lat="46.8073" lon="5.426">
        <ele>217.6</ele>
        <time>2022-05-08T11:28:44Z</time>
      </trkpt>
      <trkpt lat="46.80733" lon="5.42594">
        <ele>217.7</ele>
        <time>2022-05-08T11:28:49Z</time>
      </trkpt>
      <trkpt lat="46.80736" lon="5.42588">
        <ele>217.5</ele>
        <time>2022-05-08T11:28:54Z</time>
      </trkpt>
      <trkpt lat="46.80738" lon="5.42582">
        <ele>217.1</ele>
        <time>2022-05-08T11:28:59Z</time>
      </trkpt>
      <trkpt lat="46.8074" lon="5.42576">
        <ele>216.8</ele>
        <time>2022-05-08T11:29:04Z</time>
      </trkpt>
      <trkpt lat="46.80743" lon="5.4257">
        <ele>216.8</ele>
        <time>2022-05-08T11:29:09Z</time>
      </trkpt>
      <trkpt lat="46.80745" lon="5.42563">
        <ele>217.1</ele>
        <time>2022-05-08T11:29:14Z</time>
      </trkpt>
      <trkpt lat="46.80748" lon="5.42557">
        <ele>217.2</ele>
        <time>2022-05-08T11:29:19Z</time>
      </trkpt>
      <trkpt lat="46.80751" lon="5.42552">
        <ele>216.8</ele>
        <time>2022-05-08T11:29:25Z</time>
      </trkpt>
      <trkpt lat="46.80749" lon="5.42545">
        <ele>216.2</ele>
        <time>2022-05-08T11:29:31Z</time>
      </trkpt>
      <trkpt lat="46.80747" lon="5.42539">
        <ele>215.5</ele>
        <time>2022-05-08T11:29:36Z</time>
      </trkpt>
      <trkpt lat="46.80744" lon="5.42533">
        <ele>215.2</ele>
        <time>2022-05-08T11:29:41Z</time>
      </trkpt>
      <trkpt lat="46.80741" lon="5.42527">
        <ele>214.9</ele>
        <time>2022-05-08T11:29:47Z</time>
      </trkpt>
      <trkpt lat="46.80737" lon="5.42521">
        <ele>214.5</ele>
        <time>2022-05-08T11:29:51Z</time>
      </trkpt>
      <trkpt lat="46.80733" lon="5.42516">
        <ele>214.2</ele>
        <time>2022-05-08T11:29:55Z</time>
      </trkpt>
      <trkpt lat="46.80729" lon="5.42512">
        <ele>214</ele>
        <time>2022-05-08T11:29:59Z</time>
      </trkpt>
      <trkpt lat="46.80726" lon="5.42508">
        <ele>213.8</ele>
        <time>2022-05-08T11:30:04Z</time>
      </trkpt>
      <trkpt lat="46.80723" lon="5.42502">
        <ele>213.8</ele>
        <time>2022-05-08T11:30:10Z</time>
      </trkpt>
      <trkpt lat="46.80719" lon="5.42497">
        <ele>213.8</ele>
        <time>2022-05-08T11:30:15Z</time>
      </trkpt>
      <trkpt lat="46.80715" lon="5.42492">
        <ele>213.8</ele>
        <time>2022-05-08T11:30:20Z</time>
      </trkpt>
      <trkpt lat="46.80711" lon="5.42487">
        <ele>214</ele>
        <time>2022-05-08T11:30:25Z</time>
      </trkpt>
      <trkpt lat="46.80707" lon="5.42482">
        <ele>213.8</ele>
        <time>2022-05-08T11:30:30Z</time>
      </trkpt>
      <trkpt lat="46.80703" lon="5.42479">
        <ele>213.4</ele>
        <time>2022-05-08T11:30:35Z</time>
      </trkpt>
      <trkpt lat="46.80699" lon="5.42476">
        <ele>213.4</ele>
        <time>2022-05-08T11:30:40Z</time>
      </trkpt>
      <trkpt lat="46.80694" lon="5.42472">
        <ele>213.9</ele>
        <time>2022-05-08T11:30:45Z</time>
      </trkpt>
      <trkpt lat="46.8069" lon="5.42468">
        <ele>214.3</ele>
        <time>2022-05-08T11:30:50Z</time>
      </trkpt>
      <trkpt lat="46.80686" lon="5.42464">
        <ele>214.9</ele>
        <time>2022-05-08T11:30:55Z</time>
      </trkpt>
      <trkpt lat="46.80681" lon="5.4246">
        <ele>215.2</ele>
        <time>2022-05-08T11:31:00Z</time>
      </trkpt>
      <trkpt lat="46.80676" lon="5.42457">
        <ele>215.1</ele>
        <time>2022-05-08T11:31:05Z</time>
      </trkpt>
      <trkpt lat="46.80672" lon="5.42455">
        <ele>214.9</ele>
        <time>2022-05-08T11:31:09Z</time>
      </trkpt>
      <trkpt lat="46.80667" lon="5.42453">
        <ele>214.8</ele>
        <time>2022-05-08T11:31:14Z</time>
      </trkpt>
      <trkpt lat="46.80662" lon="5.4245">
        <ele>214.5</ele>
        <time>2022-05-08T11:31:19Z</time>
      </trkpt>
      <trkpt lat="46.80658" lon="5.42447">
        <ele>214.2</ele>
        <time>2022-05-08T11:31:25Z</time>
      </trkpt>
      <trkpt lat="46.80654" lon="5.42444">
        <ele>214.1</ele>
        <time>2022-05-08T11:31:29Z</time>
      </trkpt>
      <trkpt lat="46.80648" lon="5.42443">
        <ele>214</ele>
        <time>2022-05-08T11:31:34Z</time>
      </trkpt>
      <trkpt lat="46.80643" lon="5.42442">
        <ele>214.1</ele>
        <time>2022-05-08T11:31:41Z</time>
      </trkpt>
      <trkpt lat="46.80638" lon="5.4244">
        <ele>213.6</ele>
        <time>2022-05-08T11:31:47Z</time>
      </trkpt>
      <trkpt lat="46.80633" lon="5.42436">
        <ele>212.9</ele>
        <time>2022-05-08T11:31:53Z</time>
      </trkpt>
      <trkpt lat="46.8063" lon="5.42431">
        <ele>212.5</ele>
        <time>2022-05-08T11:31:56Z</time>
      </trkpt>
      <trkpt lat="46.80625" lon="5.42427">
        <ele>212.1</ele>
        <time>2022-05-08T11:31:59Z</time>
      </trkpt>
      <trkpt lat="46.80621" lon="5.42423">
        <ele>211.7</ele>
        <time>2022-05-08T11:32:02Z</time>
      </trkpt>
      <trkpt lat="46.80616" lon="5.4242">
        <ele>211.2</ele>
        <time>2022-05-08T11:32:06Z</time>
      </trkpt>
      <trkpt lat="46.80611" lon="5.42419">
        <ele>210.8</ele>
        <time>2022-05-08T11:32:09Z</time>
      </trkpt>
      <trkpt lat="46.80605" lon="5.42416">
        <ele>210.3</ele>
        <time>2022-05-08T11:32:13Z</time>
      </trkpt>
      <trkpt lat="46.80601" lon="5.42414">
        <ele>209.8</ele>
        <time>2022-05-08T11:32:17Z</time>
      </trkpt>
      <trkpt lat="46.80596" lon="5.42412">
        <ele>209.2</ele>
        <time>2022-05-08T11:32:21Z</time>
      </trkpt>
      <trkpt lat="46.80591" lon="5.42408">
        <ele>208.3</ele>
        <time>2022-05-08T11:32:26Z</time>
      </trkpt>
      <trkpt lat="46.80587" lon="5.42405">
        <ele>207.4</ele>
        <time>2022-05-08T11:32:31Z</time>
      </trkpt>
      <trkpt lat="46.80582" lon="5.42402">
        <ele>206.9</ele>
        <time>2022-05-08T11:32:35Z</time>
      </trkpt>
      <trkpt lat="46.80578" lon="5.424">
        <ele>206.5</ele>
        <time>2022-05-08T11:32:39Z</time>
      </trkpt>
      <trkpt lat="46.80573" lon="5.42399">
        <ele>206.4</ele>
        <time>2022-05-08T11:32:43Z</time>
      </trkpt>
      <trkpt lat="46.80568" lon="5.42398">
        <ele>206.5</ele>
        <time>2022-05-08T11:32:47Z</time>
      </trkpt>
      <trkpt lat="46.80564" lon="5.42396">
        <ele>206.3</ele>
        <time>2022-05-08T11:32:52Z</time>
      </trkpt>
      <trkpt lat="46.8056" lon="5.42392">
        <ele>206</ele>
        <time>2022-05-08T11:32:58Z</time>
      </trkpt>
      <trkpt lat="46.80554" lon="5.4239">
        <ele>205.7</ele>
        <time>2022-05-08T11:33:04Z</time>
      </trkpt>
      <trkpt lat="46.8055" lon="5.42387">
        <ele>206</ele>
        <time>2022-05-08T11:33:07Z</time>
      </trkpt>
      <trkpt lat="46.80546" lon="5.42383">
        <ele>206.4</ele>
        <time>2022-05-08T11:33:10Z</time>
      </trkpt>
      <trkpt lat="46.80542" lon="5.42379">
        <ele>206.9</ele>
        <time>2022-05-08T11:33:13Z</time>
      </trkpt>
      <trkpt lat="46.80537" lon="5.42376">
        <ele>207.5</ele>
        <time>2022-05-08T11:33:16Z</time>
      </trkpt>
      <trkpt lat="46.80533" lon="5.42373">
        <ele>208.2</ele>
        <time>2022-05-08T11:33:20Z</time>
      </trkpt>
      <trkpt lat="46.80529" lon="5.42369">
        <ele>208.6</ele>
        <time>2022-05-08T11:33:24Z</time>
      </trkpt>
      <trkpt lat="46.80525" lon="5.42366">
        <ele>208.7</ele>
        <time>2022-05-08T11:33:29Z</time>
      </trkpt>
      <trkpt lat="46.80521" lon="5.42362">
        <ele>208.8</ele>
        <time>2022-05-08T11:33:33Z</time>
      </trkpt>
      <trkpt lat="46.80516" lon="5.42359">
        <ele>209.1</ele>
        <time>2022-05-08T11:33:37Z</time>
      </trkpt>
      <trkpt lat="46.80513" lon="5.42354">
        <ele>209.1</ele>
        <time>2022-05-08T11:33:42Z</time>
      </trkpt>
      <trkpt lat="46.8051" lon="5.42348">
        <ele>208.9</ele>
        <time>2022-05-08T11:33:47Z</time>
      </trkpt>
      <trkpt lat="46.80504" lon="5.42347">
        <ele>208.8</ele>
        <time>2022-05-08T11:33:51Z</time>
      </trkpt>
      <trkpt lat="46.80498" lon="5.42345">
        <ele>208.9</ele>
        <time>2022-05-08T11:33:55Z</time>
      </trkpt>
      <trkpt lat="46.80493" lon="5.42344">
        <ele>209.1</ele>
        <time>2022-05-08T11:33:59Z</time>
      </trkpt>
      <trkpt lat="46.80488" lon="5.42346">
        <ele>209.2</ele>
        <time>2022-05-08T11:34:02Z</time>
      </trkpt>
      <trkpt lat="46.80484" lon="5.42345">
        <ele>209.5</ele>
        <time>2022-05-08T11:34:06Z</time>
      </trkpt>
      <trkpt lat="46.80479" lon="5.42343">
        <ele>209.9</ele>
        <time>2022-05-08T11:34:11Z</time>
      </trkpt>
      <trkpt lat="46.80474" lon="5.4234">
        <ele>210.2</ele>
        <time>2022-05-08T11:34:16Z</time>
      </trkpt>
      <trkpt lat="46.8047" lon="5.42338">
        <ele>210.5</ele>
        <time>2022-05-08T11:34:20Z</time>
      </trkpt>
      <trkpt lat="46.80465" lon="5.42336">
        <ele>211</ele>
        <time>2022-05-08T11:34:24Z</time>
      </trkpt>
      <trkpt lat="46.8046" lon="5.42334">
        <ele>211.5</ele>
        <time>2022-05-08T11:34:28Z</time>
      </trkpt>
      <trkpt lat="46.80456" lon="5.42331">
        <ele>211.9</ele>
        <time>2022-05-08T11:34:32Z</time>
      </trkpt>
      <trkpt lat="46.80451" lon="5.42328">
        <ele>212.1</ele>
        <time>2022-05-08T11:34:36Z</time>
      </trkpt>
      <trkpt lat="46.80447" lon="5.42325">
        <ele>212.3</ele>
        <time>2022-05-08T11:34:40Z</time>
      </trkpt>
      <trkpt lat="46.80443" lon="5.42323">
        <ele>212.3</ele>
        <time>2022-05-08T11:34:44Z</time>
      </trkpt>
      <trkpt lat="46.80438" lon="5.42319">
        <ele>212.3</ele>
        <time>2022-05-08T11:34:49Z</time>
      </trkpt>
      <trkpt lat="46.80433" lon="5.42317">
        <ele>212.6</ele>
        <time>2022-05-08T11:34:53Z</time>
      </trkpt>
      <trkpt lat="46.80429" lon="5.42314">
        <ele>212.8</ele>
        <time>2022-05-08T11:34:57Z</time>
      </trkpt>
      <trkpt lat="46.80425" lon="5.4231">
        <ele>212.6</ele>
        <time>2022-05-08T11:35:02Z</time>
      </trkpt>
      <trkpt lat="46.80421" lon="5.42307">
        <ele>212.6</ele>
        <time>2022-05-08T11:35:06Z</time>
      </trkpt>
      <trkpt lat="46.80416" lon="5.42305">
        <ele>212.5</ele>
        <time>2022-05-08T11:35:10Z</time>
      </trkpt>
      <trkpt lat="46.80412" lon="5.423">
        <ele>212.4</ele>
        <time>2022-05-08T11:35:15Z</time>
      </trkpt>
      <trkpt lat="46.80408" lon="5.42295">
        <ele>212.3</ele>
        <time>2022-05-08T11:35:21Z</time>
      </trkpt>
      <trkpt lat="46.80403" lon="5.42293">
        <ele>212.7</ele>
        <time>2022-05-08T11:35:25Z</time>
      </trkpt>
      <trkpt lat="46.80397" lon="5.4229">
        <ele>213.2</ele>
        <time>2022-05-08T11:35:29Z</time>
      </trkpt>
      <trkpt lat="46.80392" lon="5.42288">
        <ele>213.8</ele>
        <time>2022-05-08T11:35:34Z</time>
      </trkpt>
      <trkpt lat="46.80387" lon="5.42286">
        <ele>214.5</ele>
        <time>2022-05-08T11:35:38Z</time>
      </trkpt>
      <trkpt lat="46.80383" lon="5.42283">
        <ele>215.2</ele>
        <time>2022-05-08T11:35:42Z</time>
      </trkpt>
      <trkpt lat="46.80378" lon="5.4228">
        <ele>215.9</ele>
        <time>2022-05-08T11:35:47Z</time>
      </trkpt>
      <trkpt lat="46.80374" lon="5.42278">
        <ele>216.4</ele>
        <time>2022-05-08T11:35:51Z</time>
      </trkpt>
      <trkpt lat="46.80368" lon="5.42276">
        <ele>216.9</ele>
        <time>2022-05-08T11:35:56Z</time>
      </trkpt>
      <trkpt lat="46.80363" lon="5.42275">
        <ele>217.2</ele>
        <time>2022-05-08T11:36:00Z</time>
      </trkpt>
      <trkpt lat="46.80358" lon="5.42271">
        <ele>217.6</ele>
        <time>2022-05-08T11:36:04Z</time>
      </trkpt>
      <trkpt lat="46.80354" lon="5.42267">
        <ele>218</ele>
        <time>2022-05-08T11:36:08Z</time>
      </trkpt>
      <trkpt lat="46.8035" lon="5.42263">
        <ele>218.4</ele>
        <time>2022-05-08T11:36:12Z</time>
      </trkpt>
      <trkpt lat="46.80346" lon="5.42259">
        <ele>218.8</ele>
        <time>2022-05-08T11:36:16Z</time>
      </trkpt>
      <trkpt lat="46.80341" lon="5.42256">
        <ele>219.2</ele>
        <time>2022-05-08T11:36:20Z</time>
      </trkpt>
      <trkpt lat="46.80337" lon="5.42254">
        <ele>219.7</ele>
        <time>2022-05-08T11:36:24Z</time>
      </trkpt>
      <trkpt lat="46.80332" lon="5.4225">
        <ele>220</ele>
        <time>2022-05-08T11:36:29Z</time>
      </trkpt>
      <trkpt lat="46.80327" lon="5.42246">
        <ele>219.8</ele>
        <time>2022-05-08T11:36:35Z</time>
      </trkpt>
      <trkpt lat="46.80323" lon="5.42243">
        <ele>219.3</ele>
        <time>2022-05-08T11:36:39Z</time>
      </trkpt>
      <trkpt lat="46.80318" lon="5.4224">
        <ele>218.8</ele>
        <time>2022-05-08T11:36:43Z</time>
      </trkpt>
      <trkpt lat="46.80314" lon="5.42238">
        <ele>218.4</ele>
        <time>2022-05-08T11:36:47Z</time>
      </trkpt>
      <trkpt lat="46.80309" lon="5.42235">
        <ele>218</ele>
        <time>2022-05-08T11:36:52Z</time>
      </trkpt>
      <trkpt lat="46.80305" lon="5.42232">
        <ele>217.6</ele>
        <time>2022-05-08T11:36:56Z</time>
      </trkpt>
      <trkpt lat="46.80301" lon="5.42229">
        <ele>217.4</ele>
        <time>2022-05-08T11:37:00Z</time>
      </trkpt>
      <trkpt lat="46.80296" lon="5.42226">
        <ele>217.2</ele>
        <time>2022-05-08T11:37:04Z</time>
      </trkpt>
      <trkpt lat="46.80292" lon="5.42224">
        <ele>217.2</ele>
        <time>2022-05-08T11:37:08Z</time>
      </trkpt>
      <trkpt lat="46.80287" lon="5.42222">
        <ele>217.2</ele>
        <time>2022-05-08T11:37:12Z</time>
      </trkpt>
      <trkpt lat="46.80282" lon="5.42221">
        <ele>217.2</ele>
        <time>2022-05-08T11:37:16Z</time>
      </trkpt>
      <trkpt lat="46.80277" lon="5.4222">
        <ele>216.7</ele>
        <time>2022-05-08T11:37:21Z</time>
      </trkpt>
      <trkpt lat="46.80272" lon="5.42219">
        <ele>216.2</ele>
        <time>2022-05-08T11:37:26Z</time>
      </trkpt>
      <trkpt lat="46.80271" lon="5.42213">
        <ele>215.4</ele>
        <time>2022-05-08T11:37:31Z</time>
      </trkpt>
      <trkpt lat="46.80273" lon="5.42205">
        <ele>214.2</ele>
        <time>2022-05-08T11:38:32Z</time>
      </trkpt>
      <trkpt lat="46.80275" lon="5.42199">
        <ele>213.7</ele>
        <time>2022-05-08T11:42:41Z</time>
      </trkpt>
      <trkpt lat="46.80279" lon="5.42195">
        <ele>212.4</ele>
        <time>2022-05-08T11:42:47Z</time>
      </trkpt>
      <trkpt lat="46.80283" lon="5.42191">
        <ele>211.3</ele>
        <time>2022-05-08T11:42:52Z</time>
      </trkpt>
      <trkpt lat="46.80287" lon="5.42187">
        <ele>210.2</ele>
        <time>2022-05-08T11:42:58Z</time>
      </trkpt>
      <trkpt lat="46.80289" lon="5.42181">
        <ele>208.8</ele>
        <time>2022-05-08T11:43:03Z</time>
      </trkpt>
      <trkpt lat="46.80293" lon="5.42176">
        <ele>207</ele>
        <time>2022-05-08T11:43:08Z</time>
      </trkpt>
      <trkpt lat="46.80298" lon="5.42172">
        <ele>205.1</ele>
        <time>2022-05-08T11:43:13Z</time>
      </trkpt>
      <trkpt lat="46.80301" lon="5.42167">
        <ele>203.9</ele>
        <time>2022-05-08T11:43:17Z</time>
      </trkpt>
      <trkpt lat="46.80304" lon="5.42162">
        <ele>203.2</ele>
        <time>2022-05-08T11:43:21Z</time>
      </trkpt>
      <trkpt lat="46.80307" lon="5.42156">
        <ele>202.8</ele>
        <time>2022-05-08T11:43:26Z</time>
      </trkpt>
      <trkpt lat="46.80311" lon="5.4215">
        <ele>202.8</ele>
        <time>2022-05-08T11:43:31Z</time>
      </trkpt>
      <trkpt lat="46.80314" lon="5.42145">
        <ele>203.1</ele>
        <time>2022-05-08T11:43:35Z</time>
      </trkpt>
      <trkpt lat="46.80318" lon="5.42139">
        <ele>203.1</ele>
        <time>2022-05-08T11:43:40Z</time>
      </trkpt>
      <trkpt lat="46.8032" lon="5.42133">
        <ele>203.1</ele>
        <time>2022-05-08T11:43:43Z</time>
      </trkpt>
      <trkpt lat="46.80323" lon="5.42128">
        <ele>203.6</ele>
        <time>2022-05-08T11:43:48Z</time>
      </trkpt>
      <trkpt lat="46.80325" lon="5.42121">
        <ele>203.9</ele>
        <time>2022-05-08T11:43:52Z</time>
      </trkpt>
      <trkpt lat="46.80327" lon="5.42114">
        <ele>204.2</ele>
        <time>2022-05-08T11:43:56Z</time>
      </trkpt>
      <trkpt lat="46.8033" lon="5.42108">
        <ele>204.6</ele>
        <time>2022-05-08T11:44:00Z</time>
      </trkpt>
      <trkpt lat="46.80332" lon="5.42102">
        <ele>205.1</ele>
        <time>2022-05-08T11:44:04Z</time>
      </trkpt>
      <trkpt lat="46.80334" lon="5.42095">
        <ele>205.7</ele>
        <time>2022-05-08T11:44:08Z</time>
      </trkpt>
      <trkpt lat="46.80336" lon="5.42088">
        <ele>206.3</ele>
        <time>2022-05-08T11:44:11Z</time>
      </trkpt>
      <trkpt lat="46.80337" lon="5.42081">
        <ele>207.4</ele>
        <time>2022-05-08T11:44:15Z</time>
      </trkpt>
      <trkpt lat="46.8034" lon="5.42074">
        <ele>209</ele>
        <time>2022-05-08T11:44:21Z</time>
      </trkpt>
      <trkpt lat="46.80344" lon="5.42071">
        <ele>209.7</ele>
        <time>2022-05-08T11:44:25Z</time>
      </trkpt>
      <trkpt lat="46.80348" lon="5.42067">
        <ele>210.5</ele>
        <time>2022-05-08T11:44:29Z</time>
      </trkpt>
      <trkpt lat="46.80351" lon="5.42062">
        <ele>211.2</ele>
        <time>2022-05-08T11:44:34Z</time>
      </trkpt>
      <trkpt lat="46.80353" lon="5.42056">
        <ele>211.9</ele>
        <time>2022-05-08T11:44:38Z</time>
      </trkpt>
      <trkpt lat="46.80356" lon="5.42051">
        <ele>212.3</ele>
        <time>2022-05-08T11:44:42Z</time>
      </trkpt>
      <trkpt lat="46.8036" lon="5.42046">
        <ele>212.2</ele>
        <time>2022-05-08T11:44:47Z</time>
      </trkpt>
      <trkpt lat="46.80364" lon="5.42042">
        <ele>212</ele>
        <time>2022-05-08T11:44:51Z</time>
      </trkpt>
      <trkpt lat="46.80369" lon="5.42038">
        <ele>211.7</ele>
        <time>2022-05-08T11:44:55Z</time>
      </trkpt>
      <trkpt lat="46.80373" lon="5.42033">
        <ele>211.1</ele>
        <time>2022-05-08T11:45:00Z</time>
      </trkpt>
      <trkpt lat="46.80376" lon="5.42027">
        <ele>210.5</ele>
        <time>2022-05-08T11:45:05Z</time>
      </trkpt>
      <trkpt lat="46.80378" lon="5.4202">
        <ele>210.3</ele>
        <time>2022-05-08T11:45:09Z</time>
      </trkpt>
      <trkpt lat="46.8038" lon="5.42014">
        <ele>210.1</ele>
        <time>2022-05-08T11:45:13Z</time>
      </trkpt>
      <trkpt lat="46.80384" lon="5.42008">
        <ele>210.2</ele>
        <time>2022-05-08T11:45:17Z</time>
      </trkpt>
      <trkpt lat="46.80387" lon="5.42002">
        <ele>210.9</ele>
        <time>2022-05-08T11:45:21Z</time>
      </trkpt>
      <trkpt lat="46.80389" lon="5.41996">
        <ele>211.8</ele>
        <time>2022-05-08T11:45:25Z</time>
      </trkpt>
      <trkpt lat="46.80392" lon="5.4199">
        <ele>213.5</ele>
        <time>2022-05-08T11:45:31Z</time>
      </trkpt>
      <trkpt lat="46.80395" lon="5.41984">
        <ele>214.5</ele>
        <time>2022-05-08T11:45:36Z</time>
      </trkpt>
      <trkpt lat="46.80398" lon="5.4198">
        <ele>216.3</ele>
        <time>2022-05-08T11:45:40Z</time>
      </trkpt>
      <trkpt lat="46.80403" lon="5.4198">
        <ele>218</ele>
        <time>2022-05-08T11:45:45Z</time>
      </trkpt>
      <trkpt lat="46.80408" lon="5.41983">
        <ele>219.3</ele>
        <time>2022-05-08T11:45:54Z</time>
      </trkpt>
      <trkpt lat="46.80409" lon="5.41991">
        <ele>218.2</ele>
        <time>2022-05-08T11:46:00Z</time>
      </trkpt>
      <trkpt lat="46.80413" lon="5.41996">
        <ele>217.4</ele>
        <time>2022-05-08T11:46:04Z</time>
      </trkpt>
      <trkpt lat="46.80418" lon="5.41997">
        <ele>217</ele>
        <time>2022-05-08T11:46:10Z</time>
      </trkpt>
      <trkpt lat="46.80422" lon="5.42001">
        <ele>217.2</ele>
        <time>2022-05-08T11:46:17Z</time>
      </trkpt>
      <trkpt lat="46.80426" lon="5.42005">
        <ele>216.9</ele>
        <time>2022-05-08T11:46:26Z</time>
      </trkpt>
      <trkpt lat="46.80431" lon="5.42007">
        <ele>216.2</ele>
        <time>2022-05-08T11:46:32Z</time>
      </trkpt>
      <trkpt lat="46.80436" lon="5.42009">
        <ele>215.4</ele>
        <time>2022-05-08T11:46:37Z</time>
      </trkpt>
      <trkpt lat="46.8044" lon="5.42012">
        <ele>214.2</ele>
        <time>2022-05-08T11:46:43Z</time>
      </trkpt>
      <trkpt lat="46.80445" lon="5.42014">
        <ele>213.2</ele>
        <time>2022-05-08T11:46:50Z</time>
      </trkpt>
      <trkpt lat="46.8045" lon="5.42016">
        <ele>212.8</ele>
        <time>2022-05-08T11:46:59Z</time>
      </trkpt>
      <trkpt lat="46.80454" lon="5.42019">
        <ele>212.6</ele>
        <time>2022-05-08T11:47:03Z</time>
      </trkpt>
      <trkpt lat="46.80458" lon="5.4202">
        <ele>212.2</ele>
        <time>2022-05-08T11:47:06Z</time>
      </trkpt>
      <trkpt lat="46.80463" lon="5.42023">
        <ele>211.8</ele>
        <time>2022-05-08T11:47:10Z</time>
      </trkpt>
      <trkpt lat="46.80467" lon="5.42028">
        <ele>211.3</ele>
        <time>2022-05-08T11:47:16Z</time>
      </trkpt>
      <trkpt lat="46.80471" lon="5.42032">
        <ele>211.7</ele>
        <time>2022-05-08T11:47:21Z</time>
      </trkpt>
      <trkpt lat="46.80475" lon="5.42036">
        <ele>212</ele>
        <time>2022-05-08T11:47:25Z</time>
      </trkpt>
      <trkpt lat="46.80479" lon="5.42039">
        <ele>212</ele>
        <time>2022-05-08T11:47:31Z</time>
      </trkpt>
      <trkpt lat="46.80484" lon="5.42041">
        <ele>209.9</ele>
        <time>2022-05-08T11:47:40Z</time>
      </trkpt>
      <trkpt lat="46.80488" lon="5.42042">
        <ele>209</ele>
        <time>2022-05-08T11:47:45Z</time>
      </trkpt>
      <trkpt lat="46.80493" lon="5.42044">
        <ele>208.5</ele>
        <time>2022-05-08T11:47:50Z</time>
      </trkpt>
      <trkpt lat="46.80499" lon="5.42046">
        <ele>208</ele>
        <time>2022-05-08T11:47:55Z</time>
      </trkpt>
      <trkpt lat="46.80503" lon="5.42048">
        <ele>207</ele>
        <time>2022-05-08T11:48:03Z</time>
      </trkpt>
      <trkpt lat="46.80507" lon="5.42051">
        <ele>206</ele>
        <time>2022-05-08T11:48:09Z</time>
      </trkpt>
      <trkpt lat="46.80512" lon="5.42053">
        <ele>205.2</ele>
        <time>2022-05-08T11:48:15Z</time>
      </trkpt>
      <trkpt lat="46.80515" lon="5.42058">
        <ele>204.5</ele>
        <time>2022-05-08T11:48:20Z</time>
      </trkpt>
      <trkpt lat="46.80518" lon="5.42065">
        <ele>203.9</ele>
        <time>2022-05-08T11:48:24Z</time>
      </trkpt>
      <trkpt lat="46.80521" lon="5.42069">
        <ele>203.4</ele>
        <time>2022-05-08T11:48:28Z</time>
      </trkpt>
      <trkpt lat="46.80525" lon="5.42074">
        <ele>203.5</ele>
        <time>2022-05-08T11:48:33Z</time>
      </trkpt>
      <trkpt lat="46.8053" lon="5.42076">
        <ele>204.2</ele>
        <time>2022-05-08T11:48:38Z</time>
      </trkpt>
      <trkpt lat="46.80537" lon="5.42075">
        <ele>205.5</ele>
        <time>2022-05-08T11:48:50Z</time>
      </trkpt>
      <trkpt lat="46.80542" lon="5.42077">
        <ele>206</ele>
        <time>2022-05-08T11:48:53Z</time>
      </trkpt>
      <trkpt lat="46.80547" lon="5.42079">
        <ele>206.4</ele>
        <time>2022-05-08T11:48:57Z</time>
      </trkpt>
      <trkpt lat="46.80552" lon="5.4208">
        <ele>206.9</ele>
        <time>2022-05-08T11:49:02Z</time>
      </trkpt>
      <trkpt lat="46.80557" lon="5.42081">
        <ele>207.3</ele>
        <time>2022-05-08T11:49:07Z</time>
      </trkpt>
      <trkpt lat="46.80562" lon="5.4208">
        <ele>206.9</ele>
        <time>2022-05-08T11:49:13Z</time>
      </trkpt>
      <trkpt lat="46.80566" lon="5.42075">
        <ele>206</ele>
        <time>2022-05-08T11:49:20Z</time>
      </trkpt>
      <trkpt lat="46.8057" lon="5.42074">
        <ele>206</ele>
        <time>2022-05-08T11:49:25Z</time>
      </trkpt>
      <trkpt lat="46.80575" lon="5.42071">
        <ele>206.4</ele>
        <time>2022-05-08T11:49:31Z</time>
      </trkpt>
      <trkpt lat="46.8058" lon="5.42068">
        <ele>206.7</ele>
        <time>2022-05-08T11:49:36Z</time>
      </trkpt>
      <trkpt lat="46.80584" lon="5.42065">
        <ele>206.5</ele>
        <time>2022-05-08T11:49:40Z</time>
      </trkpt>
      <trkpt lat="46.80589" lon="5.42063">
        <ele>206.2</ele>
        <time>2022-05-08T11:49:45Z</time>
      </trkpt>
      <trkpt lat="46.80594" lon="5.42061">
        <ele>205.6</ele>
        <time>2022-05-08T11:49:52Z</time>
      </trkpt>
      <trkpt lat="46.80598" lon="5.42056">
        <ele>206</ele>
        <time>2022-05-08T11:50:06Z</time>
      </trkpt>
      <trkpt lat="46.80602" lon="5.42052">
        <ele>206.9</ele>
        <time>2022-05-08T11:50:10Z</time>
      </trkpt>
      <trkpt lat="46.80606" lon="5.42046">
        <ele>208</ele>
        <time>2022-05-08T11:50:15Z</time>
      </trkpt>
      <trkpt lat="46.80606" lon="5.42053">
        <ele>204.4</ele>
        <time>2022-05-08T11:51:13Z</time>
      </trkpt>
      <trkpt lat="46.80602" lon="5.42055">
        <ele>203.4</ele>
        <time>2022-05-08T11:51:20Z</time>
      </trkpt>
      <trkpt lat="46.80598" lon="5.42061">
        <ele>205.2</ele>
        <time>2022-05-08T11:51:49Z</time>
      </trkpt>
      <trkpt lat="46.80604" lon="5.42058">
        <ele>207.1</ele>
        <time>2022-05-08T11:52:16Z</time>
      </trkpt>
      <trkpt lat="46.80609" lon="5.42052">
        <ele>207.2</ele>
        <time>2022-05-08T11:52:19Z</time>
      </trkpt>
      <trkpt lat="46.80612" lon="5.42047">
        <ele>207.8</ele>
        <time>2022-05-08T11:52:24Z</time>
      </trkpt>
      <trkpt lat="46.80608" lon="5.42051">
        <ele>209.5</ele>
        <time>2022-05-08T11:52:42Z</time>
      </trkpt>
      <trkpt lat="46.80603" lon="5.42052">
        <ele>209.7</ele>
        <time>2022-05-08T11:52:45Z</time>
      </trkpt>
      <trkpt lat="46.80598" lon="5.42052">
        <ele>211</ele>
        <time>2022-05-08T11:53:10Z</time>
      </trkpt>
      <trkpt lat="46.80603" lon="5.42053">
        <ele>211.4</ele>
        <time>2022-05-08T11:53:50Z</time>
      </trkpt>
      <trkpt lat="46.80598" lon="5.42049">
        <ele>207.6</ele>
        <time>2022-05-08T11:54:50Z</time>
      </trkpt>
      <trkpt lat="46.80602" lon="5.42052">
        <ele>207.6</ele>
        <time>2022-05-08T11:55:11Z</time>
      </trkpt>
      <trkpt lat="46.80607" lon="5.4205">
        <ele>207.8</ele>
        <time>2022-05-08T11:55:15Z</time>
      </trkpt>
      <trkpt lat="46.80604" lon="5.42056">
        <ele>208.9</ele>
        <time>2022-05-08T11:55:41Z</time>
      </trkpt>
      <trkpt lat="46.80599" lon="5.42056">
        <ele>208.5</ele>
        <time>2022-05-08T11:56:03Z</time>
      </trkpt>
      <trkpt lat="46.80594" lon="5.42057">
        <ele>207.9</ele>
        <time>2022-05-08T11:56:09Z</time>
      </trkpt>
      <trkpt lat="46.80591" lon="5.42061">
        <ele>207.3</ele>
        <time>2022-05-08T11:56:14Z</time>
      </trkpt>
      <trkpt lat="46.80587" lon="5.42066">
        <ele>207.2</ele>
        <time>2022-05-08T11:56:19Z</time>
      </trkpt>
      <trkpt lat="46.80584" lon="5.42072">
        <ele>207.5</ele>
        <time>2022-05-08T11:56:26Z</time>
      </trkpt>
      <trkpt lat="46.80579" lon="5.42075">
        <ele>207.4</ele>
        <time>2022-05-08T11:56:30Z</time>
      </trkpt>
      <trkpt lat="46.80574" lon="5.42077">
        <ele>207.2</ele>
        <time>2022-05-08T11:56:34Z</time>
      </trkpt>
      <trkpt lat="46.8057" lon="5.4208">
        <ele>207.5</ele>
        <time>2022-05-08T11:56:41Z</time>
      </trkpt>
      <trkpt lat="46.80566" lon="5.42081">
        <ele>208.1</ele>
        <time>2022-05-08T11:56:48Z</time>
      </trkpt>
      <trkpt lat="46.8056" lon="5.42081">
        <ele>207.7</ele>
        <time>2022-05-08T11:56:54Z</time>
      </trkpt>
      <trkpt lat="46.80555" lon="5.42081">
        <ele>207.4</ele>
        <time>2022-05-08T11:56:58Z</time>
      </trkpt>
      <trkpt lat="46.8055" lon="5.42082">
        <ele>207.2</ele>
        <time>2022-05-08T11:57:02Z</time>
      </trkpt>
      <trkpt lat="46.80546" lon="5.42082">
        <ele>206.7</ele>
        <time>2022-05-08T11:57:06Z</time>
      </trkpt>
      <trkpt lat="46.80541" lon="5.42084">
        <ele>206.5</ele>
        <time>2022-05-08T11:57:10Z</time>
      </trkpt>
      <trkpt lat="46.80536" lon="5.42084">
        <ele>206.2</ele>
        <time>2022-05-08T11:57:16Z</time>
      </trkpt>
      <trkpt lat="46.80532" lon="5.42082">
        <ele>206.5</ele>
        <time>2022-05-08T11:57:23Z</time>
      </trkpt>
      <trkpt lat="46.80526" lon="5.42079">
        <ele>207.3</ele>
        <time>2022-05-08T11:57:30Z</time>
      </trkpt>
      <trkpt lat="46.80528" lon="5.42072">
        <ele>211.2</ele>
        <time>2022-05-08T11:57:46Z</time>
      </trkpt>
      <trkpt lat="46.80523" lon="5.42069">
        <ele>212.8</ele>
        <time>2022-05-08T11:58:02Z</time>
      </trkpt>
      <trkpt lat="46.80519" lon="5.42066">
        <ele>212.6</ele>
        <time>2022-05-08T11:58:08Z</time>
      </trkpt>
      <trkpt lat="46.80516" lon="5.42061">
        <ele>212</ele>
        <time>2022-05-08T11:58:12Z</time>
      </trkpt>
      <trkpt lat="46.80513" lon="5.42056">
        <ele>211.3</ele>
        <time>2022-05-08T11:58:16Z</time>
      </trkpt>
      <trkpt lat="46.80509" lon="5.42052">
        <ele>210</ele>
        <time>2022-05-08T11:58:22Z</time>
      </trkpt>
      <trkpt lat="46.80505" lon="5.42048">
        <ele>209.5</ele>
        <time>2022-05-08T11:58:29Z</time>
      </trkpt>
      <trkpt lat="46.805" lon="5.42045">
        <ele>210.1</ele>
        <time>2022-05-08T11:58:35Z</time>
      </trkpt>
      <trkpt lat="46.80496" lon="5.42041">
        <ele>210.8</ele>
        <time>2022-05-08T11:58:40Z</time>
      </trkpt>
      <trkpt lat="46.80493" lon="5.42037">
        <ele>211.6</ele>
        <time>2022-05-08T11:58:46Z</time>
      </trkpt>
      <trkpt lat="46.80488" lon="5.42038">
        <ele>212.6</ele>
        <time>2022-05-08T11:58:53Z</time>
      </trkpt>
      <trkpt lat="46.80483" lon="5.42038">
        <ele>212.5</ele>
        <time>2022-05-08T11:58:59Z</time>
      </trkpt>
      <trkpt lat="46.80478" lon="5.42034">
        <ele>212</ele>
        <time>2022-05-08T11:59:05Z</time>
      </trkpt>
      <trkpt lat="46.80474" lon="5.42033">
        <ele>211.9</ele>
        <time>2022-05-08T11:59:10Z</time>
      </trkpt>
      <trkpt lat="46.8047" lon="5.42029">
        <ele>212.4</ele>
        <time>2022-05-08T11:59:15Z</time>
      </trkpt>
      <trkpt lat="46.80466" lon="5.42024">
        <ele>213.4</ele>
        <time>2022-05-08T11:59:23Z</time>
      </trkpt>
      <trkpt lat="46.80462" lon="5.42021">
        <ele>213.7</ele>
        <time>2022-05-08T11:59:27Z</time>
      </trkpt>
      <trkpt lat="46.80458" lon="5.42017">
        <ele>213.8</ele>
        <time>2022-05-08T11:59:33Z</time>
      </trkpt>
      <trkpt lat="46.80453" lon="5.42016">
        <ele>214</ele>
        <time>2022-05-08T11:59:39Z</time>
      </trkpt>
      <trkpt lat="46.80448" lon="5.42014">
        <ele>214.1</ele>
        <time>2022-05-08T11:59:44Z</time>
      </trkpt>
      <trkpt lat="46.80443" lon="5.42011">
        <ele>214.3</ele>
        <time>2022-05-08T11:59:47Z</time>
      </trkpt>
      <trkpt lat="46.80438" lon="5.42012">
        <ele>214.6</ele>
        <time>2022-05-08T11:59:50Z</time>
      </trkpt>
      <trkpt lat="46.80433" lon="5.42009">
        <ele>214.3</ele>
        <time>2022-05-08T11:59:56Z</time>
      </trkpt>
      <trkpt lat="46.80429" lon="5.42006">
        <ele>214.2</ele>
        <time>2022-05-08T12:00:00Z</time>
      </trkpt>
      <trkpt lat="46.80424" lon="5.42002">
        <ele>214</ele>
        <time>2022-05-08T12:00:04Z</time>
      </trkpt>
      <trkpt lat="46.8042" lon="5.41998">
        <ele>213.5</ele>
        <time>2022-05-08T12:00:08Z</time>
      </trkpt>
      <trkpt lat="46.80416" lon="5.41995">
        <ele>212.8</ele>
        <time>2022-05-08T12:00:12Z</time>
      </trkpt>
      <trkpt lat="46.80411" lon="5.41991">
        <ele>212.2</ele>
        <time>2022-05-08T12:00:18Z</time>
      </trkpt>
      <trkpt lat="46.80406" lon="5.41988">
        <ele>211.3</ele>
        <time>2022-05-08T12:00:23Z</time>
      </trkpt>
      <trkpt lat="46.80403" lon="5.41983">
        <ele>207.5</ele>
        <time>2022-05-08T12:00:40Z</time>
      </trkpt>
      <trkpt lat="46.80408" lon="5.41982">
        <ele>207.1</ele>
        <time>2022-05-08T12:01:08Z</time>
      </trkpt>
      <trkpt lat="46.80412" lon="5.41986">
        <ele>207.9</ele>
        <time>2022-05-08T12:01:14Z</time>
      </trkpt>
      <trkpt lat="46.80409" lon="5.41981">
        <ele>210.2</ele>
        <time>2022-05-08T12:01:42Z</time>
      </trkpt>
      <trkpt lat="46.80405" lon="5.41975">
        <ele>209.5</ele>
        <time>2022-05-08T12:01:57Z</time>
      </trkpt>
      <trkpt lat="46.80404" lon="5.41968">
        <ele>209.9</ele>
        <time>2022-05-08T12:02:06Z</time>
      </trkpt>
      <trkpt lat="46.80405" lon="5.41962">
        <ele>209.5</ele>
        <time>2022-05-08T12:02:12Z</time>
      </trkpt>
      <trkpt lat="46.8041" lon="5.41958">
        <ele>208.2</ele>
        <time>2022-05-08T12:02:19Z</time>
      </trkpt>
      <trkpt lat="46.8041" lon="5.41951">
        <ele>207.4</ele>
        <time>2022-05-08T12:02:26Z</time>
      </trkpt>
      <trkpt lat="46.80413" lon="5.41945">
        <ele>207.6</ele>
        <time>2022-05-08T12:02:30Z</time>
      </trkpt>
      <trkpt lat="46.80415" lon="5.41939">
        <ele>207.4</ele>
        <time>2022-05-08T12:02:37Z</time>
      </trkpt>
      <trkpt lat="46.80415" lon="5.4193">
        <ele>207.7</ele>
        <time>2022-05-08T12:02:43Z</time>
      </trkpt>
      <trkpt lat="46.80416" lon="5.41924">
        <ele>208.4</ele>
        <time>2022-05-08T12:02:46Z</time>
      </trkpt>
      <trkpt lat="46.80417" lon="5.41917">
        <ele>207.7</ele>
        <time>2022-05-08T12:02:53Z</time>
      </trkpt>
      <trkpt lat="46.80417" lon="5.4191">
        <ele>207</ele>
        <time>2022-05-08T12:02:59Z</time>
      </trkpt>
      <trkpt lat="46.80416" lon="5.41902">
        <ele>206.6</ele>
        <time>2022-05-08T12:03:04Z</time>
      </trkpt>
      <trkpt lat="46.80417" lon="5.41895">
        <ele>206.6</ele>
        <time>2022-05-08T12:03:09Z</time>
      </trkpt>
      <trkpt lat="46.80416" lon="5.41887">
        <ele>207.2</ele>
        <time>2022-05-08T12:03:13Z</time>
      </trkpt>
      <trkpt lat="46.80415" lon="5.4188">
        <ele>207.8</ele>
        <time>2022-05-08T12:03:17Z</time>
      </trkpt>
      <trkpt lat="46.80414" lon="5.41873">
        <ele>208.4</ele>
        <time>2022-05-08T12:03:21Z</time>
      </trkpt>
      <trkpt lat="46.80413" lon="5.41867">
        <ele>208.7</ele>
        <time>2022-05-08T12:03:25Z</time>
      </trkpt>
      <trkpt lat="46.80412" lon="5.41859">
        <ele>209</ele>
        <time>2022-05-08T12:03:30Z</time>
      </trkpt>
      <trkpt lat="46.80411" lon="5.41851">
        <ele>209</ele>
        <time>2022-05-08T12:03:33Z</time>
      </trkpt>
      <trkpt lat="46.80409" lon="5.41845">
        <ele>209.1</ele>
        <time>2022-05-08T12:03:37Z</time>
      </trkpt>
      <trkpt lat="46.80408" lon="5.41836">
        <ele>209.6</ele>
        <time>2022-05-08T12:03:42Z</time>
      </trkpt>
      <trkpt lat="46.80408" lon="5.41828">
        <ele>210.5</ele>
        <time>2022-05-08T12:03:45Z</time>
      </trkpt>
      <trkpt lat="46.80408" lon="5.41822">
        <ele>211.3</ele>
        <time>2022-05-08T12:03:48Z</time>
      </trkpt>
      <trkpt lat="46.80407" lon="5.41815">
        <ele>212.2</ele>
        <time>2022-05-08T12:03:52Z</time>
      </trkpt>
      <trkpt lat="46.80407" lon="5.41808">
        <ele>212.8</ele>
        <time>2022-05-08T12:03:56Z</time>
      </trkpt>
      <trkpt lat="46.80405" lon="5.41801">
        <ele>213</ele>
        <time>2022-05-08T12:03:59Z</time>
      </trkpt>
      <trkpt lat="46.80404" lon="5.41793">
        <ele>213.3</ele>
        <time>2022-05-08T12:04:02Z</time>
      </trkpt>
      <trkpt lat="46.80403" lon="5.41785">
        <ele>213.7</ele>
        <time>2022-05-08T12:04:05Z</time>
      </trkpt>
      <trkpt lat="46.80403" lon="5.41778">
        <ele>214.7</ele>
        <time>2022-05-08T12:04:11Z</time>
      </trkpt>
      <trkpt lat="46.80402" lon="5.41771">
        <ele>215.4</ele>
        <time>2022-05-08T12:04:16Z</time>
      </trkpt>
      <trkpt lat="46.80402" lon="5.41762">
        <ele>215.9</ele>
        <time>2022-05-08T12:04:20Z</time>
      </trkpt>
      <trkpt lat="46.80402" lon="5.41754">
        <ele>216.6</ele>
        <time>2022-05-08T12:04:24Z</time>
      </trkpt>
      <trkpt lat="46.80402" lon="5.41746">
        <ele>217</ele>
        <time>2022-05-08T12:04:28Z</time>
      </trkpt>
      <trkpt lat="46.80401" lon="5.41738">
        <ele>216.7</ele>
        <time>2022-05-08T12:04:32Z</time>
      </trkpt>
      <trkpt lat="46.80402" lon="5.41731">
        <ele>216.4</ele>
        <time>2022-05-08T12:04:36Z</time>
      </trkpt>
      <trkpt lat="46.80403" lon="5.41724">
        <ele>216</ele>
        <time>2022-05-08T12:04:40Z</time>
      </trkpt>
      <trkpt lat="46.80403" lon="5.41716">
        <ele>215.8</ele>
        <time>2022-05-08T12:04:45Z</time>
      </trkpt>
      <trkpt lat="46.80403" lon="5.41709">
        <ele>215.6</ele>
        <time>2022-05-08T12:04:50Z</time>
      </trkpt>
      <trkpt lat="46.80404" lon="5.41701">
        <ele>216.2</ele>
        <time>2022-05-08T12:04:56Z</time>
      </trkpt>
      <trkpt lat="46.80406" lon="5.41694">
        <ele>216.6</ele>
        <time>2022-05-08T12:05:00Z</time>
      </trkpt>
      <trkpt lat="46.80407" lon="5.41687">
        <ele>216.6</ele>
        <time>2022-05-08T12:05:04Z</time>
      </trkpt>
      <trkpt lat="46.80409" lon="5.41682">
        <ele>216</ele>
        <time>2022-05-08T12:05:10Z</time>
      </trkpt>
      <trkpt lat="46.80413" lon="5.41678">
        <ele>214.7</ele>
        <time>2022-05-08T12:05:15Z</time>
      </trkpt>
      <trkpt lat="46.80417" lon="5.41674">
        <ele>212.2</ele>
        <time>2022-05-08T12:05:21Z</time>
      </trkpt>
      <trkpt lat="46.80419" lon="5.41668">
        <ele>210.1</ele>
        <time>2022-05-08T12:05:26Z</time>
      </trkpt>
      <trkpt lat="46.80422" lon="5.41662">
        <ele>205.7</ele>
        <time>2022-05-08T12:05:35Z</time>
      </trkpt>
      <trkpt lat="46.80425" lon="5.41657">
        <ele>202.9</ele>
        <time>2022-05-08T12:05:40Z</time>
      </trkpt>
      <trkpt lat="46.80428" lon="5.4165">
        <ele>200.4</ele>
        <time>2022-05-08T12:05:45Z</time>
      </trkpt>
      <trkpt lat="46.80429" lon="5.41643">
        <ele>199.2</ele>
        <time>2022-05-08T12:05:49Z</time>
      </trkpt>
      <trkpt lat="46.80431" lon="5.41637">
        <ele>198.1</ele>
        <time>2022-05-08T12:05:53Z</time>
      </trkpt>
      <trkpt lat="46.80434" lon="5.4163">
        <ele>196.9</ele>
        <time>2022-05-08T12:06:00Z</time>
      </trkpt>
      <trkpt lat="46.80437" lon="5.41625">
        <ele>196.6</ele>
        <time>2022-05-08T12:06:05Z</time>
      </trkpt>
      <trkpt lat="46.8044" lon="5.41619">
        <ele>196.5</ele>
        <time>2022-05-08T12:06:09Z</time>
      </trkpt>
      <trkpt lat="46.80442" lon="5.41612">
        <ele>196.4</ele>
        <time>2022-05-08T12:06:12Z</time>
      </trkpt>
      <trkpt lat="46.80443" lon="5.41605">
        <ele>196.4</ele>
        <time>2022-05-08T12:06:15Z</time>
      </trkpt>
      <trkpt lat="46.80444" lon="5.41598">
        <ele>196.1</ele>
        <time>2022-05-08T12:06:18Z</time>
      </trkpt>
      <trkpt lat="46.80444" lon="5.4159">
        <ele>195.9</ele>
        <time>2022-05-08T12:06:21Z</time>
      </trkpt>
      <trkpt lat="46.80445" lon="5.41581">
        <ele>196</ele>
        <time>2022-05-08T12:06:25Z</time>
      </trkpt>
      <trkpt lat="46.80446" lon="5.41575">
        <ele>196.2</ele>
        <time>2022-05-08T12:06:28Z</time>
      </trkpt>
      <trkpt lat="46.8045" lon="5.41571">
        <ele>196.5</ele>
        <time>2022-05-08T12:06:34Z</time>
      </trkpt>
      <trkpt lat="46.80452" lon="5.41564">
        <ele>196.3</ele>
        <time>2022-05-08T12:06:40Z</time>
      </trkpt>
      <trkpt lat="46.80453" lon="5.41556">
        <ele>196.4</ele>
        <time>2022-05-08T12:06:44Z</time>
      </trkpt>
      <trkpt lat="46.80455" lon="5.4155">
        <ele>196.2</ele>
        <time>2022-05-08T12:06:48Z</time>
      </trkpt>
      <trkpt lat="46.80457" lon="5.41543">
        <ele>196.1</ele>
        <time>2022-05-08T12:06:56Z</time>
      </trkpt>
      <trkpt lat="46.80457" lon="5.41536">
        <ele>196.1</ele>
        <time>2022-05-08T12:07:00Z</time>
      </trkpt>
      <trkpt lat="46.80457" lon="5.41529">
        <ele>196.3</ele>
        <time>2022-05-08T12:07:03Z</time>
      </trkpt>
      <trkpt lat="46.80456" lon="5.41522">
        <ele>196.2</ele>
        <time>2022-05-08T12:07:07Z</time>
      </trkpt>
      <trkpt lat="46.80457" lon="5.41515">
        <ele>195.9</ele>
        <time>2022-05-08T12:07:13Z</time>
      </trkpt>
      <trkpt lat="46.80458" lon="5.41507">
        <ele>195.7</ele>
        <time>2022-05-08T12:07:16Z</time>
      </trkpt>
      <trkpt lat="46.80459" lon="5.41499">
        <ele>195.5</ele>
        <time>2022-05-08T12:07:20Z</time>
      </trkpt>
      <trkpt lat="46.80458" lon="5.4149">
        <ele>195.4</ele>
        <time>2022-05-08T12:07:23Z</time>
      </trkpt>
      <trkpt lat="46.80457" lon="5.4148">
        <ele>195.7</ele>
        <time>2022-05-08T12:07:26Z</time>
      </trkpt>
      <trkpt lat="46.80456" lon="5.41471">
        <ele>196.3</ele>
        <time>2022-05-08T12:07:29Z</time>
      </trkpt>
      <trkpt lat="46.80455" lon="5.41465">
        <ele>196.9</ele>
        <time>2022-05-08T12:07:33Z</time>
      </trkpt>
      <trkpt lat="46.80456" lon="5.41458">
        <ele>197</ele>
        <time>2022-05-08T12:07:37Z</time>
      </trkpt>
      <trkpt lat="46.80457" lon="5.41451">
        <ele>197.1</ele>
        <time>2022-05-08T12:07:42Z</time>
      </trkpt>
      <trkpt lat="46.80458" lon="5.41444">
        <ele>197</ele>
        <time>2022-05-08T12:07:49Z</time>
      </trkpt>
      <trkpt lat="46.8046" lon="5.41437">
        <ele>197</ele>
        <time>2022-05-08T12:07:54Z</time>
      </trkpt>
      <trkpt lat="46.80462" lon="5.4143">
        <ele>197.3</ele>
        <time>2022-05-08T12:07:59Z</time>
      </trkpt>
      <trkpt lat="46.80463" lon="5.41423">
        <ele>197.7</ele>
        <time>2022-05-08T12:08:04Z</time>
      </trkpt>
      <trkpt lat="46.80463" lon="5.41415">
        <ele>198.1</ele>
        <time>2022-05-08T12:08:09Z</time>
      </trkpt>
      <trkpt lat="46.80462" lon="5.41407">
        <ele>198.5</ele>
        <time>2022-05-08T12:08:13Z</time>
      </trkpt>
      <trkpt lat="46.80461" lon="5.414">
        <ele>198.8</ele>
        <time>2022-05-08T12:08:17Z</time>
      </trkpt>
      <trkpt lat="46.80461" lon="5.41393">
        <ele>198.7</ele>
        <time>2022-05-08T12:08:21Z</time>
      </trkpt>
      <trkpt lat="46.80462" lon="5.41386">
        <ele>198.8</ele>
        <time>2022-05-08T12:08:25Z</time>
      </trkpt>
      <trkpt lat="46.80463" lon="5.41379">
        <ele>198.6</ele>
        <time>2022-05-08T12:08:30Z</time>
      </trkpt>
      <trkpt lat="46.80464" lon="5.41371">
        <ele>198.9</ele>
        <time>2022-05-08T12:08:34Z</time>
      </trkpt>
      <trkpt lat="46.80465" lon="5.41364">
        <ele>199.2</ele>
        <time>2022-05-08T12:08:38Z</time>
      </trkpt>
      <trkpt lat="46.80465" lon="5.41356">
        <ele>199.4</ele>
        <time>2022-05-08T12:08:43Z</time>
      </trkpt>
      <trkpt lat="46.80466" lon="5.41349">
        <ele>199.4</ele>
        <time>2022-05-08T12:08:48Z</time>
      </trkpt>
      <trkpt lat="46.80466" lon="5.41342">
        <ele>200.3</ele>
        <time>2022-05-08T12:08:53Z</time>
      </trkpt>
      <trkpt lat="46.80465" lon="5.41334">
        <ele>201.4</ele>
        <time>2022-05-08T12:09:01Z</time>
      </trkpt>
      <trkpt lat="46.80469" lon="5.41331">
        <ele>202.2</ele>
        <time>2022-05-08T12:09:24Z</time>
      </trkpt>
      <trkpt lat="46.80469" lon="5.41324">
        <ele>202.1</ele>
        <time>2022-05-08T12:11:35Z</time>
      </trkpt>
      <trkpt lat="46.80471" lon="5.41317">
        <ele>202.3</ele>
        <time>2022-05-08T12:11:40Z</time>
      </trkpt>
      <trkpt lat="46.80473" lon="5.4131">
        <ele>202.7</ele>
        <time>2022-05-08T12:11:47Z</time>
      </trkpt>
      <trkpt lat="46.80474" lon="5.41302">
        <ele>202.8</ele>
        <time>2022-05-08T12:11:53Z</time>
      </trkpt>
      <trkpt lat="46.80477" lon="5.41297">
        <ele>203.1</ele>
        <time>2022-05-08T12:11:57Z</time>
      </trkpt>
      <trkpt lat="46.80481" lon="5.41292">
        <ele>203.5</ele>
        <time>2022-05-08T12:12:01Z</time>
      </trkpt>
      <trkpt lat="46.80483" lon="5.41286">
        <ele>203.8</ele>
        <time>2022-05-08T12:12:05Z</time>
      </trkpt>
      <trkpt lat="46.80487" lon="5.41279">
        <ele>203.9</ele>
        <time>2022-05-08T12:12:09Z</time>
      </trkpt>
      <trkpt lat="46.8049" lon="5.41274">
        <ele>204</ele>
        <time>2022-05-08T12:12:13Z</time>
      </trkpt>
      <trkpt lat="46.80493" lon="5.41269">
        <ele>203.9</ele>
        <time>2022-05-08T12:12:17Z</time>
      </trkpt>
      <trkpt lat="46.80496" lon="5.41263">
        <ele>203.2</ele>
        <time>2022-05-08T12:12:21Z</time>
      </trkpt>
      <trkpt lat="46.80499" lon="5.41258">
        <ele>202.2</ele>
        <time>2022-05-08T12:12:25Z</time>
      </trkpt>
      <trkpt lat="46.80502" lon="5.41252">
        <ele>201.1</ele>
        <time>2022-05-08T12:12:29Z</time>
      </trkpt>
      <trkpt lat="46.80505" lon="5.41245">
        <ele>199.3</ele>
        <time>2022-05-08T12:12:34Z</time>
      </trkpt>
      <trkpt lat="46.80506" lon="5.41238">
        <ele>198.2</ele>
        <time>2022-05-08T12:12:38Z</time>
      </trkpt>
      <trkpt lat="46.80509" lon="5.41233">
        <ele>197.6</ele>
        <time>2022-05-08T12:12:42Z</time>
      </trkpt>
      <trkpt lat="46.80512" lon="5.41226">
        <ele>197</ele>
        <time>2022-05-08T12:12:46Z</time>
      </trkpt>
      <trkpt lat="46.80515" lon="5.4122">
        <ele>196.8</ele>
        <time>2022-05-08T12:12:50Z</time>
      </trkpt>
      <trkpt lat="46.80517" lon="5.41214">
        <ele>196.6</ele>
        <time>2022-05-08T12:12:55Z</time>
      </trkpt>
      <trkpt lat="46.80518" lon="5.41206">
        <ele>196.6</ele>
        <time>2022-05-08T12:13:00Z</time>
      </trkpt>
      <trkpt lat="46.80521" lon="5.41199">
        <ele>196.8</ele>
        <time>2022-05-08T12:13:04Z</time>
      </trkpt>
      <trkpt lat="46.80523" lon="5.41193">
        <ele>197</ele>
        <time>2022-05-08T12:13:09Z</time>
      </trkpt>
      <trkpt lat="46.80527" lon="5.41189">
        <ele>197</ele>
        <time>2022-05-08T12:13:14Z</time>
      </trkpt>
      <trkpt lat="46.8053" lon="5.41182">
        <ele>197</ele>
        <time>2022-05-08T12:13:19Z</time>
      </trkpt>
      <trkpt lat="46.80533" lon="5.41177">
        <ele>197.1</ele>
        <time>2022-05-08T12:13:25Z</time>
      </trkpt>
      <trkpt lat="46.80535" lon="5.4117">
        <ele>197</ele>
        <time>2022-05-08T12:13:29Z</time>
      </trkpt>
      <trkpt lat="46.80537" lon="5.41165">
        <ele>196.8</ele>
        <time>2022-05-08T12:13:33Z</time>
      </trkpt>
      <trkpt lat="46.80541" lon="5.41159">
        <ele>196.8</ele>
        <time>2022-05-08T12:13:38Z</time>
      </trkpt>
      <trkpt lat="46.80543" lon="5.41151">
        <ele>197.1</ele>
        <time>2022-05-08T12:13:43Z</time>
      </trkpt>
      <trkpt lat="46.80546" lon="5.41145">
        <ele>197.7</ele>
        <time>2022-05-08T12:13:49Z</time>
      </trkpt>
      <trkpt lat="46.80549" lon="5.41139">
        <ele>198.2</ele>
        <time>2022-05-08T12:13:56Z</time>
      </trkpt>
      <trkpt lat="46.80552" lon="5.41133">
        <ele>198.7</ele>
        <time>2022-05-08T12:14:00Z</time>
      </trkpt>
      <trkpt lat="46.80554" lon="5.41127">
        <ele>199.1</ele>
        <time>2022-05-08T12:14:03Z</time>
      </trkpt>
      <trkpt lat="46.80557" lon="5.41122">
        <ele>199.5</ele>
        <time>2022-05-08T12:14:06Z</time>
      </trkpt>
      <trkpt lat="46.80559" lon="5.41114">
        <ele>199.8</ele>
        <time>2022-05-08T12:14:10Z</time>
      </trkpt>
      <trkpt lat="46.80561" lon="5.41107">
        <ele>200.5</ele>
        <time>2022-05-08T12:14:16Z</time>
      </trkpt>
      <trkpt lat="46.80564" lon="5.411">
        <ele>201.1</ele>
        <time>2022-05-08T12:14:23Z</time>
      </trkpt>
      <trkpt lat="46.80568" lon="5.41096">
        <ele>201.7</ele>
        <time>2022-05-08T12:14:28Z</time>
      </trkpt>
      <trkpt lat="46.80568" lon="5.41089">
        <ele>202.2</ele>
        <time>2022-05-08T12:14:36Z</time>
      </trkpt>
      <trkpt lat="46.80568" lon="5.41081">
        <ele>203.8</ele>
        <time>2022-05-08T12:15:17Z</time>
      </trkpt>
      <trkpt lat="46.80565" lon="5.41076">
        <ele>206.6</ele>
        <time>2022-05-08T12:15:41Z</time>
      </trkpt>
      <trkpt lat="46.8056" lon="5.41076">
        <ele>207.2</ele>
        <time>2022-05-08T12:15:47Z</time>
      </trkpt>
      <trkpt lat="46.80555" lon="5.41074">
        <ele>207.9</ele>
        <time>2022-05-08T12:15:58Z</time>
      </trkpt>
      <trkpt lat="46.8055" lon="5.41075">
        <ele>208.1</ele>
        <time>2022-05-08T12:16:06Z</time>
      </trkpt>
      <trkpt lat="46.80546" lon="5.41072">
        <ele>208.3</ele>
        <time>2022-05-08T12:16:19Z</time>
      </trkpt>
      <trkpt lat="46.80542" lon="5.41067">
        <ele>208.1</ele>
        <time>2022-05-08T12:16:24Z</time>
      </trkpt>
      <trkpt lat="46.80538" lon="5.41064">
        <ele>207.8</ele>
        <time>2022-05-08T12:16:28Z</time>
      </trkpt>
      <trkpt lat="46.80533" lon="5.41062">
        <ele>206.8</ele>
        <time>2022-05-08T12:16:34Z</time>
      </trkpt>
      <trkpt lat="46.80528" lon="5.41061">
        <ele>205.1</ele>
        <time>2022-05-08T12:16:39Z</time>
      </trkpt>
      <trkpt lat="46.80523" lon="5.41057">
        <ele>204.3</ele>
        <time>2022-05-08T12:16:44Z</time>
      </trkpt>
      <trkpt lat="46.80519" lon="5.41054">
        <ele>204.3</ele>
        <time>2022-05-08T12:16:48Z</time>
      </trkpt>
      <trkpt lat="46.80515" lon="5.4105">
        <ele>204.7</ele>
        <time>2022-05-08T12:16:52Z</time>
      </trkpt>
      <trkpt lat="46.80511" lon="5.41047">
        <ele>205.3</ele>
        <time>2022-05-08T12:16:56Z</time>
      </trkpt>
      <trkpt lat="46.80507" lon="5.41047">
        <ele>206.9</ele>
        <time>2022-05-08T12:17:04Z</time>
      </trkpt>
      <trkpt lat="46.80502" lon="5.41044">
        <ele>207.7</ele>
        <time>2022-05-08T12:17:11Z</time>
      </trkpt>
      <trkpt lat="46.80499" lon="5.4104">
        <ele>207.4</ele>
        <time>2022-05-08T12:17:17Z</time>
      </trkpt>
      <trkpt lat="46.80494" lon="5.41036">
        <ele>206.7</ele>
        <time>2022-05-08T12:17:23Z</time>
      </trkpt>
      <trkpt lat="46.80489" lon="5.41035">
        <ele>205.8</ele>
        <time>2022-05-08T12:17:28Z</time>
      </trkpt>
      <trkpt lat="46.80484" lon="5.41034">
        <ele>205.1</ele>
        <time>2022-05-08T12:17:33Z</time>
      </trkpt>
      <trkpt lat="46.8048" lon="5.4103">
        <ele>204.3</ele>
        <time>2022-05-08T12:17:38Z</time>
      </trkpt>
      <trkpt lat="46.80475" lon="5.41026">
        <ele>203.5</ele>
        <time>2022-05-08T12:17:43Z</time>
      </trkpt>
      <trkpt lat="46.80471" lon="5.41025">
        <ele>202.3</ele>
        <time>2022-05-08T12:17:47Z</time>
      </trkpt>
      <trkpt lat="46.80465" lon="5.41024">
        <ele>200.8</ele>
        <time>2022-05-08T12:17:52Z</time>
      </trkpt>
      <trkpt lat="46.8046" lon="5.41024">
        <ele>199.8</ele>
        <time>2022-05-08T12:17:57Z</time>
      </trkpt>
      <trkpt lat="46.80456" lon="5.41021">
        <ele>199.1</ele>
        <time>2022-05-08T12:18:01Z</time>
      </trkpt>
      <trkpt lat="46.80451" lon="5.41017">
        <ele>198.7</ele>
        <time>2022-05-08T12:18:04Z</time>
      </trkpt>
      <trkpt lat="46.80447" lon="5.41013">
        <ele>198.3</ele>
        <time>2022-05-08T12:18:08Z</time>
      </trkpt>
      <trkpt lat="46.80442" lon="5.4101">
        <ele>197.8</ele>
        <time>2022-05-08T12:18:13Z</time>
      </trkpt>
      <trkpt lat="46.80437" lon="5.41007">
        <ele>197.5</ele>
        <time>2022-05-08T12:18:18Z</time>
      </trkpt>
      <trkpt lat="46.80433" lon="5.41003">
        <ele>197.5</ele>
        <time>2022-05-08T12:18:23Z</time>
      </trkpt>
      <trkpt lat="46.80429" lon="5.40999">
        <ele>197.2</ele>
        <time>2022-05-08T12:18:27Z</time>
      </trkpt>
      <trkpt lat="46.80425" lon="5.40995">
        <ele>197.2</ele>
        <time>2022-05-08T12:18:31Z</time>
      </trkpt>
      <trkpt lat="46.80421" lon="5.40991">
        <ele>197.6</ele>
        <time>2022-05-08T12:18:35Z</time>
      </trkpt>
      <trkpt lat="46.80416" lon="5.40988">
        <ele>197.9</ele>
        <time>2022-05-08T12:18:39Z</time>
      </trkpt>
      <trkpt lat="46.80411" lon="5.40985">
        <ele>198.1</ele>
        <time>2022-05-08T12:18:43Z</time>
      </trkpt>
      <trkpt lat="46.80407" lon="5.40983">
        <ele>198.3</ele>
        <time>2022-05-08T12:18:46Z</time>
      </trkpt>
      <trkpt lat="46.80402" lon="5.4098">
        <ele>198.6</ele>
        <time>2022-05-08T12:18:49Z</time>
      </trkpt>
      <trkpt lat="46.80397" lon="5.40977">
        <ele>199.2</ele>
        <time>2022-05-08T12:18:53Z</time>
      </trkpt>
      <trkpt lat="46.80393" lon="5.40974">
        <ele>199.9</ele>
        <time>2022-05-08T12:18:58Z</time>
      </trkpt>
      <trkpt lat="46.80388" lon="5.4097">
        <ele>200.5</ele>
        <time>2022-05-08T12:19:04Z</time>
      </trkpt>
      <trkpt lat="46.80384" lon="5.40968">
        <ele>200.5</ele>
        <time>2022-05-08T12:19:09Z</time>
      </trkpt>
      <trkpt lat="46.8038" lon="5.40964">
        <ele>200.4</ele>
        <time>2022-05-08T12:19:13Z</time>
      </trkpt>
      <trkpt lat="46.80376" lon="5.40961">
        <ele>200.3</ele>
        <time>2022-05-08T12:19:17Z</time>
      </trkpt>
      <trkpt lat="46.80372" lon="5.40959">
        <ele>200.5</ele>
        <time>2022-05-08T12:19:21Z</time>
      </trkpt>
      <trkpt lat="46.80367" lon="5.40955">
        <ele>200.6</ele>
        <time>2022-05-08T12:19:25Z</time>
      </trkpt>
      <trkpt lat="46.80362" lon="5.40953">
        <ele>201.3</ele>
        <time>2022-05-08T12:19:31Z</time>
      </trkpt>
      <trkpt lat="46.80357" lon="5.40951">
        <ele>201.6</ele>
        <time>2022-05-08T12:19:37Z</time>
      </trkpt>
      <trkpt lat="46.80352" lon="5.40947">
        <ele>201.8</ele>
        <time>2022-05-08T12:19:42Z</time>
      </trkpt>
      <trkpt lat="46.80348" lon="5.40944">
        <ele>202.3</ele>
        <time>2022-05-08T12:19:46Z</time>
      </trkpt>
      <trkpt lat="46.80343" lon="5.40941">
        <ele>203.1</ele>
        <time>2022-05-08T12:19:51Z</time>
      </trkpt>
      <trkpt lat="46.80339" lon="5.40937">
        <ele>204</ele>
        <time>2022-05-08T12:19:56Z</time>
      </trkpt>
      <trkpt lat="46.80334" lon="5.40935">
        <ele>204.7</ele>
        <time>2022-05-08T12:20:00Z</time>
      </trkpt>
      <trkpt lat="46.80329" lon="5.40933">
        <ele>205.4</ele>
        <time>2022-05-08T12:20:05Z</time>
      </trkpt>
      <trkpt lat="46.80325" lon="5.40932">
        <ele>205.6</ele>
        <time>2022-05-08T12:20:10Z</time>
      </trkpt>
      <trkpt lat="46.8032" lon="5.40932">
        <ele>205.4</ele>
        <time>2022-05-08T12:20:15Z</time>
      </trkpt>
      <trkpt lat="46.80315" lon="5.40934">
        <ele>205.1</ele>
        <time>2022-05-08T12:20:21Z</time>
      </trkpt>
      <trkpt lat="46.80309" lon="5.40935">
        <ele>205.3</ele>
        <time>2022-05-08T12:20:41Z</time>
      </trkpt>
      <trkpt lat="46.80305" lon="5.40938">
        <ele>206.7</ele>
        <time>2022-05-08T12:20:48Z</time>
      </trkpt>
      <trkpt lat="46.80304" lon="5.40932">
        <ele>208.4</ele>
        <time>2022-05-08T12:21:17Z</time>
      </trkpt>
      <trkpt lat="46.80308" lon="5.40931">
        <ele>210.3</ele>
        <time>2022-05-08T12:21:49Z</time>
      </trkpt>
      <trkpt lat="46.80305" lon="5.40936">
        <ele>212.4</ele>
        <time>2022-05-08T12:22:03Z</time>
      </trkpt>
      <trkpt lat="46.8031" lon="5.40933">
        <ele>209</ele>
        <time>2022-05-08T12:23:31Z</time>
      </trkpt>
      <trkpt lat="46.80314" lon="5.40937">
        <ele>208.6</ele>
        <time>2022-05-08T12:23:37Z</time>
      </trkpt>
      <trkpt lat="46.80319" lon="5.40939">
        <ele>208.3</ele>
        <time>2022-05-08T12:23:43Z</time>
      </trkpt>
      <trkpt lat="46.80314" lon="5.4094">
        <ele>207.7</ele>
        <time>2022-05-08T12:23:56Z</time>
      </trkpt>
      <trkpt lat="46.80313" lon="5.40933">
        <ele>207.3</ele>
        <time>2022-05-08T12:24:03Z</time>
      </trkpt>
      <trkpt lat="46.80313" lon="5.40926">
        <ele>206.6</ele>
        <time>2022-05-08T12:24:13Z</time>
      </trkpt>
      <trkpt lat="46.80314" lon="5.40919">
        <ele>205.5</ele>
        <time>2022-05-08T12:24:23Z</time>
      </trkpt>
      <trkpt lat="46.80309" lon="5.40918">
        <ele>205.9</ele>
        <time>2022-05-08T12:24:41Z</time>
      </trkpt>
      <trkpt lat="46.80312" lon="5.40927">
        <ele>208.1</ele>
        <time>2022-05-08T12:26:57Z</time>
      </trkpt>
      <trkpt lat="46.80307" lon="5.40926">
        <ele>207.1</ele>
        <time>2022-05-08T12:27:08Z</time>
      </trkpt>
      <trkpt lat="46.80303" lon="5.4092">
        <ele>205.9</ele>
        <time>2022-05-08T12:27:14Z</time>
      </trkpt>
      <trkpt lat="46.80298" lon="5.40918">
        <ele>205.4</ele>
        <time>2022-05-08T12:27:18Z</time>
      </trkpt>
      <trkpt lat="46.80294" lon="5.40915">
        <ele>205.8</ele>
        <time>2022-05-08T12:27:39Z</time>
      </trkpt>
      <trkpt lat="46.80289" lon="5.40912">
        <ele>205.8</ele>
        <time>2022-05-08T12:27:44Z</time>
      </trkpt>
      <trkpt lat="46.80285" lon="5.40909">
        <ele>205.5</ele>
        <time>2022-05-08T12:27:49Z</time>
      </trkpt>
      <trkpt lat="46.80281" lon="5.40906">
        <ele>205.7</ele>
        <time>2022-05-08T12:27:55Z</time>
      </trkpt>
      <trkpt lat="46.80275" lon="5.40904">
        <ele>206</ele>
        <time>2022-05-08T12:28:02Z</time>
      </trkpt>
      <trkpt lat="46.8027" lon="5.40901">
        <ele>206.2</ele>
        <time>2022-05-08T12:28:06Z</time>
      </trkpt>
      <trkpt lat="46.80265" lon="5.409">
        <ele>206.5</ele>
        <time>2022-05-08T12:28:10Z</time>
      </trkpt>
      <trkpt lat="46.8026" lon="5.40898">
        <ele>206.8</ele>
        <time>2022-05-08T12:28:14Z</time>
      </trkpt>
      <trkpt lat="46.80255" lon="5.40898">
        <ele>207.1</ele>
        <time>2022-05-08T12:28:20Z</time>
      </trkpt>
      <trkpt lat="46.8025" lon="5.409">
        <ele>207.4</ele>
        <time>2022-05-08T12:28:26Z</time>
      </trkpt>
      <trkpt lat="46.80245" lon="5.40899">
        <ele>207.3</ele>
        <time>2022-05-08T12:28:31Z</time>
      </trkpt>
      <trkpt lat="46.8024" lon="5.40899">
        <ele>207</ele>
        <time>2022-05-08T12:28:35Z</time>
      </trkpt>
      <trkpt lat="46.80236" lon="5.40898">
        <ele>206.7</ele>
        <time>2022-05-08T12:28:39Z</time>
      </trkpt>
      <trkpt lat="46.8023" lon="5.40898">
        <ele>206.1</ele>
        <time>2022-05-08T12:28:44Z</time>
      </trkpt>
      <trkpt lat="46.80225" lon="5.40899">
        <ele>205.5</ele>
        <time>2022-05-08T12:28:49Z</time>
      </trkpt>
      <trkpt lat="46.8022" lon="5.40899">
        <ele>204.8</ele>
        <time>2022-05-08T12:28:54Z</time>
      </trkpt>
      <trkpt lat="46.80214" lon="5.40898">
        <ele>204.6</ele>
        <time>2022-05-08T12:28:58Z</time>
      </trkpt>
      <trkpt lat="46.80209" lon="5.40898">
        <ele>204.4</ele>
        <time>2022-05-08T12:29:03Z</time>
      </trkpt>
      <trkpt lat="46.80204" lon="5.409">
        <ele>204.3</ele>
        <time>2022-05-08T12:29:08Z</time>
      </trkpt>
      <trkpt lat="46.80199" lon="5.40901">
        <ele>204.1</ele>
        <time>2022-05-08T12:29:12Z</time>
      </trkpt>
      <trkpt lat="46.80194" lon="5.40903">
        <ele>203.5</ele>
        <time>2022-05-08T12:29:18Z</time>
      </trkpt>
      <trkpt lat="46.80189" lon="5.40903">
        <ele>202.1</ele>
        <time>2022-05-08T12:29:24Z</time>
      </trkpt>
      <trkpt lat="46.80185" lon="5.40903">
        <ele>199.5</ele>
        <time>2022-05-08T12:29:30Z</time>
      </trkpt>
      <trkpt lat="46.8018" lon="5.40902">
        <ele>195.6</ele>
        <time>2022-05-08T12:29:37Z</time>
      </trkpt>
      <trkpt lat="46.80175" lon="5.40902">
        <ele>193.5</ele>
        <time>2022-05-08T12:29:42Z</time>
      </trkpt>
      <trkpt lat="46.80169" lon="5.40904">
        <ele>192.8</ele>
        <time>2022-05-08T12:29:46Z</time>
      </trkpt>
      <trkpt lat="46.80164" lon="5.40905">
        <ele>193</ele>
        <time>2022-05-08T12:29:50Z</time>
      </trkpt>
      <trkpt lat="46.80159" lon="5.40907">
        <ele>193.6</ele>
        <time>2022-05-08T12:29:54Z</time>
      </trkpt>
      <trkpt lat="46.80154" lon="5.40908">
        <ele>194.3</ele>
        <time>2022-05-08T12:29:58Z</time>
      </trkpt>
      <trkpt lat="46.80149" lon="5.40907">
        <ele>195.2</ele>
        <time>2022-05-08T12:30:02Z</time>
      </trkpt>
      <trkpt lat="46.80143" lon="5.40907">
        <ele>195.9</ele>
        <time>2022-05-08T12:30:06Z</time>
      </trkpt>
      <trkpt lat="46.80138" lon="5.40907">
        <ele>196.7</ele>
        <time>2022-05-08T12:30:09Z</time>
      </trkpt>
      <trkpt lat="46.80133" lon="5.40908">
        <ele>197.7</ele>
        <time>2022-05-08T12:30:12Z</time>
      </trkpt>
      <trkpt lat="46.80128" lon="5.4091">
        <ele>198.8</ele>
        <time>2022-05-08T12:30:15Z</time>
      </trkpt>
      <trkpt lat="46.80123" lon="5.40911">
        <ele>200.2</ele>
        <time>2022-05-08T12:30:19Z</time>
      </trkpt>
      <trkpt lat="46.80118" lon="5.40912">
        <ele>202.1</ele>
        <time>2022-05-08T12:30:24Z</time>
      </trkpt>
      <trkpt lat="46.80112" lon="5.40911">
        <ele>204.9</ele>
        <time>2022-05-08T12:30:32Z</time>
      </trkpt>
      <trkpt lat="46.80107" lon="5.40911">
        <ele>206.2</ele>
        <time>2022-05-08T12:30:37Z</time>
      </trkpt>
      <trkpt lat="46.80103" lon="5.40914">
        <ele>209.4</ele>
        <time>2022-05-08T12:30:50Z</time>
      </trkpt>
      <trkpt lat="46.80098" lon="5.40916">
        <ele>210.5</ele>
        <time>2022-05-08T12:30:56Z</time>
      </trkpt>
      <trkpt lat="46.80093" lon="5.40916">
        <ele>210.7</ele>
        <time>2022-05-08T12:31:01Z</time>
      </trkpt>
      <trkpt lat="46.80089" lon="5.40916">
        <ele>210.7</ele>
        <time>2022-05-08T12:31:06Z</time>
      </trkpt>
      <trkpt lat="46.80084" lon="5.40913">
        <ele>211.2</ele>
        <time>2022-05-08T12:31:13Z</time>
      </trkpt>
      <trkpt lat="46.80079" lon="5.40912">
        <ele>211.2</ele>
        <time>2022-05-08T12:31:17Z</time>
      </trkpt>
      <trkpt lat="46.80074" lon="5.40913">
        <ele>211.3</ele>
        <time>2022-05-08T12:31:23Z</time>
      </trkpt>
      <trkpt lat="46.8007" lon="5.40915">
        <ele>211.5</ele>
        <time>2022-05-08T12:31:27Z</time>
      </trkpt>
      <trkpt lat="46.80065" lon="5.40916">
        <ele>212.2</ele>
        <time>2022-05-08T12:31:32Z</time>
      </trkpt>
      <trkpt lat="46.8006" lon="5.40918">
        <ele>212.7</ele>
        <time>2022-05-08T12:31:36Z</time>
      </trkpt>
      <trkpt lat="46.80054" lon="5.40919">
        <ele>212.7</ele>
        <time>2022-05-08T12:31:40Z</time>
      </trkpt>
      <trkpt lat="46.80049" lon="5.4092">
        <ele>212</ele>
        <time>2022-05-08T12:31:45Z</time>
      </trkpt>
      <trkpt lat="46.80044" lon="5.40921">
        <ele>211.2</ele>
        <time>2022-05-08T12:31:51Z</time>
      </trkpt>
      <trkpt lat="46.80039" lon="5.4092">
        <ele>211.2</ele>
        <time>2022-05-08T12:31:55Z</time>
      </trkpt>
      <trkpt lat="46.80034" lon="5.4092">
        <ele>211.5</ele>
        <time>2022-05-08T12:31:59Z</time>
      </trkpt>
      <trkpt lat="46.80029" lon="5.40922">
        <ele>211.4</ele>
        <time>2022-05-08T12:32:03Z</time>
      </trkpt>
      <trkpt lat="46.80024" lon="5.40919">
        <ele>210.5</ele>
        <time>2022-05-08T12:32:08Z</time>
      </trkpt>
      <trkpt lat="46.80019" lon="5.40916">
        <ele>209.3</ele>
        <time>2022-05-08T12:32:13Z</time>
      </trkpt>
      <trkpt lat="46.80014" lon="5.40914">
        <ele>208.8</ele>
        <time>2022-05-08T12:32:17Z</time>
      </trkpt>
      <trkpt lat="46.80008" lon="5.40912">
        <ele>208.3</ele>
        <time>2022-05-08T12:32:22Z</time>
      </trkpt>
      <trkpt lat="46.80003" lon="5.40912">
        <ele>207.7</ele>
        <time>2022-05-08T12:32:26Z</time>
      </trkpt>
      <trkpt lat="46.79998" lon="5.4091">
        <ele>207.2</ele>
        <time>2022-05-08T12:32:30Z</time>
      </trkpt>
      <trkpt lat="46.79993" lon="5.40906">
        <ele>207.1</ele>
        <time>2022-05-08T12:32:35Z</time>
      </trkpt>
      <trkpt lat="46.79989" lon="5.40902">
        <ele>206.9</ele>
        <time>2022-05-08T12:32:40Z</time>
      </trkpt>
      <trkpt lat="46.79984" lon="5.40898">
        <ele>207.5</ele>
        <time>2022-05-08T12:32:45Z</time>
      </trkpt>
      <trkpt lat="46.79979" lon="5.40898">
        <ele>209</ele>
        <time>2022-05-08T12:32:51Z</time>
      </trkpt>
      <trkpt lat="46.79975" lon="5.40898">
        <ele>210.2</ele>
        <time>2022-05-08T12:32:56Z</time>
      </trkpt>
      <trkpt lat="46.79971" lon="5.40903">
        <ele>211.4</ele>
        <time>2022-05-08T12:33:01Z</time>
      </trkpt>
      <trkpt lat="46.79967" lon="5.40908">
        <ele>211.7</ele>
        <time>2022-05-08T12:33:06Z</time>
      </trkpt>
      <trkpt lat="46.79963" lon="5.40913">
        <ele>211.9</ele>
        <time>2022-05-08T12:33:11Z</time>
      </trkpt>
      <trkpt lat="46.7996" lon="5.40918">
        <ele>211.7</ele>
        <time>2022-05-08T12:33:16Z</time>
      </trkpt>
      <trkpt lat="46.79958" lon="5.40924">
        <ele>211.5</ele>
        <time>2022-05-08T12:33:23Z</time>
      </trkpt>
      <trkpt lat="46.79955" lon="5.4093">
        <ele>210.7</ele>
        <time>2022-05-08T12:33:29Z</time>
      </trkpt>
      <trkpt lat="46.79952" lon="5.40936">
        <ele>209.3</ele>
        <time>2022-05-08T12:33:34Z</time>
      </trkpt>
      <trkpt lat="46.79949" lon="5.40944">
        <ele>208.8</ele>
        <time>2022-05-08T12:33:40Z</time>
      </trkpt>
      <trkpt lat="46.79946" lon="5.4095">
        <ele>207.9</ele>
        <time>2022-05-08T12:33:45Z</time>
      </trkpt>
      <trkpt lat="46.79943" lon="5.40955">
        <ele>207.3</ele>
        <time>2022-05-08T12:33:49Z</time>
      </trkpt>
      <trkpt lat="46.79941" lon="5.40962">
        <ele>206.7</ele>
        <time>2022-05-08T12:33:54Z</time>
      </trkpt>
      <trkpt lat="46.79938" lon="5.40968">
        <ele>206.9</ele>
        <time>2022-05-08T12:33:59Z</time>
      </trkpt>
      <trkpt lat="46.79936" lon="5.40974">
        <ele>207</ele>
        <time>2022-05-08T12:34:02Z</time>
      </trkpt>
      <trkpt lat="46.79934" lon="5.40982">
        <ele>207.1</ele>
        <time>2022-05-08T12:34:05Z</time>
      </trkpt>
      <trkpt lat="46.79932" lon="5.40987">
        <ele>207.1</ele>
        <time>2022-05-08T12:34:08Z</time>
      </trkpt>
      <trkpt lat="46.79929" lon="5.40994">
        <ele>207.4</ele>
        <time>2022-05-08T12:34:12Z</time>
      </trkpt>
      <trkpt lat="46.79927" lon="5.41001">
        <ele>207.7</ele>
        <time>2022-05-08T12:34:16Z</time>
      </trkpt>
      <trkpt lat="46.79924" lon="5.41007">
        <ele>208</ele>
        <time>2022-05-08T12:34:20Z</time>
      </trkpt>
      <trkpt lat="46.79922" lon="5.41014">
        <ele>207.3</ele>
        <time>2022-05-08T12:34:25Z</time>
      </trkpt>
      <trkpt lat="46.7992" lon="5.41021">
        <ele>206.5</ele>
        <time>2022-05-08T12:34:29Z</time>
      </trkpt>
      <trkpt lat="46.79919" lon="5.41028">
        <ele>205.6</ele>
        <time>2022-05-08T12:34:33Z</time>
      </trkpt>
      <trkpt lat="46.79917" lon="5.41035">
        <ele>205</ele>
        <time>2022-05-08T12:34:37Z</time>
      </trkpt>
      <trkpt lat="46.79914" lon="5.41042">
        <ele>204.9</ele>
        <time>2022-05-08T12:34:41Z</time>
      </trkpt>
      <trkpt lat="46.79913" lon="5.41049">
        <ele>205.1</ele>
        <time>2022-05-08T12:34:45Z</time>
      </trkpt>
      <trkpt lat="46.79911" lon="5.41057">
        <ele>204.8</ele>
        <time>2022-05-08T12:34:50Z</time>
      </trkpt>
      <trkpt lat="46.79909" lon="5.41063">
        <ele>204.4</ele>
        <time>2022-05-08T12:34:54Z</time>
      </trkpt>
      <trkpt lat="46.79907" lon="5.4107">
        <ele>203.8</ele>
        <time>2022-05-08T12:34:59Z</time>
      </trkpt>
      <trkpt lat="46.79906" lon="5.41077">
        <ele>203.7</ele>
        <time>2022-05-08T12:35:03Z</time>
      </trkpt>
      <trkpt lat="46.79904" lon="5.41083">
        <ele>203.9</ele>
        <time>2022-05-08T12:35:06Z</time>
      </trkpt>
      <trkpt lat="46.79902" lon="5.41092">
        <ele>204.6</ele>
        <time>2022-05-08T12:35:10Z</time>
      </trkpt>
      <trkpt lat="46.79901" lon="5.41099">
        <ele>205.6</ele>
        <time>2022-05-08T12:35:14Z</time>
      </trkpt>
      <trkpt lat="46.79899" lon="5.41106">
        <ele>206.6</ele>
        <time>2022-05-08T12:35:19Z</time>
      </trkpt>
      <trkpt lat="46.79898" lon="5.41113">
        <ele>206.8</ele>
        <time>2022-05-08T12:35:23Z</time>
      </trkpt>
      <trkpt lat="46.79898" lon="5.4112">
        <ele>206.8</ele>
        <time>2022-05-08T12:35:27Z</time>
      </trkpt>
      <trkpt lat="46.79896" lon="5.41126">
        <ele>206.7</ele>
        <time>2022-05-08T12:35:31Z</time>
      </trkpt>
      <trkpt lat="46.79894" lon="5.41132">
        <ele>205.6</ele>
        <time>2022-05-08T12:35:36Z</time>
      </trkpt>
      <trkpt lat="46.79891" lon="5.4114">
        <ele>203.8</ele>
        <time>2022-05-08T12:35:41Z</time>
      </trkpt>
      <trkpt lat="46.79889" lon="5.41147">
        <ele>202.2</ele>
        <time>2022-05-08T12:35:46Z</time>
      </trkpt>
      <trkpt lat="46.79888" lon="5.41154">
        <ele>201.6</ele>
        <time>2022-05-08T12:35:50Z</time>
      </trkpt>
      <trkpt lat="46.79885" lon="5.41161">
        <ele>201.6</ele>
        <time>2022-05-08T12:35:54Z</time>
      </trkpt>
      <trkpt lat="46.79883" lon="5.41168">
        <ele>201.9</ele>
        <time>2022-05-08T12:35:58Z</time>
      </trkpt>
      <trkpt lat="46.79881" lon="5.41174">
        <ele>202.5</ele>
        <time>2022-05-08T12:36:02Z</time>
      </trkpt>
      <trkpt lat="46.79879" lon="5.4118">
        <ele>202.8</ele>
        <time>2022-05-08T12:36:06Z</time>
      </trkpt>
      <trkpt lat="46.79878" lon="5.41187">
        <ele>203.3</ele>
        <time>2022-05-08T12:36:11Z</time>
      </trkpt>
      <trkpt lat="46.79878" lon="5.41194">
        <ele>203.8</ele>
        <time>2022-05-08T12:36:15Z</time>
      </trkpt>
      <trkpt lat="46.79875" lon="5.412">
        <ele>204.1</ele>
        <time>2022-05-08T12:36:19Z</time>
      </trkpt>
      <trkpt lat="46.79873" lon="5.41207">
        <ele>204.2</ele>
        <time>2022-05-08T12:36:23Z</time>
      </trkpt>
      <trkpt lat="46.79871" lon="5.41215">
        <ele>204.1</ele>
        <time>2022-05-08T12:36:27Z</time>
      </trkpt>
      <trkpt lat="46.79868" lon="5.41223">
        <ele>203.7</ele>
        <time>2022-05-08T12:36:31Z</time>
      </trkpt>
      <trkpt lat="46.79865" lon="5.41228">
        <ele>203.5</ele>
        <time>2022-05-08T12:36:34Z</time>
      </trkpt>
      <trkpt lat="46.79861" lon="5.41233">
        <ele>203.2</ele>
        <time>2022-05-08T12:36:38Z</time>
      </trkpt>
      <trkpt lat="46.79857" lon="5.41238">
        <ele>202.9</ele>
        <time>2022-05-08T12:36:42Z</time>
      </trkpt>
      <trkpt lat="46.79853" lon="5.41243">
        <ele>202.2</ele>
        <time>2022-05-08T12:36:47Z</time>
      </trkpt>
      <trkpt lat="46.79849" lon="5.41248">
        <ele>201.6</ele>
        <time>2022-05-08T12:36:51Z</time>
      </trkpt>
      <trkpt lat="46.79845" lon="5.41254">
        <ele>201.4</ele>
        <time>2022-05-08T12:36:57Z</time>
      </trkpt>
      <trkpt lat="46.79841" lon="5.41259">
        <ele>201.5</ele>
        <time>2022-05-08T12:37:03Z</time>
      </trkpt>
      <trkpt lat="46.79837" lon="5.41264">
        <ele>201.6</ele>
        <time>2022-05-08T12:37:07Z</time>
      </trkpt>
      <trkpt lat="46.79834" lon="5.4127">
        <ele>201.7</ele>
        <time>2022-05-08T12:37:11Z</time>
      </trkpt>
      <trkpt lat="46.79829" lon="5.41276">
        <ele>201.5</ele>
        <time>2022-05-08T12:37:15Z</time>
      </trkpt>
      <trkpt lat="46.79826" lon="5.41282">
        <ele>201.1</ele>
        <time>2022-05-08T12:37:19Z</time>
      </trkpt>
      <trkpt lat="46.79822" lon="5.41288">
        <ele>200.2</ele>
        <time>2022-05-08T12:37:24Z</time>
      </trkpt>
      <trkpt lat="46.7982" lon="5.41295">
        <ele>199.7</ele>
        <time>2022-05-08T12:37:29Z</time>
      </trkpt>
      <trkpt lat="46.79817" lon="5.41301">
        <ele>199.7</ele>
        <time>2022-05-08T12:37:33Z</time>
      </trkpt>
      <trkpt lat="46.79815" lon="5.41308">
        <ele>200.3</ele>
        <time>2022-05-08T12:37:37Z</time>
      </trkpt>
      <trkpt lat="46.79813" lon="5.41315">
        <ele>201.2</ele>
        <time>2022-05-08T12:37:41Z</time>
      </trkpt>
      <trkpt lat="46.7981" lon="5.41322">
        <ele>202.3</ele>
        <time>2022-05-08T12:37:45Z</time>
      </trkpt>
      <trkpt lat="46.79809" lon="5.41329">
        <ele>203.1</ele>
        <time>2022-05-08T12:37:49Z</time>
      </trkpt>
      <trkpt lat="46.79808" lon="5.41336">
        <ele>203.7</ele>
        <time>2022-05-08T12:37:54Z</time>
      </trkpt>
      <trkpt lat="46.79806" lon="5.41344">
        <ele>204.1</ele>
        <time>2022-05-08T12:37:59Z</time>
      </trkpt>
      <trkpt lat="46.79805" lon="5.41351">
        <ele>204.2</ele>
        <time>2022-05-08T12:38:03Z</time>
      </trkpt>
      <trkpt lat="46.79804" lon="5.41358">
        <ele>204.2</ele>
        <time>2022-05-08T12:38:07Z</time>
      </trkpt>
      <trkpt lat="46.79802" lon="5.41365">
        <ele>204.3</ele>
        <time>2022-05-08T12:38:11Z</time>
      </trkpt>
      <trkpt lat="46.798" lon="5.41371">
        <ele>204.4</ele>
        <time>2022-05-08T12:38:15Z</time>
      </trkpt>
      <trkpt lat="46.79798" lon="5.41378">
        <ele>204.5</ele>
        <time>2022-05-08T12:38:19Z</time>
      </trkpt>
      <trkpt lat="46.79797" lon="5.41385">
        <ele>204.7</ele>
        <time>2022-05-08T12:38:23Z</time>
      </trkpt>
      <trkpt lat="46.79795" lon="5.41393">
        <ele>204.9</ele>
        <time>2022-05-08T12:38:28Z</time>
      </trkpt>
      <trkpt lat="46.79793" lon="5.41399">
        <ele>205.2</ele>
        <time>2022-05-08T12:38:32Z</time>
      </trkpt>
      <trkpt lat="46.79792" lon="5.41406">
        <ele>206.3</ele>
        <time>2022-05-08T12:38:37Z</time>
      </trkpt>
      <trkpt lat="46.7979" lon="5.41413">
        <ele>207.2</ele>
        <time>2022-05-08T12:38:43Z</time>
      </trkpt>
      <trkpt lat="46.79788" lon="5.41419">
        <ele>206.8</ele>
        <time>2022-05-08T12:38:46Z</time>
      </trkpt>
      <trkpt lat="46.79786" lon="5.41425">
        <ele>206</ele>
        <time>2022-05-08T12:38:49Z</time>
      </trkpt>
      <trkpt lat="46.79783" lon="5.41432">
        <ele>206.1</ele>
        <time>2022-05-08T12:38:52Z</time>
      </trkpt>
      <trkpt lat="46.79781" lon="5.41437">
        <ele>206.4</ele>
        <time>2022-05-08T12:38:55Z</time>
      </trkpt>
      <trkpt lat="46.79778" lon="5.41444">
        <ele>206.6</ele>
        <time>2022-05-08T12:39:00Z</time>
      </trkpt>
      <trkpt lat="46.79774" lon="5.41449">
        <ele>206.6</ele>
        <time>2022-05-08T12:39:05Z</time>
      </trkpt>
      <trkpt lat="46.79769" lon="5.41452">
        <ele>206.4</ele>
        <time>2022-05-08T12:39:09Z</time>
      </trkpt>
      <trkpt lat="46.79764" lon="5.41453">
        <ele>206.1</ele>
        <time>2022-05-08T12:39:13Z</time>
      </trkpt>
      <trkpt lat="46.79759" lon="5.41454">
        <ele>205.6</ele>
        <time>2022-05-08T12:39:17Z</time>
      </trkpt>
      <trkpt lat="46.79754" lon="5.41455">
        <ele>204.7</ele>
        <time>2022-05-08T12:39:22Z</time>
      </trkpt>
      <trkpt lat="46.7975" lon="5.41456">
        <ele>204.2</ele>
        <time>2022-05-08T12:39:26Z</time>
      </trkpt>
      <trkpt lat="46.79744" lon="5.41456">
        <ele>203.9</ele>
        <time>2022-05-08T12:39:30Z</time>
      </trkpt>
      <trkpt lat="46.79739" lon="5.41456">
        <ele>203.9</ele>
        <time>2022-05-08T12:39:34Z</time>
      </trkpt>
      <trkpt lat="46.79734" lon="5.41457">
        <ele>204.1</ele>
        <time>2022-05-08T12:39:38Z</time>
      </trkpt>
      <trkpt lat="46.79729" lon="5.41459">
        <ele>204.3</ele>
        <time>2022-05-08T12:39:42Z</time>
      </trkpt>
      <trkpt lat="46.79724" lon="5.41459">
        <ele>204.2</ele>
        <time>2022-05-08T12:39:46Z</time>
      </trkpt>
      <trkpt lat="46.79719" lon="5.4146">
        <ele>203.9</ele>
        <time>2022-05-08T12:39:50Z</time>
      </trkpt>
      <trkpt lat="46.79714" lon="5.4146">
        <ele>203.7</ele>
        <time>2022-05-08T12:39:55Z</time>
      </trkpt>
      <trkpt lat="46.79709" lon="5.4146">
        <ele>204.1</ele>
        <time>2022-05-08T12:40:00Z</time>
      </trkpt>
      <trkpt lat="46.79704" lon="5.4146">
        <ele>204.2</ele>
        <time>2022-05-08T12:40:05Z</time>
      </trkpt>
      <trkpt lat="46.79699" lon="5.41459">
        <ele>203.9</ele>
        <time>2022-05-08T12:40:09Z</time>
      </trkpt>
      <trkpt lat="46.79694" lon="5.4146">
        <ele>203.9</ele>
        <time>2022-05-08T12:40:14Z</time>
      </trkpt>
      <trkpt lat="46.79689" lon="5.4146">
        <ele>204.4</ele>
        <time>2022-05-08T12:40:18Z</time>
      </trkpt>
      <trkpt lat="46.79684" lon="5.41458">
        <ele>204.9</ele>
        <time>2022-05-08T12:40:22Z</time>
      </trkpt>
      <trkpt lat="46.79679" lon="5.41456">
        <ele>204.9</ele>
        <time>2022-05-08T12:40:26Z</time>
      </trkpt>
      <trkpt lat="46.79673" lon="5.41453">
        <ele>205.5</ele>
        <time>2022-05-08T12:40:30Z</time>
      </trkpt>
      <trkpt lat="46.79668" lon="5.41451">
        <ele>206.3</ele>
        <time>2022-05-08T12:40:34Z</time>
      </trkpt>
      <trkpt lat="46.79663" lon="5.41451">
        <ele>206.9</ele>
        <time>2022-05-08T12:40:38Z</time>
      </trkpt>
      <trkpt lat="46.79658" lon="5.4145">
        <ele>207.7</ele>
        <time>2022-05-08T12:40:43Z</time>
      </trkpt>
      <trkpt lat="46.79653" lon="5.41448">
        <ele>207.9</ele>
        <time>2022-05-08T12:40:48Z</time>
      </trkpt>
      <trkpt lat="46.79648" lon="5.41446">
        <ele>207.9</ele>
        <time>2022-05-08T12:40:52Z</time>
      </trkpt>
      <trkpt lat="46.79644" lon="5.41445">
        <ele>207.8</ele>
        <time>2022-05-08T12:40:57Z</time>
      </trkpt>
      <trkpt lat="46.79639" lon="5.41442">
        <ele>207.6</ele>
        <time>2022-05-08T12:41:02Z</time>
      </trkpt>
      <trkpt lat="46.79635" lon="5.4144">
        <ele>207.5</ele>
        <time>2022-05-08T12:41:07Z</time>
      </trkpt>
      <trkpt lat="46.7963" lon="5.41438">
        <ele>207.2</ele>
        <time>2022-05-08T12:41:12Z</time>
      </trkpt>
      <trkpt lat="46.79625" lon="5.41436">
        <ele>207.3</ele>
        <time>2022-05-08T12:41:17Z</time>
      </trkpt>
      <trkpt lat="46.79621" lon="5.41434">
        <ele>206.6</ele>
        <time>2022-05-08T12:41:22Z</time>
      </trkpt>
      <trkpt lat="46.79616" lon="5.41431">
        <ele>205.9</ele>
        <time>2022-05-08T12:41:26Z</time>
      </trkpt>
      <trkpt lat="46.79611" lon="5.4143">
        <ele>205.1</ele>
        <time>2022-05-08T12:41:31Z</time>
      </trkpt>
      <trkpt lat="46.79607" lon="5.4143">
        <ele>205</ele>
        <time>2022-05-08T12:41:35Z</time>
      </trkpt>
      <trkpt lat="46.79602" lon="5.41429">
        <ele>205.4</ele>
        <time>2022-05-08T12:41:39Z</time>
      </trkpt>
      <trkpt lat="46.79596" lon="5.41428">
        <ele>205.7</ele>
        <time>2022-05-08T12:41:44Z</time>
      </trkpt>
      <trkpt lat="46.79591" lon="5.41428">
        <ele>206.5</ele>
        <time>2022-05-08T12:41:48Z</time>
      </trkpt>
      <trkpt lat="46.79586" lon="5.41427">
        <ele>207.3</ele>
        <time>2022-05-08T12:41:53Z</time>
      </trkpt>
      <trkpt lat="46.79582" lon="5.41427">
        <ele>208.1</ele>
        <time>2022-05-08T12:41:58Z</time>
      </trkpt>
      <trkpt lat="46.79577" lon="5.41425">
        <ele>208.5</ele>
        <time>2022-05-08T12:42:03Z</time>
      </trkpt>
      <trkpt lat="46.79572" lon="5.41423">
        <ele>209</ele>
        <time>2022-05-08T12:42:07Z</time>
      </trkpt>
      <trkpt lat="46.79567" lon="5.41422">
        <ele>209.7</ele>
        <time>2022-05-08T12:42:12Z</time>
      </trkpt>
      <trkpt lat="46.79563" lon="5.41421">
        <ele>210.6</ele>
        <time>2022-05-08T12:42:17Z</time>
      </trkpt>
      <trkpt lat="46.79558" lon="5.41422">
        <ele>211</ele>
        <time>2022-05-08T12:42:21Z</time>
      </trkpt>
      <trkpt lat="46.79553" lon="5.41425">
        <ele>211.4</ele>
        <time>2022-05-08T12:42:26Z</time>
      </trkpt>
      <trkpt lat="46.79548" lon="5.41427">
        <ele>211.3</ele>
        <time>2022-05-08T12:42:30Z</time>
      </trkpt>
      <trkpt lat="46.79544" lon="5.41429">
        <ele>211.1</ele>
        <time>2022-05-08T12:42:34Z</time>
      </trkpt>
      <trkpt lat="46.79539" lon="5.41431">
        <ele>211.1</ele>
        <time>2022-05-08T12:42:39Z</time>
      </trkpt>
      <trkpt lat="46.79535" lon="5.41434">
        <ele>210.8</ele>
        <time>2022-05-08T12:42:45Z</time>
      </trkpt>
      <trkpt lat="46.79531" lon="5.41438">
        <ele>209.7</ele>
        <time>2022-05-08T12:42:53Z</time>
      </trkpt>
      <trkpt lat="46.79531" lon="5.41445">
        <ele>210.4</ele>
        <time>2022-05-08T12:43:18Z</time>
      </trkpt>
      <trkpt lat="46.7953" lon="5.41452">
        <ele>210.9</ele>
        <time>2022-05-08T12:43:23Z</time>
      </trkpt>
      <trkpt lat="46.79529" lon="5.41458">
        <ele>211.1</ele>
        <time>2022-05-08T12:43:27Z</time>
      </trkpt>
      <trkpt lat="46.79528" lon="5.41466">
        <ele>211.3</ele>
        <time>2022-05-08T12:43:32Z</time>
      </trkpt>
      <trkpt lat="46.79527" lon="5.41474">
        <ele>211.7</ele>
        <time>2022-05-08T12:43:36Z</time>
      </trkpt>
      <trkpt lat="46.79526" lon="5.4148">
        <ele>211.8</ele>
        <time>2022-05-08T12:43:39Z</time>
      </trkpt>
      <trkpt lat="46.79524" lon="5.41487">
        <ele>212.1</ele>
        <time>2022-05-08T12:43:43Z</time>
      </trkpt>
      <trkpt lat="46.79523" lon="5.41494">
        <ele>212</ele>
        <time>2022-05-08T12:43:48Z</time>
      </trkpt>
      <trkpt lat="46.79522" lon="5.41502">
        <ele>211.7</ele>
        <time>2022-05-08T12:43:54Z</time>
      </trkpt>
      <trkpt lat="46.79521" lon="5.41509">
        <ele>212</ele>
        <time>2022-05-08T12:44:00Z</time>
      </trkpt>
      <trkpt lat="46.79521" lon="5.41516">
        <ele>212.6</ele>
        <time>2022-05-08T12:44:05Z</time>
      </trkpt>
      <trkpt lat="46.79519" lon="5.41522">
        <ele>212.6</ele>
        <time>2022-05-08T12:44:11Z</time>
      </trkpt>
      <trkpt lat="46.79517" lon="5.41529">
        <ele>211.6</ele>
        <time>2022-05-08T12:44:17Z</time>
      </trkpt>
      <trkpt lat="46.79516" lon="5.41536">
        <ele>210.3</ele>
        <time>2022-05-08T12:44:22Z</time>
      </trkpt>
      <trkpt lat="46.79515" lon="5.41543">
        <ele>209.6</ele>
        <time>2022-05-08T12:44:27Z</time>
      </trkpt>
      <trkpt lat="46.79514" lon="5.41551">
        <ele>209.1</ele>
        <time>2022-05-08T12:44:32Z</time>
      </trkpt>
      <trkpt lat="46.79514" lon="5.41558">
        <ele>208.4</ele>
        <time>2022-05-08T12:44:36Z</time>
      </trkpt>
      <trkpt lat="46.79514" lon="5.41566">
        <ele>207.3</ele>
        <time>2022-05-08T12:44:41Z</time>
      </trkpt>
      <trkpt lat="46.79512" lon="5.41573">
        <ele>206.5</ele>
        <time>2022-05-08T12:44:45Z</time>
      </trkpt>
      <trkpt lat="46.79512" lon="5.41581">
        <ele>206</ele>
        <time>2022-05-08T12:44:50Z</time>
      </trkpt>
      <trkpt lat="46.79514" lon="5.41588">
        <ele>206</ele>
        <time>2022-05-08T12:44:55Z</time>
      </trkpt>
      <trkpt lat="46.79516" lon="5.41594">
        <ele>205.9</ele>
        <time>2022-05-08T12:44:59Z</time>
      </trkpt>
      <trkpt lat="46.79519" lon="5.41601">
        <ele>206.3</ele>
        <time>2022-05-08T12:45:03Z</time>
      </trkpt>
      <trkpt lat="46.7952" lon="5.41609">
        <ele>207.8</ele>
        <time>2022-05-08T12:45:07Z</time>
      </trkpt>
      <trkpt lat="46.7952" lon="5.41616">
        <ele>210.5</ele>
        <time>2022-05-08T12:45:10Z</time>
      </trkpt>
      <trkpt lat="46.79519" lon="5.41624">
        <ele>213.4</ele>
        <time>2022-05-08T12:45:14Z</time>
      </trkpt>
      <trkpt lat="46.79519" lon="5.41632">
        <ele>214.9</ele>
        <time>2022-05-08T12:45:17Z</time>
      </trkpt>
      <trkpt lat="46.79521" lon="5.41638">
        <ele>216.4</ele>
        <time>2022-05-08T12:45:21Z</time>
      </trkpt>
      <trkpt lat="46.79525" lon="5.41644">
        <ele>217</ele>
        <time>2022-05-08T12:45:26Z</time>
      </trkpt>
      <trkpt lat="46.79528" lon="5.41648">
        <ele>216</ele>
        <time>2022-05-08T12:45:30Z</time>
      </trkpt>
      <trkpt lat="46.79532" lon="5.41653">
        <ele>213.4</ele>
        <time>2022-05-08T12:45:35Z</time>
      </trkpt>
      <trkpt lat="46.79533" lon="5.4166">
        <ele>211.2</ele>
        <time>2022-05-08T12:45:42Z</time>
      </trkpt>
      <trkpt lat="46.79531" lon="5.41667">
        <ele>209.1</ele>
        <time>2022-05-08T12:45:48Z</time>
      </trkpt>
      <trkpt lat="46.79532" lon="5.41673">
        <ele>206.8</ele>
        <time>2022-05-08T12:46:09Z</time>
      </trkpt>
      <trkpt lat="46.79533" lon="5.4168">
        <ele>206.1</ele>
        <time>2022-05-08T12:46:16Z</time>
      </trkpt>
      <trkpt lat="46.7953" lon="5.41686">
        <ele>204.9</ele>
        <time>2022-05-08T12:46:21Z</time>
      </trkpt>
      <trkpt lat="46.79526" lon="5.41691">
        <ele>203.5</ele>
        <time>2022-05-08T12:46:26Z</time>
      </trkpt>
      <trkpt lat="46.79522" lon="5.41695">
        <ele>202.2</ele>
        <time>2022-05-08T12:46:31Z</time>
      </trkpt>
      <trkpt lat="46.79518" lon="5.41699">
        <ele>201.6</ele>
        <time>2022-05-08T12:46:37Z</time>
      </trkpt>
      <trkpt lat="46.79513" lon="5.41702">
        <ele>201.8</ele>
        <time>2022-05-08T12:46:42Z</time>
      </trkpt>
      <trkpt lat="46.79508" lon="5.41706">
        <ele>201.3</ele>
        <time>2022-05-08T12:46:48Z</time>
      </trkpt>
      <trkpt lat="46.79504" lon="5.4171">
        <ele>200</ele>
        <time>2022-05-08T12:46:54Z</time>
      </trkpt>
      <trkpt lat="46.795" lon="5.41715">
        <ele>199.9</ele>
        <time>2022-05-08T12:46:58Z</time>
      </trkpt>
      <trkpt lat="46.79496" lon="5.4172">
        <ele>200.2</ele>
        <time>2022-05-08T12:47:02Z</time>
      </trkpt>
      <trkpt lat="46.79492" lon="5.41724">
        <ele>200.8</ele>
        <time>2022-05-08T12:47:07Z</time>
      </trkpt>
      <trkpt lat="46.79489" lon="5.41729">
        <ele>201.1</ele>
        <time>2022-05-08T12:47:13Z</time>
      </trkpt>
      <trkpt lat="46.79485" lon="5.41736">
        <ele>202</ele>
        <time>2022-05-08T12:47:18Z</time>
      </trkpt>
      <trkpt lat="46.79483" lon="5.41741">
        <ele>202.9</ele>
        <time>2022-05-08T12:47:21Z</time>
      </trkpt>
      <trkpt lat="46.79481" lon="5.41747">
        <ele>203.7</ele>
        <time>2022-05-08T12:47:33Z</time>
      </trkpt>
      <trkpt lat="46.79476" lon="5.41749">
        <ele>203.4</ele>
        <time>2022-05-08T12:47:37Z</time>
      </trkpt>
      <trkpt lat="46.79473" lon="5.41754">
        <ele>203.6</ele>
        <time>2022-05-08T12:47:43Z</time>
      </trkpt>
      <trkpt lat="46.79469" lon="5.41759">
        <ele>204.6</ele>
        <time>2022-05-08T12:47:51Z</time>
      </trkpt>
      <trkpt lat="46.79465" lon="5.41764">
        <ele>205.3</ele>
        <time>2022-05-08T12:47:57Z</time>
      </trkpt>
      <trkpt lat="46.79463" lon="5.4177">
        <ele>206.4</ele>
        <time>2022-05-08T12:48:04Z</time>
      </trkpt>
      <trkpt lat="46.79459" lon="5.41775">
        <ele>206</ele>
        <time>2022-05-08T12:48:31Z</time>
      </trkpt>
      <trkpt lat="46.79455" lon="5.41779">
        <ele>206.2</ele>
        <time>2022-05-08T12:48:41Z</time>
      </trkpt>
      <trkpt lat="46.79453" lon="5.41772">
        <ele>203.5</ele>
        <time>2022-05-08T12:50:14Z</time>
      </trkpt>
      <trkpt lat="46.79449" lon="5.41775">
        <ele>202</ele>
        <time>2022-05-08T12:50:54Z</time>
      </trkpt>
      <trkpt lat="46.79444" lon="5.41778">
        <ele>201.8</ele>
        <time>2022-05-08T12:50:59Z</time>
      </trkpt>
      <trkpt lat="46.79441" lon="5.41782">
        <ele>202.1</ele>
        <time>2022-05-08T12:51:05Z</time>
      </trkpt>
      <trkpt lat="46.79437" lon="5.41787">
        <ele>204.7</ele>
        <time>2022-05-08T12:51:47Z</time>
      </trkpt>
      <trkpt lat="46.79432" lon="5.41789">
        <ele>204.2</ele>
        <time>2022-05-08T12:51:54Z</time>
      </trkpt>
      <trkpt lat="46.79428" lon="5.4179">
        <ele>203.5</ele>
        <time>2022-05-08T12:52:00Z</time>
      </trkpt>
      <trkpt lat="46.79423" lon="5.41792">
        <ele>203.1</ele>
        <time>2022-05-08T12:52:08Z</time>
      </trkpt>
      <trkpt lat="46.79419" lon="5.41794">
        <ele>203.1</ele>
        <time>2022-05-08T12:52:13Z</time>
      </trkpt>
      <trkpt lat="46.79415" lon="5.41797">
        <ele>203.1</ele>
        <time>2022-05-08T12:52:17Z</time>
      </trkpt>
      <trkpt lat="46.79411" lon="5.41801">
        <ele>203</ele>
        <time>2022-05-08T12:52:21Z</time>
      </trkpt>
      <trkpt lat="46.79407" lon="5.41804">
        <ele>203.1</ele>
        <time>2022-05-08T12:52:25Z</time>
      </trkpt>
      <trkpt lat="46.79403" lon="5.41808">
        <ele>203.1</ele>
        <time>2022-05-08T12:52:30Z</time>
      </trkpt>
      <trkpt lat="46.79398" lon="5.41813">
        <ele>202.7</ele>
        <time>2022-05-08T12:52:36Z</time>
      </trkpt>
      <trkpt lat="46.79395" lon="5.41817">
        <ele>202.9</ele>
        <time>2022-05-08T12:52:41Z</time>
      </trkpt>
      <trkpt lat="46.79391" lon="5.41822">
        <ele>203.7</ele>
        <time>2022-05-08T12:52:46Z</time>
      </trkpt>
      <trkpt lat="46.79387" lon="5.41827">
        <ele>204.9</ele>
        <time>2022-05-08T12:52:51Z</time>
      </trkpt>
      <trkpt lat="46.79384" lon="5.41832">
        <ele>206.1</ele>
        <time>2022-05-08T12:52:57Z</time>
      </trkpt>
      <trkpt lat="46.79384" lon="5.41839">
        <ele>207.1</ele>
        <time>2022-05-08T12:53:03Z</time>
      </trkpt>
      <trkpt lat="46.79381" lon="5.41845">
        <ele>207.1</ele>
        <time>2022-05-08T12:53:34Z</time>
      </trkpt>
      <trkpt lat="46.79378" lon="5.4185">
        <ele>206</ele>
        <time>2022-05-08T12:53:42Z</time>
      </trkpt>
      <trkpt lat="46.79373" lon="5.4185">
        <ele>205.1</ele>
        <time>2022-05-08T12:54:02Z</time>
      </trkpt>
      <trkpt lat="46.79368" lon="5.41851">
        <ele>204.8</ele>
        <time>2022-05-08T12:54:07Z</time>
      </trkpt>
      <trkpt lat="46.79364" lon="5.41856">
        <ele>204.7</ele>
        <time>2022-05-08T12:54:11Z</time>
      </trkpt>
      <trkpt lat="46.79361" lon="5.41861">
        <ele>204.6</ele>
        <time>2022-05-08T12:54:16Z</time>
      </trkpt>
      <trkpt lat="46.79356" lon="5.41866">
        <ele>203.9</ele>
        <time>2022-05-08T12:54:21Z</time>
      </trkpt>
      <trkpt lat="46.79352" lon="5.41869">
        <ele>203.2</ele>
        <time>2022-05-08T12:54:25Z</time>
      </trkpt>
      <trkpt lat="46.79348" lon="5.41874">
        <ele>202.8</ele>
        <time>2022-05-08T12:54:30Z</time>
      </trkpt>
      <trkpt lat="46.79343" lon="5.41878">
        <ele>202.9</ele>
        <time>2022-05-08T12:54:34Z</time>
      </trkpt>
      <trkpt lat="46.79338" lon="5.4188">
        <ele>203.4</ele>
        <time>2022-05-08T12:54:39Z</time>
      </trkpt>
      <trkpt lat="46.79334" lon="5.41884">
        <ele>204.3</ele>
        <time>2022-05-08T12:54:44Z</time>
      </trkpt>
      <trkpt lat="46.7933" lon="5.41889">
        <ele>205.1</ele>
        <time>2022-05-08T12:54:49Z</time>
      </trkpt>
      <trkpt lat="46.79325" lon="5.41891">
        <ele>205.3</ele>
        <time>2022-05-08T12:54:56Z</time>
      </trkpt>
      <trkpt lat="46.79322" lon="5.41896">
        <ele>205.4</ele>
        <time>2022-05-08T12:55:03Z</time>
      </trkpt>
      <trkpt lat="46.79319" lon="5.41902">
        <ele>205.7</ele>
        <time>2022-05-08T12:55:09Z</time>
      </trkpt>
      <trkpt lat="46.79315" lon="5.41907">
        <ele>206.2</ele>
        <time>2022-05-08T12:55:13Z</time>
      </trkpt>
      <trkpt lat="46.79311" lon="5.41912">
        <ele>206.8</ele>
        <time>2022-05-08T12:55:17Z</time>
      </trkpt>
      <trkpt lat="46.79307" lon="5.41917">
        <ele>207.3</ele>
        <time>2022-05-08T12:55:21Z</time>
      </trkpt>
      <trkpt lat="46.79303" lon="5.41922">
        <ele>207.8</ele>
        <time>2022-05-08T12:55:25Z</time>
      </trkpt>
      <trkpt lat="46.793" lon="5.41927">
        <ele>208.1</ele>
        <time>2022-05-08T12:55:29Z</time>
      </trkpt>
      <trkpt lat="46.79297" lon="5.41933">
        <ele>208.3</ele>
        <time>2022-05-08T12:55:34Z</time>
      </trkpt>
      <trkpt lat="46.79295" lon="5.41939">
        <ele>207.9</ele>
        <time>2022-05-08T12:55:39Z</time>
      </trkpt>
      <trkpt lat="46.79292" lon="5.41944">
        <ele>207.1</ele>
        <time>2022-05-08T12:55:45Z</time>
      </trkpt>
      <trkpt lat="46.79289" lon="5.4195">
        <ele>206.6</ele>
        <time>2022-05-08T12:55:50Z</time>
      </trkpt>
      <trkpt lat="46.79286" lon="5.41957">
        <ele>206.6</ele>
        <time>2022-05-08T12:55:55Z</time>
      </trkpt>
      <trkpt lat="46.79285" lon="5.41964">
        <ele>207.2</ele>
        <time>2022-05-08T12:56:00Z</time>
      </trkpt>
      <trkpt lat="46.79285" lon="5.4197">
        <ele>207.7</ele>
        <time>2022-05-08T12:56:05Z</time>
      </trkpt>
      <trkpt lat="46.79283" lon="5.41977">
        <ele>208.1</ele>
        <time>2022-05-08T12:56:10Z</time>
      </trkpt>
      <trkpt lat="46.79282" lon="5.41985">
        <ele>208.5</ele>
        <time>2022-05-08T12:56:15Z</time>
      </trkpt>
      <trkpt lat="46.79281" lon="5.41992">
        <ele>208.8</ele>
        <time>2022-05-08T12:56:19Z</time>
      </trkpt>
      <trkpt lat="46.7928" lon="5.41999">
        <ele>209.3</ele>
        <time>2022-05-08T12:56:23Z</time>
      </trkpt>
      <trkpt lat="46.79279" lon="5.42006">
        <ele>209.6</ele>
        <time>2022-05-08T12:56:27Z</time>
      </trkpt>
      <trkpt lat="46.79278" lon="5.42012">
        <ele>210</ele>
        <time>2022-05-08T12:56:31Z</time>
      </trkpt>
      <trkpt lat="46.79277" lon="5.42021">
        <ele>210.9</ele>
        <time>2022-05-08T12:56:36Z</time>
      </trkpt>
      <trkpt lat="46.79275" lon="5.42028">
        <ele>211.7</ele>
        <time>2022-05-08T12:56:40Z</time>
      </trkpt>
      <trkpt lat="46.79273" lon="5.42036">
        <ele>212.8</ele>
        <time>2022-05-08T12:56:44Z</time>
      </trkpt>
      <trkpt lat="46.79271" lon="5.42044">
        <ele>213.9</ele>
        <time>2022-05-08T12:56:49Z</time>
      </trkpt>
      <trkpt lat="46.7927" lon="5.4205">
        <ele>214.7</ele>
        <time>2022-05-08T12:56:53Z</time>
      </trkpt>
      <trkpt lat="46.79268" lon="5.42057">
        <ele>214.7</ele>
        <time>2022-05-08T12:56:58Z</time>
      </trkpt>
      <trkpt lat="46.79266" lon="5.42064">
        <ele>214.6</ele>
        <time>2022-05-08T12:57:03Z</time>
      </trkpt>
      <trkpt lat="46.79263" lon="5.42071">
        <ele>213.9</ele>
        <time>2022-05-08T12:57:08Z</time>
      </trkpt>
      <trkpt lat="46.7926" lon="5.42077">
        <ele>213.3</ele>
        <time>2022-05-08T12:57:13Z</time>
      </trkpt>
      <trkpt lat="46.79258" lon="5.42084">
        <ele>213.1</ele>
        <time>2022-05-08T12:57:18Z</time>
      </trkpt>
      <trkpt lat="46.79255" lon="5.42091">
        <ele>213</ele>
        <time>2022-05-08T12:57:22Z</time>
      </trkpt>
      <trkpt lat="46.79253" lon="5.42096">
        <ele>212.8</ele>
        <time>2022-05-08T12:57:26Z</time>
      </trkpt>
      <trkpt lat="46.7925" lon="5.42102">
        <ele>212.8</ele>
        <time>2022-05-08T12:57:30Z</time>
      </trkpt>
      <trkpt lat="46.79247" lon="5.42108">
        <ele>212.4</ele>
        <time>2022-05-08T12:57:35Z</time>
      </trkpt>
      <trkpt lat="46.79244" lon="5.42115">
        <ele>211.3</ele>
        <time>2022-05-08T12:57:41Z</time>
      </trkpt>
      <trkpt lat="46.79241" lon="5.4212">
        <ele>210.5</ele>
        <time>2022-05-08T12:57:45Z</time>
      </trkpt>
      <trkpt lat="46.79238" lon="5.42126">
        <ele>209.9</ele>
        <time>2022-05-08T12:57:49Z</time>
      </trkpt>
      <trkpt lat="46.79235" lon="5.42132">
        <ele>209.3</ele>
        <time>2022-05-08T12:57:54Z</time>
      </trkpt>
      <trkpt lat="46.79232" lon="5.42139">
        <ele>208.7</ele>
        <time>2022-05-08T12:57:59Z</time>
      </trkpt>
      <trkpt lat="46.79229" lon="5.42145">
        <ele>208.9</ele>
        <time>2022-05-08T12:58:03Z</time>
      </trkpt>
      <trkpt lat="46.79226" lon="5.4215">
        <ele>209.4</ele>
        <time>2022-05-08T12:58:07Z</time>
      </trkpt>
      <trkpt lat="46.79223" lon="5.42156">
        <ele>210.4</ele>
        <time>2022-05-08T12:58:12Z</time>
      </trkpt>
      <trkpt lat="46.7922" lon="5.42162">
        <ele>211</ele>
        <time>2022-05-08T12:58:17Z</time>
      </trkpt>
      <trkpt lat="46.79217" lon="5.42168">
        <ele>211.6</ele>
        <time>2022-05-08T12:58:21Z</time>
      </trkpt>
      <trkpt lat="46.79214" lon="5.42173">
        <ele>212.2</ele>
        <time>2022-05-08T12:58:25Z</time>
      </trkpt>
      <trkpt lat="46.79211" lon="5.4218">
        <ele>212.3</ele>
        <time>2022-05-08T12:58:30Z</time>
      </trkpt>
      <trkpt lat="46.79209" lon="5.42186">
        <ele>211.8</ele>
        <time>2022-05-08T12:58:34Z</time>
      </trkpt>
      <trkpt lat="46.79206" lon="5.42191">
        <ele>211.6</ele>
        <time>2022-05-08T12:58:38Z</time>
      </trkpt>
      <trkpt lat="46.79203" lon="5.42197">
        <ele>211.7</ele>
        <time>2022-05-08T12:58:42Z</time>
      </trkpt>
      <trkpt lat="46.79201" lon="5.42203">
        <ele>211.9</ele>
        <time>2022-05-08T12:58:47Z</time>
      </trkpt>
      <trkpt lat="46.79198" lon="5.42208">
        <ele>211.6</ele>
        <time>2022-05-08T12:58:52Z</time>
      </trkpt>
      <trkpt lat="46.79195" lon="5.42215">
        <ele>211.4</ele>
        <time>2022-05-08T12:58:57Z</time>
      </trkpt>
      <trkpt lat="46.79192" lon="5.4222">
        <ele>211.2</ele>
        <time>2022-05-08T12:59:02Z</time>
      </trkpt>
      <trkpt lat="46.79188" lon="5.42226">
        <ele>210.8</ele>
        <time>2022-05-08T12:59:07Z</time>
      </trkpt>
      <trkpt lat="46.79185" lon="5.42232">
        <ele>210.6</ele>
        <time>2022-05-08T12:59:12Z</time>
      </trkpt>
      <trkpt lat="46.79183" lon="5.42238">
        <ele>210.7</ele>
        <time>2022-05-08T12:59:17Z</time>
      </trkpt>
      <trkpt lat="46.7918" lon="5.42244">
        <ele>211.3</ele>
        <time>2022-05-08T12:59:22Z</time>
      </trkpt>
      <trkpt lat="46.79178" lon="5.4225">
        <ele>211.7</ele>
        <time>2022-05-08T12:59:27Z</time>
      </trkpt>
      <trkpt lat="46.79176" lon="5.42257">
        <ele>211.6</ele>
        <time>2022-05-08T12:59:32Z</time>
      </trkpt>
      <trkpt lat="46.79173" lon="5.42262">
        <ele>211.2</ele>
        <time>2022-05-08T12:59:37Z</time>
      </trkpt>
      <trkpt lat="46.79171" lon="5.42269">
        <ele>210.4</ele>
        <time>2022-05-08T12:59:42Z</time>
      </trkpt>
      <trkpt lat="46.79168" lon="5.42274">
        <ele>209.7</ele>
        <time>2022-05-08T12:59:46Z</time>
      </trkpt>
      <trkpt lat="46.79164" lon="5.4228">
        <ele>208.9</ele>
        <time>2022-05-08T12:59:51Z</time>
      </trkpt>
      <trkpt lat="46.79161" lon="5.42286">
        <ele>208.3</ele>
        <time>2022-05-08T12:59:56Z</time>
      </trkpt>
      <trkpt lat="46.79157" lon="5.42292">
        <ele>208.4</ele>
        <time>2022-05-08T13:00:00Z</time>
      </trkpt>
      <trkpt lat="46.79153" lon="5.42296">
        <ele>208.5</ele>
        <time>2022-05-08T13:00:04Z</time>
      </trkpt>
      <trkpt lat="46.79149" lon="5.423">
        <ele>208.4</ele>
        <time>2022-05-08T13:00:09Z</time>
      </trkpt>
      <trkpt lat="46.79144" lon="5.42304">
        <ele>207.8</ele>
        <time>2022-05-08T13:00:15Z</time>
      </trkpt>
      <trkpt lat="46.7914" lon="5.42308">
        <ele>207.3</ele>
        <time>2022-05-08T13:00:19Z</time>
      </trkpt>
      <trkpt lat="46.79136" lon="5.42314">
        <ele>207.1</ele>
        <time>2022-05-08T13:00:24Z</time>
      </trkpt>
      <trkpt lat="46.79132" lon="5.42318">
        <ele>206.7</ele>
        <time>2022-05-08T13:00:28Z</time>
      </trkpt>
      <trkpt lat="46.79129" lon="5.42324">
        <ele>206.6</ele>
        <time>2022-05-08T13:00:32Z</time>
      </trkpt>
      <trkpt lat="46.79126" lon="5.4233">
        <ele>206.7</ele>
        <time>2022-05-08T13:00:37Z</time>
      </trkpt>
      <trkpt lat="46.79122" lon="5.42334">
        <ele>206.1</ele>
        <time>2022-05-08T13:00:42Z</time>
      </trkpt>
      <trkpt lat="46.79117" lon="5.42337">
        <ele>205</ele>
        <time>2022-05-08T13:00:48Z</time>
      </trkpt>
      <trkpt lat="46.79113" lon="5.42341">
        <ele>204.6</ele>
        <time>2022-05-08T13:00:53Z</time>
      </trkpt>
      <trkpt lat="46.79109" lon="5.42345">
        <ele>204.7</ele>
        <time>2022-05-08T13:00:57Z</time>
      </trkpt>
      <trkpt lat="46.79106" lon="5.4235">
        <ele>205</ele>
        <time>2022-05-08T13:01:01Z</time>
      </trkpt>
      <trkpt lat="46.79102" lon="5.42355">
        <ele>205.4</ele>
        <time>2022-05-08T13:01:05Z</time>
      </trkpt>
      <trkpt lat="46.79098" lon="5.42359">
        <ele>206.2</ele>
        <time>2022-05-08T13:01:09Z</time>
      </trkpt>
      <trkpt lat="46.79093" lon="5.42363">
        <ele>207.4</ele>
        <time>2022-05-08T13:01:14Z</time>
      </trkpt>
      <trkpt lat="46.7909" lon="5.42369">
        <ele>208.9</ele>
        <time>2022-05-08T13:01:20Z</time>
      </trkpt>
      <trkpt lat="46.79086" lon="5.42373">
        <ele>209.9</ele>
        <time>2022-05-08T13:01:25Z</time>
      </trkpt>
      <trkpt lat="46.79081" lon="5.42376">
        <ele>210.7</ele>
        <time>2022-05-08T13:01:31Z</time>
      </trkpt>
      <trkpt lat="46.79077" lon="5.42381">
        <ele>210.9</ele>
        <time>2022-05-08T13:01:37Z</time>
      </trkpt>
      <trkpt lat="46.79073" lon="5.42386">
        <ele>210.5</ele>
        <time>2022-05-08T13:01:42Z</time>
      </trkpt>
      <trkpt lat="46.79069" lon="5.42388">
        <ele>210</ele>
        <time>2022-05-08T13:01:46Z</time>
      </trkpt>
      <trkpt lat="46.79064" lon="5.42392">
        <ele>209.6</ele>
        <time>2022-05-08T13:01:50Z</time>
      </trkpt>
      <trkpt lat="46.79061" lon="5.42397">
        <ele>208.8</ele>
        <time>2022-05-08T13:01:55Z</time>
      </trkpt>
      <trkpt lat="46.79057" lon="5.42402">
        <ele>208</ele>
        <time>2022-05-08T13:01:59Z</time>
      </trkpt>
      <trkpt lat="46.79053" lon="5.42405">
        <ele>207.5</ele>
        <time>2022-05-08T13:02:04Z</time>
      </trkpt>
      <trkpt lat="46.79049" lon="5.42407">
        <ele>207.8</ele>
        <time>2022-05-08T13:02:10Z</time>
      </trkpt>
      <trkpt lat="46.79045" lon="5.42411">
        <ele>208.1</ele>
        <time>2022-05-08T13:02:15Z</time>
      </trkpt>
      <trkpt lat="46.7904" lon="5.42418">
        <ele>208.4</ele>
        <time>2022-05-08T13:02:19Z</time>
      </trkpt>
      <trkpt lat="46.79036" lon="5.42422">
        <ele>208.7</ele>
        <time>2022-05-08T13:02:23Z</time>
      </trkpt>
      <trkpt lat="46.79032" lon="5.42426">
        <ele>208.8</ele>
        <time>2022-05-08T13:02:28Z</time>
      </trkpt>
      <trkpt lat="46.79028" lon="5.4243">
        <ele>208.8</ele>
        <time>2022-05-08T13:02:32Z</time>
      </trkpt>
      <trkpt lat="46.79024" lon="5.42434">
        <ele>208.7</ele>
        <time>2022-05-08T13:02:36Z</time>
      </trkpt>
      <trkpt lat="46.79021" lon="5.4244">
        <ele>208.6</ele>
        <time>2022-05-08T13:02:41Z</time>
      </trkpt>
      <trkpt lat="46.79018" lon="5.42445">
        <ele>208.7</ele>
        <time>2022-05-08T13:02:46Z</time>
      </trkpt>
      <trkpt lat="46.79014" lon="5.42449">
        <ele>208.9</ele>
        <time>2022-05-08T13:02:50Z</time>
      </trkpt>
      <trkpt lat="46.7901" lon="5.42453">
        <ele>209.5</ele>
        <time>2022-05-08T13:02:55Z</time>
      </trkpt>
      <trkpt lat="46.79005" lon="5.42458">
        <ele>210.3</ele>
        <time>2022-05-08T13:03:00Z</time>
      </trkpt>
      <trkpt lat="46.79" lon="5.4246">
        <ele>210.9</ele>
        <time>2022-05-08T13:03:03Z</time>
      </trkpt>
      <trkpt lat="46.78996" lon="5.42464">
        <ele>211.4</ele>
        <time>2022-05-08T13:03:06Z</time>
      </trkpt>
      <trkpt lat="46.78992" lon="5.42468">
        <ele>211.9</ele>
        <time>2022-05-08T13:03:10Z</time>
      </trkpt>
      <trkpt lat="46.78988" lon="5.42472">
        <ele>212.4</ele>
        <time>2022-05-08T13:03:14Z</time>
      </trkpt>
      <trkpt lat="46.78984" lon="5.42476">
        <ele>212.8</ele>
        <time>2022-05-08T13:03:19Z</time>
      </trkpt>
      <trkpt lat="46.7898" lon="5.42479">
        <ele>212.9</ele>
        <time>2022-05-08T13:03:26Z</time>
      </trkpt>
      <trkpt lat="46.78975" lon="5.42483">
        <ele>212.9</ele>
        <time>2022-05-08T13:03:32Z</time>
      </trkpt>
      <trkpt lat="46.78971" lon="5.42487">
        <ele>213.1</ele>
        <time>2022-05-08T13:03:36Z</time>
      </trkpt>
      <trkpt lat="46.78967" lon="5.42491">
        <ele>213.4</ele>
        <time>2022-05-08T13:03:40Z</time>
      </trkpt>
      <trkpt lat="46.78963" lon="5.42496">
        <ele>214.1</ele>
        <time>2022-05-08T13:03:44Z</time>
      </trkpt>
      <trkpt lat="46.78959" lon="5.42502">
        <ele>215.1</ele>
        <time>2022-05-08T13:03:50Z</time>
      </trkpt>
      <trkpt lat="46.78955" lon="5.42506">
        <ele>215.7</ele>
        <time>2022-05-08T13:03:54Z</time>
      </trkpt>
      <trkpt lat="46.78951" lon="5.4251">
        <ele>216.3</ele>
        <time>2022-05-08T13:03:57Z</time>
      </trkpt>
      <trkpt lat="46.78948" lon="5.42514">
        <ele>217</ele>
        <time>2022-05-08T13:04:00Z</time>
      </trkpt>
      <trkpt lat="46.78944" lon="5.42519">
        <ele>218.1</ele>
        <time>2022-05-08T13:04:04Z</time>
      </trkpt>
      <trkpt lat="46.7894" lon="5.42525">
        <ele>219.2</ele>
        <time>2022-05-08T13:04:10Z</time>
      </trkpt>
      <trkpt lat="46.78937" lon="5.42531">
        <ele>220.5</ele>
        <time>2022-05-08T13:04:15Z</time>
      </trkpt>
      <trkpt lat="46.78934" lon="5.42536">
        <ele>221.3</ele>
        <time>2022-05-08T13:04:19Z</time>
      </trkpt>
      <trkpt lat="46.78931" lon="5.42543">
        <ele>222.7</ele>
        <time>2022-05-08T13:04:24Z</time>
      </trkpt>
      <trkpt lat="46.78927" lon="5.42548">
        <ele>224</ele>
        <time>2022-05-08T13:04:28Z</time>
      </trkpt>
      <trkpt lat="46.78925" lon="5.42553">
        <ele>225.4</ele>
        <time>2022-05-08T13:04:33Z</time>
      </trkpt>
      <trkpt lat="46.78922" lon="5.4256">
        <ele>226.2</ele>
        <time>2022-05-08T13:04:37Z</time>
      </trkpt>
      <trkpt lat="46.7892" lon="5.42568">
        <ele>226.9</ele>
        <time>2022-05-08T13:04:41Z</time>
      </trkpt>
      <trkpt lat="46.78919" lon="5.42576">
        <ele>227.6</ele>
        <time>2022-05-08T13:04:45Z</time>
      </trkpt>
      <trkpt lat="46.78917" lon="5.42582">
        <ele>228.3</ele>
        <time>2022-05-08T13:04:48Z</time>
      </trkpt>
      <trkpt lat="46.78916" lon="5.42589">
        <ele>228.6</ele>
        <time>2022-05-08T13:04:51Z</time>
      </trkpt>
      <trkpt lat="46.78915" lon="5.42596">
        <ele>228.9</ele>
        <time>2022-05-08T13:04:56Z</time>
      </trkpt>
      <trkpt lat="46.78915" lon="5.42604">
        <ele>229</ele>
        <time>2022-05-08T13:05:02Z</time>
      </trkpt>
      <trkpt lat="46.78915" lon="5.42611">
        <ele>228.9</ele>
        <time>2022-05-08T13:05:07Z</time>
      </trkpt>
      <trkpt lat="46.78914" lon="5.42619">
        <ele>228.7</ele>
        <time>2022-05-08T13:05:11Z</time>
      </trkpt>
      <trkpt lat="46.78914" lon="5.42626">
        <ele>228.3</ele>
        <time>2022-05-08T13:05:15Z</time>
      </trkpt>
      <trkpt lat="46.78915" lon="5.42634">
        <ele>228</ele>
        <time>2022-05-08T13:05:20Z</time>
      </trkpt>
      <trkpt lat="46.78916" lon="5.42641">
        <ele>228.2</ele>
        <time>2022-05-08T13:05:24Z</time>
      </trkpt>
      <trkpt lat="46.78917" lon="5.42648">
        <ele>228.2</ele>
        <time>2022-05-08T13:05:28Z</time>
      </trkpt>
      <trkpt lat="46.78919" lon="5.42655">
        <ele>227.7</ele>
        <time>2022-05-08T13:05:33Z</time>
      </trkpt>
      <trkpt lat="46.78921" lon="5.42661">
        <ele>227.2</ele>
        <time>2022-05-08T13:05:38Z</time>
      </trkpt>
      <trkpt lat="46.78922" lon="5.42669">
        <ele>226.7</ele>
        <time>2022-05-08T13:05:43Z</time>
      </trkpt>
      <trkpt lat="46.78925" lon="5.42675">
        <ele>226.8</ele>
        <time>2022-05-08T13:05:47Z</time>
      </trkpt>
      <trkpt lat="46.78929" lon="5.4268">
        <ele>227.4</ele>
        <time>2022-05-08T13:05:51Z</time>
      </trkpt>
      <trkpt lat="46.78933" lon="5.42685">
        <ele>227.9</ele>
        <time>2022-05-08T13:05:55Z</time>
      </trkpt>
      <trkpt lat="46.78936" lon="5.42689">
        <ele>228.3</ele>
        <time>2022-05-08T13:05:59Z</time>
      </trkpt>
      <trkpt lat="46.78939" lon="5.42696">
        <ele>228.7</ele>
        <time>2022-05-08T13:06:03Z</time>
      </trkpt>
      <trkpt lat="46.78943" lon="5.42702">
        <ele>229.1</ele>
        <time>2022-05-08T13:06:06Z</time>
      </trkpt>
      <trkpt lat="46.78946" lon="5.42708">
        <ele>229.6</ele>
        <time>2022-05-08T13:06:10Z</time>
      </trkpt>
      <trkpt lat="46.78947" lon="5.42715">
        <ele>230.1</ele>
        <time>2022-05-08T13:06:14Z</time>
      </trkpt>
      <trkpt lat="46.78949" lon="5.42722">
        <ele>230</ele>
        <time>2022-05-08T13:06:18Z</time>
      </trkpt>
      <trkpt lat="46.78951" lon="5.42728">
        <ele>229.9</ele>
        <time>2022-05-08T13:06:22Z</time>
      </trkpt>
      <trkpt lat="46.78954" lon="5.42734">
        <ele>229.7</ele>
        <time>2022-05-08T13:06:27Z</time>
      </trkpt>
      <trkpt lat="46.78957" lon="5.4274">
        <ele>229.5</ele>
        <time>2022-05-08T13:06:31Z</time>
      </trkpt>
      <trkpt lat="46.78959" lon="5.42745">
        <ele>229.3</ele>
        <time>2022-05-08T13:06:35Z</time>
      </trkpt>
      <trkpt lat="46.78962" lon="5.42751">
        <ele>229.1</ele>
        <time>2022-05-08T13:06:39Z</time>
      </trkpt>
      <trkpt lat="46.78964" lon="5.42758">
        <ele>228.7</ele>
        <time>2022-05-08T13:06:43Z</time>
      </trkpt>
      <trkpt lat="46.78966" lon="5.42765">
        <ele>228</ele>
        <time>2022-05-08T13:06:48Z</time>
      </trkpt>
      <trkpt lat="46.78969" lon="5.42772">
        <ele>227.2</ele>
        <time>2022-05-08T13:06:52Z</time>
      </trkpt>
      <trkpt lat="46.78971" lon="5.42779">
        <ele>226.6</ele>
        <time>2022-05-08T13:06:56Z</time>
      </trkpt>
      <trkpt lat="46.78974" lon="5.42786">
        <ele>226.5</ele>
        <time>2022-05-08T13:07:00Z</time>
      </trkpt>
      <trkpt lat="46.78976" lon="5.42792">
        <ele>226.4</ele>
        <time>2022-05-08T13:07:04Z</time>
      </trkpt>
      <trkpt lat="46.78977" lon="5.428">
        <ele>226.1</ele>
        <time>2022-05-08T13:07:09Z</time>
      </trkpt>
      <trkpt lat="46.78979" lon="5.42806">
        <ele>225.7</ele>
        <time>2022-05-08T13:07:13Z</time>
      </trkpt>
      <trkpt lat="46.7898" lon="5.42813">
        <ele>225</ele>
        <time>2022-05-08T13:07:17Z</time>
      </trkpt>
      <trkpt lat="46.78982" lon="5.42819">
        <ele>224</ele>
        <time>2022-05-08T13:07:21Z</time>
      </trkpt>
      <trkpt lat="46.78984" lon="5.42826">
        <ele>223</ele>
        <time>2022-05-08T13:07:25Z</time>
      </trkpt>
      <trkpt lat="46.78987" lon="5.42833">
        <ele>222.5</ele>
        <time>2022-05-08T13:07:30Z</time>
      </trkpt>
      <trkpt lat="46.78988" lon="5.4284">
        <ele>222</ele>
        <time>2022-05-08T13:07:35Z</time>
      </trkpt>
      <trkpt lat="46.78989" lon="5.42847">
        <ele>221.8</ele>
        <time>2022-05-08T13:07:40Z</time>
      </trkpt>
      <trkpt lat="46.7899" lon="5.42853">
        <ele>221.7</ele>
        <time>2022-05-08T13:07:44Z</time>
      </trkpt>
      <trkpt lat="46.78991" lon="5.4286">
        <ele>221.4</ele>
        <time>2022-05-08T13:07:48Z</time>
      </trkpt>
      <trkpt lat="46.78993" lon="5.42867">
        <ele>221.3</ele>
        <time>2022-05-08T13:07:53Z</time>
      </trkpt>
      <trkpt lat="46.78995" lon="5.42873">
        <ele>221.7</ele>
        <time>2022-05-08T13:07:58Z</time>
      </trkpt>
      <trkpt lat="46.78997" lon="5.4288">
        <ele>221.9</ele>
        <time>2022-05-08T13:08:03Z</time>
      </trkpt>
      <trkpt lat="46.79" lon="5.42887">
        <ele>222.1</ele>
        <time>2022-05-08T13:08:08Z</time>
      </trkpt>
      <trkpt lat="46.79001" lon="5.42894">
        <ele>221.9</ele>
        <time>2022-05-08T13:08:12Z</time>
      </trkpt>
      <trkpt lat="46.79002" lon="5.429">
        <ele>221.7</ele>
        <time>2022-05-08T13:08:16Z</time>
      </trkpt>
      <trkpt lat="46.79003" lon="5.42908">
        <ele>221.6</ele>
        <time>2022-05-08T13:08:21Z</time>
      </trkpt>
      <trkpt lat="46.79006" lon="5.42914">
        <ele>221.6</ele>
        <time>2022-05-08T13:08:25Z</time>
      </trkpt>
      <trkpt lat="46.79008" lon="5.4292">
        <ele>221.4</ele>
        <time>2022-05-08T13:08:29Z</time>
      </trkpt>
      <trkpt lat="46.7901" lon="5.42928">
        <ele>220.9</ele>
        <time>2022-05-08T13:08:35Z</time>
      </trkpt>
      <trkpt lat="46.79011" lon="5.42935">
        <ele>220.4</ele>
        <time>2022-05-08T13:08:40Z</time>
      </trkpt>
      <trkpt lat="46.79012" lon="5.42941">
        <ele>219.9</ele>
        <time>2022-05-08T13:08:45Z</time>
      </trkpt>
      <trkpt lat="46.79013" lon="5.42948">
        <ele>219.5</ele>
        <time>2022-05-08T13:08:50Z</time>
      </trkpt>
      <trkpt lat="46.79014" lon="5.42955">
        <ele>219.2</ele>
        <time>2022-05-08T13:08:56Z</time>
      </trkpt>
      <trkpt lat="46.79016" lon="5.42962">
        <ele>219.4</ele>
        <time>2022-05-08T13:09:01Z</time>
      </trkpt>
      <trkpt lat="46.79017" lon="5.42969">
        <ele>219.6</ele>
        <time>2022-05-08T13:09:07Z</time>
      </trkpt>
      <trkpt lat="46.79019" lon="5.42975">
        <ele>219.7</ele>
        <time>2022-05-08T13:09:13Z</time>
      </trkpt>
      <trkpt lat="46.79024" lon="5.42978">
        <ele>218.5</ele>
        <time>2022-05-08T13:09:23Z</time>
      </trkpt>
      <trkpt lat="46.79028" lon="5.42979">
        <ele>217.5</ele>
        <time>2022-05-08T13:09:49Z</time>
      </trkpt>
      <trkpt lat="46.79031" lon="5.42974">
        <ele>213.6</ele>
        <time>2022-05-08T13:12:27Z</time>
      </trkpt>
      <trkpt lat="46.79036" lon="5.4298">
        <ele>211.2</ele>
        <time>2022-05-08T13:17:02Z</time>
      </trkpt>
      <trkpt lat="46.7904" lon="5.42983">
        <ele>210.4</ele>
        <time>2022-05-08T13:17:07Z</time>
      </trkpt>
      <trkpt lat="46.79045" lon="5.42985">
        <ele>210</ele>
        <time>2022-05-08T13:17:13Z</time>
      </trkpt>
      <trkpt lat="46.7905" lon="5.42987">
        <ele>209.1</ele>
        <time>2022-05-08T13:17:18Z</time>
      </trkpt>
      <trkpt lat="46.79054" lon="5.42989">
        <ele>208.6</ele>
        <time>2022-05-08T13:17:24Z</time>
      </trkpt>
      <trkpt lat="46.79059" lon="5.42992">
        <ele>208.3</ele>
        <time>2022-05-08T13:17:31Z</time>
      </trkpt>
      <trkpt lat="46.79064" lon="5.42993">
        <ele>208.1</ele>
        <time>2022-05-08T13:17:36Z</time>
      </trkpt>
      <trkpt lat="46.79069" lon="5.42996">
        <ele>207.6</ele>
        <time>2022-05-08T13:17:40Z</time>
      </trkpt>
      <trkpt lat="46.79075" lon="5.42999">
        <ele>206.8</ele>
        <time>2022-05-08T13:17:45Z</time>
      </trkpt>
      <trkpt lat="46.7908" lon="5.43001">
        <ele>205.8</ele>
        <time>2022-05-08T13:17:50Z</time>
      </trkpt>
      <trkpt lat="46.79084" lon="5.43001">
        <ele>204.7</ele>
        <time>2022-05-08T13:17:55Z</time>
      </trkpt>
      <trkpt lat="46.7909" lon="5.43002">
        <ele>203.9</ele>
        <time>2022-05-08T13:18:00Z</time>
      </trkpt>
      <trkpt lat="46.79095" lon="5.43005">
        <ele>203.5</ele>
        <time>2022-05-08T13:18:04Z</time>
      </trkpt>
      <trkpt lat="46.791" lon="5.43005">
        <ele>203.3</ele>
        <time>2022-05-08T13:18:08Z</time>
      </trkpt>
      <trkpt lat="46.79105" lon="5.43005">
        <ele>203.3</ele>
        <time>2022-05-08T13:18:11Z</time>
      </trkpt>
      <trkpt lat="46.79111" lon="5.43005">
        <ele>203.2</ele>
        <time>2022-05-08T13:18:15Z</time>
      </trkpt>
      <trkpt lat="46.79115" lon="5.43001">
        <ele>203.2</ele>
        <time>2022-05-08T13:18:20Z</time>
      </trkpt>
      <trkpt lat="46.7912" lon="5.42998">
        <ele>202.5</ele>
        <time>2022-05-08T13:18:24Z</time>
      </trkpt>
      <trkpt lat="46.79125" lon="5.42996">
        <ele>201.7</ele>
        <time>2022-05-08T13:18:29Z</time>
      </trkpt>
      <trkpt lat="46.79129" lon="5.42995">
        <ele>201.4</ele>
        <time>2022-05-08T13:18:33Z</time>
      </trkpt>
      <trkpt lat="46.79134" lon="5.42994">
        <ele>201.1</ele>
        <time>2022-05-08T13:18:38Z</time>
      </trkpt>
      <trkpt lat="46.79139" lon="5.42991">
        <ele>200.4</ele>
        <time>2022-05-08T13:18:44Z</time>
      </trkpt>
      <trkpt lat="46.79144" lon="5.4299">
        <ele>199.6</ele>
        <time>2022-05-08T13:18:50Z</time>
      </trkpt>
      <trkpt lat="46.79149" lon="5.42988">
        <ele>197.9</ele>
        <time>2022-05-08T13:18:57Z</time>
      </trkpt>
      <trkpt lat="46.79154" lon="5.42985">
        <ele>196.8</ele>
        <time>2022-05-08T13:19:01Z</time>
      </trkpt>
      <trkpt lat="46.79159" lon="5.42985">
        <ele>196.5</ele>
        <time>2022-05-08T13:19:04Z</time>
      </trkpt>
      <trkpt lat="46.79163" lon="5.42987">
        <ele>196</ele>
        <time>2022-05-08T13:19:08Z</time>
      </trkpt>
      <trkpt lat="46.79168" lon="5.4299">
        <ele>195.2</ele>
        <time>2022-05-08T13:19:13Z</time>
      </trkpt>
      <trkpt lat="46.79173" lon="5.42992">
        <ele>194.3</ele>
        <time>2022-05-08T13:19:18Z</time>
      </trkpt>
      <trkpt lat="46.79178" lon="5.42995">
        <ele>193.4</ele>
        <time>2022-05-08T13:19:23Z</time>
      </trkpt>
      <trkpt lat="46.79183" lon="5.42997">
        <ele>192.3</ele>
        <time>2022-05-08T13:19:28Z</time>
      </trkpt>
      <trkpt lat="46.79188" lon="5.42997">
        <ele>191.3</ele>
        <time>2022-05-08T13:19:33Z</time>
      </trkpt>
      <trkpt lat="46.79193" lon="5.42998">
        <ele>190.4</ele>
        <time>2022-05-08T13:19:38Z</time>
      </trkpt>
      <trkpt lat="46.79198" lon="5.42998">
        <ele>190.4</ele>
        <time>2022-05-08T13:19:42Z</time>
      </trkpt>
      <trkpt lat="46.79203" lon="5.42999">
        <ele>190.7</ele>
        <time>2022-05-08T13:19:46Z</time>
      </trkpt>
      <trkpt lat="46.79207" lon="5.43001">
        <ele>190.7</ele>
        <time>2022-05-08T13:19:50Z</time>
      </trkpt>
      <trkpt lat="46.79212" lon="5.43003">
        <ele>190.7</ele>
        <time>2022-05-08T13:19:54Z</time>
      </trkpt>
      <trkpt lat="46.79217" lon="5.43006">
        <ele>191.1</ele>
        <time>2022-05-08T13:19:59Z</time>
      </trkpt>
      <trkpt lat="46.79221" lon="5.43008">
        <ele>191.7</ele>
        <time>2022-05-08T13:20:03Z</time>
      </trkpt>
      <trkpt lat="46.79226" lon="5.43012">
        <ele>192.3</ele>
        <time>2022-05-08T13:20:08Z</time>
      </trkpt>
      <trkpt lat="46.79231" lon="5.43015">
        <ele>193</ele>
        <time>2022-05-08T13:20:12Z</time>
      </trkpt>
      <trkpt lat="46.79237" lon="5.43019">
        <ele>194.1</ele>
        <time>2022-05-08T13:20:16Z</time>
      </trkpt>
      <trkpt lat="46.79241" lon="5.43022">
        <ele>195.2</ele>
        <time>2022-05-08T13:20:19Z</time>
      </trkpt>
      <trkpt lat="46.79245" lon="5.43028">
        <ele>196.2</ele>
        <time>2022-05-08T13:20:23Z</time>
      </trkpt>
      <trkpt lat="46.79249" lon="5.43032">
        <ele>196.8</ele>
        <time>2022-05-08T13:20:29Z</time>
      </trkpt>
      <trkpt lat="46.79252" lon="5.43039">
        <ele>197.2</ele>
        <time>2022-05-08T13:20:36Z</time>
      </trkpt>
      <trkpt lat="46.79256" lon="5.43044">
        <ele>197.3</ele>
        <time>2022-05-08T13:20:41Z</time>
      </trkpt>
      <trkpt lat="46.79259" lon="5.43049">
        <ele>197.4</ele>
        <time>2022-05-08T13:20:45Z</time>
      </trkpt>
      <trkpt lat="46.79262" lon="5.43054">
        <ele>197.9</ele>
        <time>2022-05-08T13:20:50Z</time>
      </trkpt>
      <trkpt lat="46.79265" lon="5.43061">
        <ele>199.2</ele>
        <time>2022-05-08T13:20:56Z</time>
      </trkpt>
      <trkpt lat="46.79268" lon="5.43068">
        <ele>199.5</ele>
        <time>2022-05-08T13:21:01Z</time>
      </trkpt>
      <trkpt lat="46.7927" lon="5.43074">
        <ele>199.4</ele>
        <time>2022-05-08T13:21:06Z</time>
      </trkpt>
      <trkpt lat="46.79274" lon="5.4308">
        <ele>199</ele>
        <time>2022-05-08T13:21:11Z</time>
      </trkpt>
      <trkpt lat="46.79277" lon="5.43085">
        <ele>198.5</ele>
        <time>2022-05-08T13:21:15Z</time>
      </trkpt>
      <trkpt lat="46.7928" lon="5.43092">
        <ele>197.5</ele>
        <time>2022-05-08T13:21:20Z</time>
      </trkpt>
      <trkpt lat="46.7928" lon="5.43099">
        <ele>195.5</ele>
        <time>2022-05-08T13:21:26Z</time>
      </trkpt>
      <trkpt lat="46.79284" lon="5.43105">
        <ele>194.1</ele>
        <time>2022-05-08T13:21:32Z</time>
      </trkpt>
      <trkpt lat="46.79288" lon="5.43106">
        <ele>193.8</ele>
        <time>2022-05-08T13:21:36Z</time>
      </trkpt>
      <trkpt lat="46.79293" lon="5.43109">
        <ele>194.7</ele>
        <time>2022-05-08T13:21:40Z</time>
      </trkpt>
      <trkpt lat="46.79298" lon="5.43113">
        <ele>196.5</ele>
        <time>2022-05-08T13:21:45Z</time>
      </trkpt>
      <trkpt lat="46.79301" lon="5.43119">
        <ele>198.9</ele>
        <time>2022-05-08T13:21:51Z</time>
      </trkpt>
      <trkpt lat="46.79303" lon="5.43126">
        <ele>200.6</ele>
        <time>2022-05-08T13:21:56Z</time>
      </trkpt>
      <trkpt lat="46.79308" lon="5.43128">
        <ele>201.9</ele>
        <time>2022-05-08T13:22:00Z</time>
      </trkpt>
      <trkpt lat="46.79313" lon="5.43129">
        <ele>203</ele>
        <time>2022-05-08T13:22:03Z</time>
      </trkpt>
      <trkpt lat="46.79318" lon="5.43133">
        <ele>204.7</ele>
        <time>2022-05-08T13:22:07Z</time>
      </trkpt>
      <trkpt lat="46.79323" lon="5.43137">
        <ele>206.1</ele>
        <time>2022-05-08T13:22:11Z</time>
      </trkpt>
      <trkpt lat="46.79328" lon="5.4314">
        <ele>207.5</ele>
        <time>2022-05-08T13:22:15Z</time>
      </trkpt>
      <trkpt lat="46.79332" lon="5.43144">
        <ele>209.2</ele>
        <time>2022-05-08T13:22:19Z</time>
      </trkpt>
      <trkpt lat="46.79336" lon="5.43147">
        <ele>210.6</ele>
        <time>2022-05-08T13:22:22Z</time>
      </trkpt>
      <trkpt lat="46.79341" lon="5.43149">
        <ele>212.1</ele>
        <time>2022-05-08T13:22:25Z</time>
      </trkpt>
      <trkpt lat="46.79344" lon="5.43155">
        <ele>214.1</ele>
        <time>2022-05-08T13:22:34Z</time>
      </trkpt>
      <trkpt lat="46.79344" lon="5.43162">
        <ele>217.4</ele>
        <time>2022-05-08T13:22:52Z</time>
      </trkpt>
      <trkpt lat="46.79342" lon="5.43168">
        <ele>219.5</ele>
        <time>2022-05-08T13:23:00Z</time>
      </trkpt>
      <trkpt lat="46.79339" lon="5.43174">
        <ele>221.4</ele>
        <time>2022-05-08T13:23:09Z</time>
      </trkpt>
      <trkpt lat="46.79334" lon="5.43174">
        <ele>225.1</ele>
        <time>2022-05-08T13:23:27Z</time>
      </trkpt>
      <trkpt lat="46.79331" lon="5.43179">
        <ele>225.2</ele>
        <time>2022-05-08T13:23:32Z</time>
      </trkpt>
      <trkpt lat="46.79328" lon="5.43186">
        <ele>225.1</ele>
        <time>2022-05-08T13:23:36Z</time>
      </trkpt>
      <trkpt lat="46.79325" lon="5.43193">
        <ele>225.3</ele>
        <time>2022-05-08T13:23:40Z</time>
      </trkpt>
      <trkpt lat="46.79321" lon="5.43199">
        <ele>225.3</ele>
        <time>2022-05-08T13:23:44Z</time>
      </trkpt>
      <trkpt lat="46.79318" lon="5.43204">
        <ele>225.5</ele>
        <time>2022-05-08T13:23:49Z</time>
      </trkpt>
      <trkpt lat="46.79313" lon="5.43209">
        <ele>225.3</ele>
        <time>2022-05-08T13:23:53Z</time>
      </trkpt>
      <trkpt lat="46.7931" lon="5.43214">
        <ele>224.7</ele>
        <time>2022-05-08T13:23:57Z</time>
      </trkpt>
      <trkpt lat="46.79307" lon="5.43219">
        <ele>223.6</ele>
        <time>2022-05-08T13:24:02Z</time>
      </trkpt>
      <trkpt lat="46.79304" lon="5.43224">
        <ele>223</ele>
        <time>2022-05-08T13:24:06Z</time>
      </trkpt>
      <trkpt lat="46.793" lon="5.43228">
        <ele>222.9</ele>
        <time>2022-05-08T13:24:10Z</time>
      </trkpt>
      <trkpt lat="46.79296" lon="5.43233">
        <ele>222.6</ele>
        <time>2022-05-08T13:24:14Z</time>
      </trkpt>
      <trkpt lat="46.79293" lon="5.43237">
        <ele>221.9</ele>
        <time>2022-05-08T13:24:18Z</time>
      </trkpt>
      <trkpt lat="46.79289" lon="5.43242">
        <ele>220.9</ele>
        <time>2022-05-08T13:24:22Z</time>
      </trkpt>
      <trkpt lat="46.79286" lon="5.43248">
        <ele>219.8</ele>
        <time>2022-05-08T13:24:27Z</time>
      </trkpt>
      <trkpt lat="46.79282" lon="5.43251">
        <ele>218.9</ele>
        <time>2022-05-08T13:24:34Z</time>
      </trkpt>
      <trkpt lat="46.79278" lon="5.43256">
        <ele>218.1</ele>
        <time>2022-05-08T13:24:39Z</time>
      </trkpt>
      <trkpt lat="46.79275" lon="5.43261">
        <ele>217.5</ele>
        <time>2022-05-08T13:24:43Z</time>
      </trkpt>
      <trkpt lat="46.79271" lon="5.43266">
        <ele>216.6</ele>
        <time>2022-05-08T13:24:48Z</time>
      </trkpt>
      <trkpt lat="46.79266" lon="5.4327">
        <ele>215.6</ele>
        <time>2022-05-08T13:24:53Z</time>
      </trkpt>
      <trkpt lat="46.79262" lon="5.43274">
        <ele>213.9</ele>
        <time>2022-05-08T13:24:59Z</time>
      </trkpt>
      <trkpt lat="46.79258" lon="5.43278">
        <ele>212.2</ele>
        <time>2022-05-08T13:25:04Z</time>
      </trkpt>
      <trkpt lat="46.79254" lon="5.43281">
        <ele>211</ele>
        <time>2022-05-08T13:25:09Z</time>
      </trkpt>
      <trkpt lat="46.7925" lon="5.43285">
        <ele>210.4</ele>
        <time>2022-05-08T13:25:13Z</time>
      </trkpt>
      <trkpt lat="46.79245" lon="5.43287">
        <ele>210.1</ele>
        <time>2022-05-08T13:25:18Z</time>
      </trkpt>
      <trkpt lat="46.7924" lon="5.43288">
        <ele>210.5</ele>
        <time>2022-05-08T13:25:24Z</time>
      </trkpt>
      <trkpt lat="46.79235" lon="5.43288">
        <ele>210.5</ele>
        <time>2022-05-08T13:25:29Z</time>
      </trkpt>
      <trkpt lat="46.7923" lon="5.43288">
        <ele>210.8</ele>
        <time>2022-05-08T13:25:34Z</time>
      </trkpt>
      <trkpt lat="46.79225" lon="5.43286">
        <ele>211.2</ele>
        <time>2022-05-08T13:25:53Z</time>
      </trkpt>
      <trkpt lat="46.79221" lon="5.43285">
        <ele>210.2</ele>
        <time>2022-05-08T13:26:00Z</time>
      </trkpt>
      <trkpt lat="46.79216" lon="5.43286">
        <ele>209.2</ele>
        <time>2022-05-08T13:26:04Z</time>
      </trkpt>
      <trkpt lat="46.79211" lon="5.43286">
        <ele>207.8</ele>
        <time>2022-05-08T13:26:08Z</time>
      </trkpt>
      <trkpt lat="46.79207" lon="5.43285">
        <ele>206.5</ele>
        <time>2022-05-08T13:26:12Z</time>
      </trkpt>
      <trkpt lat="46.79202" lon="5.43285">
        <ele>204.7</ele>
        <time>2022-05-08T13:26:18Z</time>
      </trkpt>
      <trkpt lat="46.79196" lon="5.43287">
        <ele>202.7</ele>
        <time>2022-05-08T13:26:24Z</time>
      </trkpt>
      <trkpt lat="46.79192" lon="5.43287">
        <ele>201.8</ele>
        <time>2022-05-08T13:26:28Z</time>
      </trkpt>
      <trkpt lat="46.79187" lon="5.43287">
        <ele>201.7</ele>
        <time>2022-05-08T13:26:32Z</time>
      </trkpt>
      <trkpt lat="46.79182" lon="5.43286">
        <ele>201.9</ele>
        <time>2022-05-08T13:26:36Z</time>
      </trkpt>
      <trkpt lat="46.79177" lon="5.43286">
        <ele>201.9</ele>
        <time>2022-05-08T13:26:40Z</time>
      </trkpt>
      <trkpt lat="46.79172" lon="5.43287">
        <ele>201.5</ele>
        <time>2022-05-08T13:26:44Z</time>
      </trkpt>
      <trkpt lat="46.79167" lon="5.43287">
        <ele>201.3</ele>
        <time>2022-05-08T13:26:48Z</time>
      </trkpt>
      <trkpt lat="46.79162" lon="5.43286">
        <ele>201.9</ele>
        <time>2022-05-08T13:26:52Z</time>
      </trkpt>
      <trkpt lat="46.79157" lon="5.43288">
        <ele>202.9</ele>
        <time>2022-05-08T13:26:56Z</time>
      </trkpt>
      <trkpt lat="46.79152" lon="5.43291">
        <ele>203.7</ele>
        <time>2022-05-08T13:27:00Z</time>
      </trkpt>
      <trkpt lat="46.79147" lon="5.43292">
        <ele>204.8</ele>
        <time>2022-05-08T13:27:04Z</time>
      </trkpt>
      <trkpt lat="46.79141" lon="5.43293">
        <ele>205.9</ele>
        <time>2022-05-08T13:27:08Z</time>
      </trkpt>
      <trkpt lat="46.79136" lon="5.43295">
        <ele>207.3</ele>
        <time>2022-05-08T13:27:12Z</time>
      </trkpt>
      <trkpt lat="46.79132" lon="5.43297">
        <ele>208.6</ele>
        <time>2022-05-08T13:27:16Z</time>
      </trkpt>
      <trkpt lat="46.79127" lon="5.43299">
        <ele>209.5</ele>
        <time>2022-05-08T13:27:20Z</time>
      </trkpt>
      <trkpt lat="46.79122" lon="5.43301">
        <ele>210.2</ele>
        <time>2022-05-08T13:27:24Z</time>
      </trkpt>
      <trkpt lat="46.79117" lon="5.43303">
        <ele>210.4</ele>
        <time>2022-05-08T13:27:28Z</time>
      </trkpt>
      <trkpt lat="46.79113" lon="5.43305">
        <ele>210.7</ele>
        <time>2022-05-08T13:27:32Z</time>
      </trkpt>
      <trkpt lat="46.79108" lon="5.43306">
        <ele>211.1</ele>
        <time>2022-05-08T13:27:36Z</time>
      </trkpt>
      <trkpt lat="46.79103" lon="5.43309">
        <ele>211.6</ele>
        <time>2022-05-08T13:27:40Z</time>
      </trkpt>
      <trkpt lat="46.79098" lon="5.43311">
        <ele>211.8</ele>
        <time>2022-05-08T13:27:45Z</time>
      </trkpt>
      <trkpt lat="46.79093" lon="5.43313">
        <ele>211.2</ele>
        <time>2022-05-08T13:27:50Z</time>
      </trkpt>
      <trkpt lat="46.79089" lon="5.43314">
        <ele>210.4</ele>
        <time>2022-05-08T13:27:54Z</time>
      </trkpt>
      <trkpt lat="46.79084" lon="5.43316">
        <ele>209.4</ele>
        <time>2022-05-08T13:27:58Z</time>
      </trkpt>
      <trkpt lat="46.79079" lon="5.43319">
        <ele>208.6</ele>
        <time>2022-05-08T13:28:03Z</time>
      </trkpt>
      <trkpt lat="46.79075" lon="5.43322">
        <ele>208.1</ele>
        <time>2022-05-08T13:28:07Z</time>
      </trkpt>
      <trkpt lat="46.7907" lon="5.43325">
        <ele>207.8</ele>
        <time>2022-05-08T13:28:11Z</time>
      </trkpt>
      <trkpt lat="46.79065" lon="5.43328">
        <ele>208.5</ele>
        <time>2022-05-08T13:28:15Z</time>
      </trkpt>
      <trkpt lat="46.7906" lon="5.43332">
        <ele>209.6</ele>
        <time>2022-05-08T13:28:20Z</time>
      </trkpt>
      <trkpt lat="46.79055" lon="5.43337">
        <ele>210.5</ele>
        <time>2022-05-08T13:28:24Z</time>
      </trkpt>
      <trkpt lat="46.79052" lon="5.43342">
        <ele>211.2</ele>
        <time>2022-05-08T13:28:28Z</time>
      </trkpt>
      <trkpt lat="46.79049" lon="5.43349">
        <ele>212.2</ele>
        <time>2022-05-08T13:28:32Z</time>
      </trkpt>
      <trkpt lat="46.79047" lon="5.43355">
        <ele>213.7</ele>
        <time>2022-05-08T13:28:36Z</time>
      </trkpt>
      <trkpt lat="46.79045" lon="5.43361">
        <ele>215</ele>
        <time>2022-05-08T13:28:40Z</time>
      </trkpt>
      <trkpt lat="46.79045" lon="5.43368">
        <ele>216.4</ele>
        <time>2022-05-08T13:28:44Z</time>
      </trkpt>
      <trkpt lat="46.79044" lon="5.43375">
        <ele>217.5</ele>
        <time>2022-05-08T13:28:48Z</time>
      </trkpt>
      <trkpt lat="46.79045" lon="5.43381">
        <ele>218.2</ele>
        <time>2022-05-08T13:28:52Z</time>
      </trkpt>
      <trkpt lat="46.79045" lon="5.43388">
        <ele>218.8</ele>
        <time>2022-05-08T13:28:56Z</time>
      </trkpt>
      <trkpt lat="46.79045" lon="5.43395">
        <ele>219.4</ele>
        <time>2022-05-08T13:29:00Z</time>
      </trkpt>
      <trkpt lat="46.79045" lon="5.43403">
        <ele>220.1</ele>
        <time>2022-05-08T13:29:05Z</time>
      </trkpt>
      <trkpt lat="46.79045" lon="5.4341">
        <ele>220.9</ele>
        <time>2022-05-08T13:29:09Z</time>
      </trkpt>
      <trkpt lat="46.79046" lon="5.43416">
        <ele>222.3</ele>
        <time>2022-05-08T13:29:13Z</time>
      </trkpt>
      <trkpt lat="46.79046" lon="5.43423">
        <ele>223.4</ele>
        <time>2022-05-08T13:29:17Z</time>
      </trkpt>
      <trkpt lat="46.79047" lon="5.4343">
        <ele>224.3</ele>
        <time>2022-05-08T13:29:21Z</time>
      </trkpt>
      <trkpt lat="46.79047" lon="5.43437">
        <ele>224.5</ele>
        <time>2022-05-08T13:29:25Z</time>
      </trkpt>
      <trkpt lat="46.79046" lon="5.43443">
        <ele>224.9</ele>
        <time>2022-05-08T13:29:29Z</time>
      </trkpt>
      <trkpt lat="46.79047" lon="5.43451">
        <ele>225</ele>
        <time>2022-05-08T13:29:34Z</time>
      </trkpt>
      <trkpt lat="46.79047" lon="5.43457">
        <ele>225</ele>
        <time>2022-05-08T13:29:38Z</time>
      </trkpt>
      <trkpt lat="46.79048" lon="5.43464">
        <ele>225.4</ele>
        <time>2022-05-08T13:29:42Z</time>
      </trkpt>
      <trkpt lat="46.79049" lon="5.43472">
        <ele>226</ele>
        <time>2022-05-08T13:29:47Z</time>
      </trkpt>
      <trkpt lat="46.79048" lon="5.43479">
        <ele>225.7</ele>
        <time>2022-05-08T13:29:51Z</time>
      </trkpt>
      <trkpt lat="46.79048" lon="5.43486">
        <ele>225.8</ele>
        <time>2022-05-08T13:29:55Z</time>
      </trkpt>
      <trkpt lat="46.79047" lon="5.43494">
        <ele>226.4</ele>
        <time>2022-05-08T13:30:00Z</time>
      </trkpt>
      <trkpt lat="46.79048" lon="5.435">
        <ele>226.5</ele>
        <time>2022-05-08T13:30:04Z</time>
      </trkpt>
      <trkpt lat="46.79048" lon="5.43508">
        <ele>226.5</ele>
        <time>2022-05-08T13:30:08Z</time>
      </trkpt>
      <trkpt lat="46.79048" lon="5.43515">
        <ele>226.5</ele>
        <time>2022-05-08T13:30:12Z</time>
      </trkpt>
      <trkpt lat="46.79049" lon="5.43522">
        <ele>226.7</ele>
        <time>2022-05-08T13:30:17Z</time>
      </trkpt>
      <trkpt lat="46.79049" lon="5.43529">
        <ele>226.6</ele>
        <time>2022-05-08T13:30:21Z</time>
      </trkpt>
      <trkpt lat="46.7905" lon="5.43538">
        <ele>226.2</ele>
        <time>2022-05-08T13:30:26Z</time>
      </trkpt>
      <trkpt lat="46.7905" lon="5.43545">
        <ele>226.2</ele>
        <time>2022-05-08T13:30:31Z</time>
      </trkpt>
      <trkpt lat="46.7905" lon="5.43553">
        <ele>226.6</ele>
        <time>2022-05-08T13:30:36Z</time>
      </trkpt>
      <trkpt lat="46.7905" lon="5.43561">
        <ele>227.2</ele>
        <time>2022-05-08T13:30:41Z</time>
      </trkpt>
      <trkpt lat="46.7905" lon="5.43567">
        <ele>227.6</ele>
        <time>2022-05-08T13:30:45Z</time>
      </trkpt>
      <trkpt lat="46.79049" lon="5.43575">
        <ele>228.2</ele>
        <time>2022-05-08T13:30:49Z</time>
      </trkpt>
      <trkpt lat="46.79049" lon="5.43581">
        <ele>228.8</ele>
        <time>2022-05-08T13:30:53Z</time>
      </trkpt>
      <trkpt lat="46.79048" lon="5.43588">
        <ele>228.7</ele>
        <time>2022-05-08T13:30:57Z</time>
      </trkpt>
      <trkpt lat="46.79047" lon="5.43595">
        <ele>228.3</ele>
        <time>2022-05-08T13:31:01Z</time>
      </trkpt>
      <trkpt lat="46.79046" lon="5.43602">
        <ele>227.8</ele>
        <time>2022-05-08T13:31:05Z</time>
      </trkpt>
      <trkpt lat="46.79045" lon="5.43608">
        <ele>227.6</ele>
        <time>2022-05-08T13:31:09Z</time>
      </trkpt>
      <trkpt lat="46.79044" lon="5.43615">
        <ele>227.9</ele>
        <time>2022-05-08T13:31:13Z</time>
      </trkpt>
      <trkpt lat="46.79043" lon="5.43622">
        <ele>228.1</ele>
        <time>2022-05-08T13:31:17Z</time>
      </trkpt>
      <trkpt lat="46.79041" lon="5.43629">
        <ele>227.8</ele>
        <time>2022-05-08T13:31:22Z</time>
      </trkpt>
      <trkpt lat="46.7904" lon="5.43637">
        <ele>227.9</ele>
        <time>2022-05-08T13:31:27Z</time>
      </trkpt>
      <trkpt lat="46.79039" lon="5.43645">
        <ele>227.1</ele>
        <time>2022-05-08T13:31:32Z</time>
      </trkpt>
      <trkpt lat="46.79038" lon="5.43651">
        <ele>225.6</ele>
        <time>2022-05-08T13:31:37Z</time>
      </trkpt>
      <trkpt lat="46.79036" lon="5.43658">
        <ele>224.3</ele>
        <time>2022-05-08T13:31:43Z</time>
      </trkpt>
      <trkpt lat="46.79034" lon="5.43664">
        <ele>224.1</ele>
        <time>2022-05-08T13:31:48Z</time>
      </trkpt>
      <trkpt lat="46.79032" lon="5.4367">
        <ele>224.3</ele>
        <time>2022-05-08T13:31:53Z</time>
      </trkpt>
      <trkpt lat="46.79029" lon="5.43677">
        <ele>225</ele>
        <time>2022-05-08T13:31:58Z</time>
      </trkpt>
      <trkpt lat="46.79027" lon="5.43683">
        <ele>225.4</ele>
        <time>2022-05-08T13:32:02Z</time>
      </trkpt>
      <trkpt lat="46.79025" lon="5.4369">
        <ele>224.8</ele>
        <time>2022-05-08T13:32:07Z</time>
      </trkpt>
      <trkpt lat="46.79021" lon="5.43695">
        <ele>225</ele>
        <time>2022-05-08T13:32:11Z</time>
      </trkpt>
      <trkpt lat="46.79018" lon="5.43702">
        <ele>225.4</ele>
        <time>2022-05-08T13:32:15Z</time>
      </trkpt>
      <trkpt lat="46.79015" lon="5.43707">
        <ele>226.1</ele>
        <time>2022-05-08T13:32:19Z</time>
      </trkpt>
      <trkpt lat="46.79012" lon="5.43713">
        <ele>226.8</ele>
        <time>2022-05-08T13:32:23Z</time>
      </trkpt>
      <trkpt lat="46.79009" lon="5.43719">
        <ele>227.1</ele>
        <time>2022-05-08T13:32:27Z</time>
      </trkpt>
      <trkpt lat="46.79007" lon="5.43725">
        <ele>226.8</ele>
        <time>2022-05-08T13:32:31Z</time>
      </trkpt>
      <trkpt lat="46.79005" lon="5.43732">
        <ele>225.5</ele>
        <time>2022-05-08T13:32:36Z</time>
      </trkpt>
      <trkpt lat="46.79002" lon="5.43738">
        <ele>223.1</ele>
        <time>2022-05-08T13:32:41Z</time>
      </trkpt>
      <trkpt lat="46.79" lon="5.43745">
        <ele>221.7</ele>
        <time>2022-05-08T13:32:45Z</time>
      </trkpt>
      <trkpt lat="46.78997" lon="5.43751">
        <ele>220.7</ele>
        <time>2022-05-08T13:32:50Z</time>
      </trkpt>
      <trkpt lat="46.78994" lon="5.43757">
        <ele>220.4</ele>
        <time>2022-05-08T13:32:54Z</time>
      </trkpt>
      <trkpt lat="46.78992" lon="5.43764">
        <ele>220.4</ele>
        <time>2022-05-08T13:32:58Z</time>
      </trkpt>
      <trkpt lat="46.78991" lon="5.4377">
        <ele>220.4</ele>
        <time>2022-05-08T13:33:02Z</time>
      </trkpt>
      <trkpt lat="46.7899" lon="5.43777">
        <ele>220.4</ele>
        <time>2022-05-08T13:33:07Z</time>
      </trkpt>
      <trkpt lat="46.78988" lon="5.43784">
        <ele>220.8</ele>
        <time>2022-05-08T13:33:12Z</time>
      </trkpt>
      <trkpt lat="46.78986" lon="5.4379">
        <ele>221.3</ele>
        <time>2022-05-08T13:33:16Z</time>
      </trkpt>
      <trkpt lat="46.78985" lon="5.43797">
        <ele>221.7</ele>
        <time>2022-05-08T13:33:20Z</time>
      </trkpt>
      <trkpt lat="46.78984" lon="5.43805">
        <ele>221.7</ele>
        <time>2022-05-08T13:33:24Z</time>
      </trkpt>
      <trkpt lat="46.78982" lon="5.43811">
        <ele>221.6</ele>
        <time>2022-05-08T13:33:28Z</time>
      </trkpt>
      <trkpt lat="46.7898" lon="5.43818">
        <ele>221.7</ele>
        <time>2022-05-08T13:33:32Z</time>
      </trkpt>
      <trkpt lat="46.78978" lon="5.43824">
        <ele>221.9</ele>
        <time>2022-05-08T13:33:36Z</time>
      </trkpt>
      <trkpt lat="46.78975" lon="5.43831">
        <ele>222.9</ele>
        <time>2022-05-08T13:33:40Z</time>
      </trkpt>
      <trkpt lat="46.78973" lon="5.43838">
        <ele>224.3</ele>
        <time>2022-05-08T13:33:45Z</time>
      </trkpt>
      <trkpt lat="46.78971" lon="5.43844">
        <ele>225.7</ele>
        <time>2022-05-08T13:33:51Z</time>
      </trkpt>
      <trkpt lat="46.78972" lon="5.43851">
        <ele>226.1</ele>
        <time>2022-05-08T13:33:58Z</time>
      </trkpt>
      <trkpt lat="46.78976" lon="5.43855">
        <ele>223.6</ele>
        <time>2022-05-08T13:34:07Z</time>
      </trkpt>
      <trkpt lat="46.7898" lon="5.43855">
        <ele>223.3</ele>
        <time>2022-05-08T13:34:13Z</time>
      </trkpt>
      <trkpt lat="46.78985" lon="5.43854">
        <ele>223.1</ele>
        <time>2022-05-08T13:34:19Z</time>
      </trkpt>
      <trkpt lat="46.7899" lon="5.43851">
        <ele>223</ele>
        <time>2022-05-08T13:34:25Z</time>
      </trkpt>
      <trkpt lat="46.78994" lon="5.43849">
        <ele>223.1</ele>
        <time>2022-05-08T13:34:29Z</time>
      </trkpt>
      <trkpt lat="46.79" lon="5.43847">
        <ele>222.9</ele>
        <time>2022-05-08T13:34:34Z</time>
      </trkpt>
      <trkpt lat="46.79004" lon="5.43847">
        <ele>221.9</ele>
        <time>2022-05-08T13:34:39Z</time>
      </trkpt>
      <trkpt lat="46.79009" lon="5.43846">
        <ele>221.9</ele>
        <time>2022-05-08T13:34:45Z</time>
      </trkpt>
      <trkpt lat="46.79014" lon="5.43847">
        <ele>221.6</ele>
        <time>2022-05-08T13:34:49Z</time>
      </trkpt>
      <trkpt lat="46.79019" lon="5.43846">
        <ele>221.5</ele>
        <time>2022-05-08T13:34:54Z</time>
      </trkpt>
      <trkpt lat="46.79024" lon="5.43846">
        <ele>220.4</ele>
        <time>2022-05-08T13:35:01Z</time>
      </trkpt>
      <trkpt lat="46.79029" lon="5.43844">
        <ele>220.1</ele>
        <time>2022-05-08T13:35:05Z</time>
      </trkpt>
      <trkpt lat="46.79033" lon="5.43841">
        <ele>220.7</ele>
        <time>2022-05-08T13:35:11Z</time>
      </trkpt>
      <trkpt lat="46.79039" lon="5.43843">
        <ele>221.2</ele>
        <time>2022-05-08T13:35:16Z</time>
      </trkpt>
      <trkpt lat="46.79044" lon="5.43844">
        <ele>221.3</ele>
        <time>2022-05-08T13:35:20Z</time>
      </trkpt>
      <trkpt lat="46.79048" lon="5.43843">
        <ele>221.2</ele>
        <time>2022-05-08T13:35:25Z</time>
      </trkpt>
      <trkpt lat="46.79053" lon="5.43841">
        <ele>220.4</ele>
        <time>2022-05-08T13:35:30Z</time>
      </trkpt>
      <trkpt lat="46.79058" lon="5.43837">
        <ele>219.4</ele>
        <time>2022-05-08T13:35:34Z</time>
      </trkpt>
      <trkpt lat="46.79063" lon="5.43835">
        <ele>218.8</ele>
        <time>2022-05-08T13:35:37Z</time>
      </trkpt>
      <trkpt lat="46.79068" lon="5.43833">
        <ele>217.8</ele>
        <time>2022-05-08T13:35:41Z</time>
      </trkpt>
      <trkpt lat="46.79073" lon="5.43831">
        <ele>217.1</ele>
        <time>2022-05-08T13:35:45Z</time>
      </trkpt>
      <trkpt lat="46.79077" lon="5.4383">
        <ele>216.5</ele>
        <time>2022-05-08T13:35:49Z</time>
      </trkpt>
      <trkpt lat="46.79083" lon="5.43829">
        <ele>216.1</ele>
        <time>2022-05-08T13:35:53Z</time>
      </trkpt>
      <trkpt lat="46.79088" lon="5.43829">
        <ele>216</ele>
        <time>2022-05-08T13:35:57Z</time>
      </trkpt>
      <trkpt lat="46.79093" lon="5.43827">
        <ele>215.7</ele>
        <time>2022-05-08T13:36:02Z</time>
      </trkpt>
      <trkpt lat="46.79099" lon="5.43825">
        <ele>215.9</ele>
        <time>2022-05-08T13:36:06Z</time>
      </trkpt>
      <trkpt lat="46.79103" lon="5.43824">
        <ele>216.1</ele>
        <time>2022-05-08T13:36:10Z</time>
      </trkpt>
      <trkpt lat="46.79108" lon="5.43824">
        <ele>216.2</ele>
        <time>2022-05-08T13:36:14Z</time>
      </trkpt>
      <trkpt lat="46.79114" lon="5.43823">
        <ele>216.3</ele>
        <time>2022-05-08T13:36:18Z</time>
      </trkpt>
      <trkpt lat="46.79119" lon="5.43822">
        <ele>216</ele>
        <time>2022-05-08T13:36:22Z</time>
      </trkpt>
      <trkpt lat="46.79123" lon="5.4382">
        <ele>215.2</ele>
        <time>2022-05-08T13:36:27Z</time>
      </trkpt>
      <trkpt lat="46.79128" lon="5.43819">
        <ele>214.6</ele>
        <time>2022-05-08T13:36:31Z</time>
      </trkpt>
      <trkpt lat="46.79132" lon="5.43818">
        <ele>214.4</ele>
        <time>2022-05-08T13:36:35Z</time>
      </trkpt>
      <trkpt lat="46.79137" lon="5.43817">
        <ele>214.4</ele>
        <time>2022-05-08T13:36:39Z</time>
      </trkpt>
      <trkpt lat="46.79142" lon="5.43818">
        <ele>214</ele>
        <time>2022-05-08T13:36:44Z</time>
      </trkpt>
      <trkpt lat="46.79147" lon="5.4382">
        <ele>213.4</ele>
        <time>2022-05-08T13:36:48Z</time>
      </trkpt>
      <trkpt lat="46.79151" lon="5.43821">
        <ele>212.8</ele>
        <time>2022-05-08T13:36:52Z</time>
      </trkpt>
      <trkpt lat="46.79156" lon="5.43822">
        <ele>212.4</ele>
        <time>2022-05-08T13:36:56Z</time>
      </trkpt>
      <trkpt lat="46.79161" lon="5.43824">
        <ele>212.4</ele>
        <time>2022-05-08T13:36:59Z</time>
      </trkpt>
      <trkpt lat="46.79165" lon="5.43826">
        <ele>212.4</ele>
        <time>2022-05-08T13:37:02Z</time>
      </trkpt>
      <trkpt lat="46.79171" lon="5.43827">
        <ele>212.6</ele>
        <time>2022-05-08T13:37:06Z</time>
      </trkpt>
      <trkpt lat="46.79176" lon="5.43828">
        <ele>213.2</ele>
        <time>2022-05-08T13:37:11Z</time>
      </trkpt>
      <trkpt lat="46.79181" lon="5.43828">
        <ele>213.9</ele>
        <time>2022-05-08T13:37:16Z</time>
      </trkpt>
      <trkpt lat="46.79185" lon="5.43827">
        <ele>214.4</ele>
        <time>2022-05-08T13:37:21Z</time>
      </trkpt>
      <trkpt lat="46.79191" lon="5.43828">
        <ele>215.3</ele>
        <time>2022-05-08T13:37:27Z</time>
      </trkpt>
      <trkpt lat="46.79195" lon="5.43832">
        <ele>216</ele>
        <time>2022-05-08T13:37:34Z</time>
      </trkpt>
      <trkpt lat="46.792" lon="5.43834">
        <ele>215.9</ele>
        <time>2022-05-08T13:37:40Z</time>
      </trkpt>
      <trkpt lat="46.79204" lon="5.43838">
        <ele>216.2</ele>
        <time>2022-05-08T13:37:44Z</time>
      </trkpt>
      <trkpt lat="46.79208" lon="5.43842">
        <ele>216.2</ele>
        <time>2022-05-08T13:37:50Z</time>
      </trkpt>
      <trkpt lat="46.79213" lon="5.43844">
        <ele>215.8</ele>
        <time>2022-05-08T13:37:56Z</time>
      </trkpt>
      <trkpt lat="46.79218" lon="5.43845">
        <ele>215.1</ele>
        <time>2022-05-08T13:38:01Z</time>
      </trkpt>
      <trkpt lat="46.79223" lon="5.43845">
        <ele>217.4</ele>
        <time>2022-05-08T13:38:07Z</time>
      </trkpt>
      <trkpt lat="46.79229" lon="5.43845">
        <ele>219.2</ele>
        <time>2022-05-08T13:38:11Z</time>
      </trkpt>
      <trkpt lat="46.79234" lon="5.43846">
        <ele>220.4</ele>
        <time>2022-05-08T13:38:15Z</time>
      </trkpt>
      <trkpt lat="46.79239" lon="5.43847">
        <ele>221.1</ele>
        <time>2022-05-08T13:38:19Z</time>
      </trkpt>
      <trkpt lat="46.79244" lon="5.4385">
        <ele>221.3</ele>
        <time>2022-05-08T13:38:23Z</time>
      </trkpt>
      <trkpt lat="46.79249" lon="5.43852">
        <ele>221.6</ele>
        <time>2022-05-08T13:38:27Z</time>
      </trkpt>
      <trkpt lat="46.79253" lon="5.43855">
        <ele>221.8</ele>
        <time>2022-05-08T13:38:32Z</time>
      </trkpt>
      <trkpt lat="46.79257" lon="5.4386">
        <ele>221.3</ele>
        <time>2022-05-08T13:38:39Z</time>
      </trkpt>
      <trkpt lat="46.79261" lon="5.43863">
        <ele>220.7</ele>
        <time>2022-05-08T13:38:45Z</time>
      </trkpt>
      <trkpt lat="46.79266" lon="5.43865">
        <ele>221.1</ele>
        <time>2022-05-08T13:38:49Z</time>
      </trkpt>
      <trkpt lat="46.79271" lon="5.43868">
        <ele>221.9</ele>
        <time>2022-05-08T13:38:53Z</time>
      </trkpt>
      <trkpt lat="46.79275" lon="5.43871">
        <ele>222.7</ele>
        <time>2022-05-08T13:38:57Z</time>
      </trkpt>
      <trkpt lat="46.79278" lon="5.43876">
        <ele>223.4</ele>
        <time>2022-05-08T13:39:10Z</time>
      </trkpt>
      <trkpt lat="46.79282" lon="5.4388">
        <ele>222.4</ele>
        <time>2022-05-08T13:39:17Z</time>
      </trkpt>
      <trkpt lat="46.79286" lon="5.43885">
        <ele>221.3</ele>
        <time>2022-05-08T13:39:21Z</time>
      </trkpt>
      <trkpt lat="46.7929" lon="5.4389">
        <ele>219.5</ele>
        <time>2022-05-08T13:39:26Z</time>
      </trkpt>
      <trkpt lat="46.79294" lon="5.43893">
        <ele>217.2</ele>
        <time>2022-05-08T13:39:31Z</time>
      </trkpt>
      <trkpt lat="46.79299" lon="5.43892">
        <ele>215.7</ele>
        <time>2022-05-08T13:39:35Z</time>
      </trkpt>
      <trkpt lat="46.79304" lon="5.43892">
        <ele>214.4</ele>
        <time>2022-05-08T13:39:40Z</time>
      </trkpt>
      <trkpt lat="46.79309" lon="5.43895">
        <ele>213.7</ele>
        <time>2022-05-08T13:39:46Z</time>
      </trkpt>
      <trkpt lat="46.79314" lon="5.43897">
        <ele>213.5</ele>
        <time>2022-05-08T13:39:50Z</time>
      </trkpt>
      <trkpt lat="46.79318" lon="5.43901">
        <ele>213.7</ele>
        <time>2022-05-08T13:39:54Z</time>
      </trkpt>
      <trkpt lat="46.79322" lon="5.43906">
        <ele>214</ele>
        <time>2022-05-08T13:39:58Z</time>
      </trkpt>
      <trkpt lat="46.79325" lon="5.4391">
        <ele>214.8</ele>
        <time>2022-05-08T13:40:02Z</time>
      </trkpt>
      <trkpt lat="46.7933" lon="5.43914">
        <ele>215.8</ele>
        <time>2022-05-08T13:40:08Z</time>
      </trkpt>
      <trkpt lat="46.79333" lon="5.43919">
        <ele>216.4</ele>
        <time>2022-05-08T13:40:13Z</time>
      </trkpt>
      <trkpt lat="46.79338" lon="5.43923">
        <ele>216.9</ele>
        <time>2022-05-08T13:40:17Z</time>
      </trkpt>
      <trkpt lat="46.79342" lon="5.43928">
        <ele>217.3</ele>
        <time>2022-05-08T13:40:21Z</time>
      </trkpt>
      <trkpt lat="46.79343" lon="5.43934">
        <ele>217.1</ele>
        <time>2022-05-08T13:40:25Z</time>
      </trkpt>
      <trkpt lat="46.79347" lon="5.43939">
        <ele>216.7</ele>
        <time>2022-05-08T13:40:29Z</time>
      </trkpt>
      <trkpt lat="46.79351" lon="5.43944">
        <ele>216.3</ele>
        <time>2022-05-08T13:40:34Z</time>
      </trkpt>
      <trkpt lat="46.79355" lon="5.43947">
        <ele>216.1</ele>
        <time>2022-05-08T13:40:39Z</time>
      </trkpt>
      <trkpt lat="46.7936" lon="5.43951">
        <ele>216.3</ele>
        <time>2022-05-08T13:40:44Z</time>
      </trkpt>
      <trkpt lat="46.79365" lon="5.43954">
        <ele>217</ele>
        <time>2022-05-08T13:40:49Z</time>
      </trkpt>
      <trkpt lat="46.79369" lon="5.43958">
        <ele>217.5</ele>
        <time>2022-05-08T13:40:53Z</time>
      </trkpt>
      <trkpt lat="46.79371" lon="5.43964">
        <ele>218</ele>
        <time>2022-05-08T13:40:58Z</time>
      </trkpt>
      <trkpt lat="46.79373" lon="5.4397">
        <ele>219</ele>
        <time>2022-05-08T13:41:05Z</time>
      </trkpt>
      <trkpt lat="46.79377" lon="5.43974">
        <ele>220.5</ele>
        <time>2022-05-08T13:41:11Z</time>
      </trkpt>
      <trkpt lat="46.7938" lon="5.4398">
        <ele>221.8</ele>
        <time>2022-05-08T13:41:17Z</time>
      </trkpt>
      <trkpt lat="46.79384" lon="5.43985">
        <ele>222.7</ele>
        <time>2022-05-08T13:41:22Z</time>
      </trkpt>
      <trkpt lat="46.79388" lon="5.43989">
        <ele>223.3</ele>
        <time>2022-05-08T13:41:27Z</time>
      </trkpt>
      <trkpt lat="46.79392" lon="5.43992">
        <ele>223.5</ele>
        <time>2022-05-08T13:41:32Z</time>
      </trkpt>
      <trkpt lat="46.79396" lon="5.43996">
        <ele>224.2</ele>
        <time>2022-05-08T13:41:39Z</time>
      </trkpt>
      <trkpt lat="46.794" lon="5.43999">
        <ele>225.4</ele>
        <time>2022-05-08T13:41:44Z</time>
      </trkpt>
      <trkpt lat="46.79404" lon="5.44005">
        <ele>226.1</ele>
        <time>2022-05-08T13:41:49Z</time>
      </trkpt>
      <trkpt lat="46.79408" lon="5.44011">
        <ele>226.1</ele>
        <time>2022-05-08T13:41:53Z</time>
      </trkpt>
      <trkpt lat="46.79413" lon="5.44015">
        <ele>225.7</ele>
        <time>2022-05-08T13:41:57Z</time>
      </trkpt>
      <trkpt lat="46.79418" lon="5.4402">
        <ele>225.1</ele>
        <time>2022-05-08T13:42:01Z</time>
      </trkpt>
      <trkpt lat="46.79423" lon="5.44024">
        <ele>224.6</ele>
        <time>2022-05-08T13:42:05Z</time>
      </trkpt>
      <trkpt lat="46.79427" lon="5.44029">
        <ele>224.5</ele>
        <time>2022-05-08T13:42:10Z</time>
      </trkpt>
      <trkpt lat="46.79431" lon="5.44032">
        <ele>225</ele>
        <time>2022-05-08T13:42:16Z</time>
      </trkpt>
      <trkpt lat="46.79435" lon="5.44036">
        <ele>225.4</ele>
        <time>2022-05-08T13:42:19Z</time>
      </trkpt>
      <trkpt lat="46.79438" lon="5.44042">
        <ele>224.7</ele>
        <time>2022-05-08T13:42:23Z</time>
      </trkpt>
      <trkpt lat="46.79442" lon="5.44047">
        <ele>223.2</ele>
        <time>2022-05-08T13:42:28Z</time>
      </trkpt>
      <trkpt lat="46.79446" lon="5.4405">
        <ele>220.8</ele>
        <time>2022-05-08T13:42:33Z</time>
      </trkpt>
      <trkpt lat="46.79451" lon="5.44053">
        <ele>217.7</ele>
        <time>2022-05-08T13:42:38Z</time>
      </trkpt>
      <trkpt lat="46.79454" lon="5.44057">
        <ele>216.4</ele>
        <time>2022-05-08T13:42:43Z</time>
      </trkpt>
      <trkpt lat="46.79456" lon="5.44064">
        <ele>217</ele>
        <time>2022-05-08T13:42:49Z</time>
      </trkpt>
      <trkpt lat="46.79459" lon="5.4407">
        <ele>218.1</ele>
        <time>2022-05-08T13:42:55Z</time>
      </trkpt>
      <trkpt lat="46.79462" lon="5.44074">
        <ele>219</ele>
        <time>2022-05-08T13:43:00Z</time>
      </trkpt>
      <trkpt lat="46.79466" lon="5.4408">
        <ele>219.8</ele>
        <time>2022-05-08T13:43:06Z</time>
      </trkpt>
      <trkpt lat="46.79469" lon="5.44085">
        <ele>220.1</ele>
        <time>2022-05-08T13:43:12Z</time>
      </trkpt>
      <trkpt lat="46.79472" lon="5.44091">
        <ele>219.7</ele>
        <time>2022-05-08T13:43:19Z</time>
      </trkpt>
      <trkpt lat="46.79475" lon="5.44096">
        <ele>219.4</ele>
        <time>2022-05-08T13:43:25Z</time>
      </trkpt>
      <trkpt lat="46.79479" lon="5.441">
        <ele>219</ele>
        <time>2022-05-08T13:43:29Z</time>
      </trkpt>
      <trkpt lat="46.79483" lon="5.44104">
        <ele>218.9</ele>
        <time>2022-05-08T13:43:32Z</time>
      </trkpt>
      <trkpt lat="46.79487" lon="5.44108">
        <ele>218.9</ele>
        <time>2022-05-08T13:43:35Z</time>
      </trkpt>
      <trkpt lat="46.79492" lon="5.44114">
        <ele>218.8</ele>
        <time>2022-05-08T13:43:38Z</time>
      </trkpt>
      <trkpt lat="46.79496" lon="5.44117">
        <ele>219</ele>
        <time>2022-05-08T13:43:41Z</time>
      </trkpt>
      <trkpt lat="46.79501" lon="5.44122">
        <ele>219.1</ele>
        <time>2022-05-08T13:43:46Z</time>
      </trkpt>
      <trkpt lat="46.79504" lon="5.44127">
        <ele>219.4</ele>
        <time>2022-05-08T13:43:50Z</time>
      </trkpt>
      <trkpt lat="46.79508" lon="5.44131">
        <ele>219.9</ele>
        <time>2022-05-08T13:43:54Z</time>
      </trkpt>
      <trkpt lat="46.79512" lon="5.44135">
        <ele>220.5</ele>
        <time>2022-05-08T13:43:58Z</time>
      </trkpt>
      <trkpt lat="46.79516" lon="5.44139">
        <ele>220.9</ele>
        <time>2022-05-08T13:44:02Z</time>
      </trkpt>
      <trkpt lat="46.79516" lon="5.44146">
        <ele>221.6</ele>
        <time>2022-05-08T13:44:11Z</time>
      </trkpt>
      <trkpt lat="46.79512" lon="5.44151">
        <ele>221.8</ele>
        <time>2022-05-08T13:44:16Z</time>
      </trkpt>
      <trkpt lat="46.79517" lon="5.44153">
        <ele>223.2</ele>
        <time>2022-05-08T13:44:36Z</time>
      </trkpt>
      <trkpt lat="46.7952" lon="5.44157">
        <ele>223.4</ele>
        <time>2022-05-08T13:44:39Z</time>
      </trkpt>
      <trkpt lat="46.7952" lon="5.44165">
        <ele>223.7</ele>
        <time>2022-05-08T13:44:44Z</time>
      </trkpt>
      <trkpt lat="46.79529" lon="5.44164">
        <ele>225.9</ele>
        <time>2022-05-08T13:45:02Z</time>
      </trkpt>
      <trkpt lat="46.79533" lon="5.44158">
        <ele>226</ele>
        <time>2022-05-08T13:45:05Z</time>
      </trkpt>
      <trkpt lat="46.79532" lon="5.44152">
        <ele>224.5</ele>
        <time>2022-05-08T13:45:18Z</time>
      </trkpt>
      <trkpt lat="46.79537" lon="5.44155">
        <ele>224.1</ele>
        <time>2022-05-08T13:45:26Z</time>
      </trkpt>
      <trkpt lat="46.79541" lon="5.44158">
        <ele>224.3</ele>
        <time>2022-05-08T13:45:32Z</time>
      </trkpt>
      <trkpt lat="46.79545" lon="5.44162">
        <ele>224.4</ele>
        <time>2022-05-08T13:45:36Z</time>
      </trkpt>
      <trkpt lat="46.7955" lon="5.44167">
        <ele>224.3</ele>
        <time>2022-05-08T13:45:40Z</time>
      </trkpt>
      <trkpt lat="46.79554" lon="5.44171">
        <ele>224.4</ele>
        <time>2022-05-08T13:45:44Z</time>
      </trkpt>
      <trkpt lat="46.79558" lon="5.44176">
        <ele>224.5</ele>
        <time>2022-05-08T13:45:49Z</time>
      </trkpt>
      <trkpt lat="46.79562" lon="5.44182">
        <ele>224.6</ele>
        <time>2022-05-08T13:45:53Z</time>
      </trkpt>
      <trkpt lat="46.79564" lon="5.44188">
        <ele>225</ele>
        <time>2022-05-08T13:45:57Z</time>
      </trkpt>
      <trkpt lat="46.79567" lon="5.44195">
        <ele>226.1</ele>
        <time>2022-05-08T13:46:02Z</time>
      </trkpt>
      <trkpt lat="46.79571" lon="5.442">
        <ele>227.3</ele>
        <time>2022-05-08T13:46:07Z</time>
      </trkpt>
      <trkpt lat="46.79575" lon="5.44204">
        <ele>228.1</ele>
        <time>2022-05-08T13:46:10Z</time>
      </trkpt>
      <trkpt lat="46.7958" lon="5.44208">
        <ele>228.4</ele>
        <time>2022-05-08T13:46:14Z</time>
      </trkpt>
      <trkpt lat="46.79584" lon="5.44212">
        <ele>228.8</ele>
        <time>2022-05-08T13:46:19Z</time>
      </trkpt>
      <trkpt lat="46.79588" lon="5.44218">
        <ele>229</ele>
        <time>2022-05-08T13:46:25Z</time>
      </trkpt>
      <trkpt lat="46.79592" lon="5.44223">
        <ele>228.9</ele>
        <time>2022-05-08T13:46:30Z</time>
      </trkpt>
      <trkpt lat="46.79595" lon="5.44227">
        <ele>229</ele>
        <time>2022-05-08T13:46:35Z</time>
      </trkpt>
      <trkpt lat="46.796" lon="5.4423">
        <ele>229.2</ele>
        <time>2022-05-08T13:46:40Z</time>
      </trkpt>
      <trkpt lat="46.79604" lon="5.44236">
        <ele>229.7</ele>
        <time>2022-05-08T13:46:46Z</time>
      </trkpt>
      <trkpt lat="46.79607" lon="5.44241">
        <ele>230.2</ele>
        <time>2022-05-08T13:46:51Z</time>
      </trkpt>
      <trkpt lat="46.79611" lon="5.44245">
        <ele>230.9</ele>
        <time>2022-05-08T13:46:56Z</time>
      </trkpt>
      <trkpt lat="46.79615" lon="5.44248">
        <ele>232.5</ele>
        <time>2022-05-08T13:47:03Z</time>
      </trkpt>
      <trkpt lat="46.79619" lon="5.44251">
        <ele>234.9</ele>
        <time>2022-05-08T13:47:10Z</time>
      </trkpt>
      <trkpt lat="46.79623" lon="5.44256">
        <ele>236.1</ele>
        <time>2022-05-08T13:47:40Z</time>
      </trkpt>
      <trkpt lat="46.79625" lon="5.44263">
        <ele>235.5</ele>
        <time>2022-05-08T13:47:44Z</time>
      </trkpt>
      <trkpt lat="46.79629" lon="5.44268">
        <ele>235.7</ele>
        <time>2022-05-08T13:47:48Z</time>
      </trkpt>
      <trkpt lat="46.79633" lon="5.44271">
        <ele>236.4</ele>
        <time>2022-05-08T13:47:52Z</time>
      </trkpt>
      <trkpt lat="46.79637" lon="5.44275">
        <ele>236.7</ele>
        <time>2022-05-08T13:47:57Z</time>
      </trkpt>
      <trkpt lat="46.7964" lon="5.4428">
        <ele>236.9</ele>
        <time>2022-05-08T13:48:04Z</time>
      </trkpt>
      <trkpt lat="46.79645" lon="5.44284">
        <ele>235.7</ele>
        <time>2022-05-08T13:48:11Z</time>
      </trkpt>
      <trkpt lat="46.79648" lon="5.44288">
        <ele>234.5</ele>
        <time>2022-05-08T13:48:15Z</time>
      </trkpt>
      <trkpt lat="46.79652" lon="5.44293">
        <ele>233.5</ele>
        <time>2022-05-08T13:48:19Z</time>
      </trkpt>
      <trkpt lat="46.79655" lon="5.44299">
        <ele>232.5</ele>
        <time>2022-05-08T13:48:24Z</time>
      </trkpt>
      <trkpt lat="46.79659" lon="5.44303">
        <ele>231.9</ele>
        <time>2022-05-08T13:48:29Z</time>
      </trkpt>
      <trkpt lat="46.79663" lon="5.44307">
        <ele>231.9</ele>
        <time>2022-05-08T13:48:33Z</time>
      </trkpt>
      <trkpt lat="46.79666" lon="5.44312">
        <ele>232.2</ele>
        <time>2022-05-08T13:48:37Z</time>
      </trkpt>
      <trkpt lat="46.79671" lon="5.44316">
        <ele>232.4</ele>
        <time>2022-05-08T13:48:42Z</time>
      </trkpt>
      <trkpt lat="46.79677" lon="5.44319">
        <ele>231.9</ele>
        <time>2022-05-08T13:48:47Z</time>
      </trkpt>
      <trkpt lat="46.7968" lon="5.44324">
        <ele>231.7</ele>
        <time>2022-05-08T13:48:51Z</time>
      </trkpt>
      <trkpt lat="46.79684" lon="5.44328">
        <ele>231.4</ele>
        <time>2022-05-08T13:48:56Z</time>
      </trkpt>
      <trkpt lat="46.79687" lon="5.44334">
        <ele>231.2</ele>
        <time>2022-05-08T13:49:01Z</time>
      </trkpt>
      <trkpt lat="46.7969" lon="5.44339">
        <ele>231.1</ele>
        <time>2022-05-08T13:49:05Z</time>
      </trkpt>
      <trkpt lat="46.79693" lon="5.44344">
        <ele>231.1</ele>
        <time>2022-05-08T13:49:09Z</time>
      </trkpt>
      <trkpt lat="46.79698" lon="5.44348">
        <ele>231.2</ele>
        <time>2022-05-08T13:49:14Z</time>
      </trkpt>
      <trkpt lat="46.79703" lon="5.44351">
        <ele>231.2</ele>
        <time>2022-05-08T13:49:19Z</time>
      </trkpt>
      <trkpt lat="46.79706" lon="5.44359">
        <ele>232.2</ele>
        <time>2022-05-08T13:49:42Z</time>
      </trkpt>
      <trkpt lat="46.79706" lon="5.44366">
        <ele>233.7</ele>
        <time>2022-05-08T13:49:51Z</time>
      </trkpt>
      <trkpt lat="46.79706" lon="5.44359">
        <ele>237.1</ele>
        <time>2022-05-08T13:51:32Z</time>
      </trkpt>
      <trkpt lat="46.79705" lon="5.44352">
        <ele>234.9</ele>
        <time>2022-05-08T13:51:35Z</time>
      </trkpt>
      <trkpt lat="46.79703" lon="5.44358">
        <ele>230.6</ele>
        <time>2022-05-08T13:52:00Z</time>
      </trkpt>
      <trkpt lat="46.79708" lon="5.44359">
        <ele>231.7</ele>
        <time>2022-05-08T13:52:41Z</time>
      </trkpt>
      <trkpt lat="46.79713" lon="5.44362">
        <ele>232.1</ele>
        <time>2022-05-08T13:52:46Z</time>
      </trkpt>
      <trkpt lat="46.79718" lon="5.44365">
        <ele>232.3</ele>
        <time>2022-05-08T13:52:50Z</time>
      </trkpt>
      <trkpt lat="46.79721" lon="5.44371">
        <ele>233.4</ele>
        <time>2022-05-08T13:52:56Z</time>
      </trkpt>
      <trkpt lat="46.7972" lon="5.44379">
        <ele>234.3</ele>
        <time>2022-05-08T13:53:00Z</time>
      </trkpt>
      <trkpt lat="46.79721" lon="5.44386">
        <ele>235.1</ele>
        <time>2022-05-08T13:53:04Z</time>
      </trkpt>
      <trkpt lat="46.79722" lon="5.44395">
        <ele>235.5</ele>
        <time>2022-05-08T13:53:08Z</time>
      </trkpt>
      <trkpt lat="46.79721" lon="5.44403">
        <ele>235.8</ele>
        <time>2022-05-08T13:53:12Z</time>
      </trkpt>
      <trkpt lat="46.79722" lon="5.44411">
        <ele>236.1</ele>
        <time>2022-05-08T13:53:17Z</time>
      </trkpt>
      <trkpt lat="46.79725" lon="5.44418">
        <ele>236.4</ele>
        <time>2022-05-08T13:53:23Z</time>
      </trkpt>
      <trkpt lat="46.79725" lon="5.44426">
        <ele>236.7</ele>
        <time>2022-05-08T13:53:29Z</time>
      </trkpt>
      <trkpt lat="46.79727" lon="5.44434">
        <ele>236.4</ele>
        <time>2022-05-08T13:53:34Z</time>
      </trkpt>
      <trkpt lat="46.79727" lon="5.4444">
        <ele>235.9</ele>
        <time>2022-05-08T13:53:38Z</time>
      </trkpt>
      <trkpt lat="46.79726" lon="5.44447">
        <ele>235.3</ele>
        <time>2022-05-08T13:53:42Z</time>
      </trkpt>
      <trkpt lat="46.79725" lon="5.44454">
        <ele>234.9</ele>
        <time>2022-05-08T13:53:46Z</time>
      </trkpt>
      <trkpt lat="46.79724" lon="5.44462">
        <ele>234.7</ele>
        <time>2022-05-08T13:53:51Z</time>
      </trkpt>
      <trkpt lat="46.79722" lon="5.44468">
        <ele>233.6</ele>
        <time>2022-05-08T13:53:56Z</time>
      </trkpt>
      <trkpt lat="46.7972" lon="5.44475">
        <ele>233</ele>
        <time>2022-05-08T13:54:01Z</time>
      </trkpt>
      <trkpt lat="46.79719" lon="5.44482">
        <ele>233.1</ele>
        <time>2022-05-08T13:54:06Z</time>
      </trkpt>
      <trkpt lat="46.79719" lon="5.4449">
        <ele>233</ele>
        <time>2022-05-08T13:54:10Z</time>
      </trkpt>
      <trkpt lat="46.79719" lon="5.44497">
        <ele>232.8</ele>
        <time>2022-05-08T13:54:15Z</time>
      </trkpt>
      <trkpt lat="46.79721" lon="5.44505">
        <ele>232.5</ele>
        <time>2022-05-08T13:54:20Z</time>
      </trkpt>
      <trkpt lat="46.79722" lon="5.44512">
        <ele>232.7</ele>
        <time>2022-05-08T13:54:24Z</time>
      </trkpt>
      <trkpt lat="46.79725" lon="5.44517">
        <ele>232.9</ele>
        <time>2022-05-08T13:54:28Z</time>
      </trkpt>
      <trkpt lat="46.79727" lon="5.44524">
        <ele>233.3</ele>
        <time>2022-05-08T13:54:33Z</time>
      </trkpt>
      <trkpt lat="46.79728" lon="5.44532">
        <ele>233.4</ele>
        <time>2022-05-08T13:54:38Z</time>
      </trkpt>
      <trkpt lat="46.79727" lon="5.44539">
        <ele>233.4</ele>
        <time>2022-05-08T13:54:43Z</time>
      </trkpt>
      <trkpt lat="46.79728" lon="5.44546">
        <ele>233</ele>
        <time>2022-05-08T13:54:47Z</time>
      </trkpt>
      <trkpt lat="46.79729" lon="5.44552">
        <ele>232</ele>
        <time>2022-05-08T13:54:52Z</time>
      </trkpt>
      <trkpt lat="46.7973" lon="5.44559">
        <ele>230.6</ele>
        <time>2022-05-08T13:54:56Z</time>
      </trkpt>
      <trkpt lat="46.79729" lon="5.44566">
        <ele>229.4</ele>
        <time>2022-05-08T13:55:00Z</time>
      </trkpt>
      <trkpt lat="46.7973" lon="5.44573">
        <ele>227</ele>
        <time>2022-05-08T13:55:05Z</time>
      </trkpt>
      <trkpt lat="46.79731" lon="5.44581">
        <ele>224.2</ele>
        <time>2022-05-08T13:55:12Z</time>
      </trkpt>
      <trkpt lat="46.79731" lon="5.44588">
        <ele>222.5</ele>
        <time>2022-05-08T13:55:17Z</time>
      </trkpt>
      <trkpt lat="46.79733" lon="5.44595">
        <ele>221.1</ele>
        <time>2022-05-08T13:55:23Z</time>
      </trkpt>
      <trkpt lat="46.79735" lon="5.44602">
        <ele>219.9</ele>
        <time>2022-05-08T13:55:28Z</time>
      </trkpt>
      <trkpt lat="46.79738" lon="5.44607">
        <ele>219.2</ele>
        <time>2022-05-08T13:55:32Z</time>
      </trkpt>
      <trkpt lat="46.7974" lon="5.44614">
        <ele>218.7</ele>
        <time>2022-05-08T13:55:37Z</time>
      </trkpt>
      <trkpt lat="46.79743" lon="5.4462">
        <ele>219.2</ele>
        <time>2022-05-08T13:55:41Z</time>
      </trkpt>
      <trkpt lat="46.79747" lon="5.44626">
        <ele>220.7</ele>
        <time>2022-05-08T13:55:46Z</time>
      </trkpt>
      <trkpt lat="46.79749" lon="5.44631">
        <ele>222.6</ele>
        <time>2022-05-08T13:55:51Z</time>
      </trkpt>
      <trkpt lat="46.79753" lon="5.44636">
        <ele>225.1</ele>
        <time>2022-05-08T13:55:57Z</time>
      </trkpt>
      <trkpt lat="46.79757" lon="5.44638">
        <ele>227.2</ele>
        <time>2022-05-08T13:56:02Z</time>
      </trkpt>
      <trkpt lat="46.79762" lon="5.44635">
        <ele>228.4</ele>
        <time>2022-05-08T13:56:06Z</time>
      </trkpt>
      <trkpt lat="46.79765" lon="5.44629">
        <ele>229.3</ele>
        <time>2022-05-08T13:56:10Z</time>
      </trkpt>
      <trkpt lat="46.79768" lon="5.44622">
        <ele>229.8</ele>
        <time>2022-05-08T13:56:15Z</time>
      </trkpt>
      <trkpt lat="46.79772" lon="5.44618">
        <ele>229.3</ele>
        <time>2022-05-08T13:56:21Z</time>
      </trkpt>
      <trkpt lat="46.79777" lon="5.44615">
        <ele>228.7</ele>
        <time>2022-05-08T13:56:26Z</time>
      </trkpt>
      <trkpt lat="46.79782" lon="5.44613">
        <ele>227.6</ele>
        <time>2022-05-08T13:56:30Z</time>
      </trkpt>
      <trkpt lat="46.79787" lon="5.44613">
        <ele>226.2</ele>
        <time>2022-05-08T13:56:34Z</time>
      </trkpt>
      <trkpt lat="46.79792" lon="5.4461">
        <ele>224.4</ele>
        <time>2022-05-08T13:56:39Z</time>
      </trkpt>
      <trkpt lat="46.79796" lon="5.44607">
        <ele>223.9</ele>
        <time>2022-05-08T13:56:43Z</time>
      </trkpt>
      <trkpt lat="46.798" lon="5.44604">
        <ele>223.8</ele>
        <time>2022-05-08T13:56:48Z</time>
      </trkpt>
      <trkpt lat="46.79806" lon="5.44602">
        <ele>224.1</ele>
        <time>2022-05-08T13:56:52Z</time>
      </trkpt>
      <trkpt lat="46.79811" lon="5.44599">
        <ele>224.4</ele>
        <time>2022-05-08T13:56:56Z</time>
      </trkpt>
      <trkpt lat="46.79815" lon="5.44597">
        <ele>224</ele>
        <time>2022-05-08T13:57:00Z</time>
      </trkpt>
      <trkpt lat="46.79819" lon="5.44593">
        <ele>223.1</ele>
        <time>2022-05-08T13:57:06Z</time>
      </trkpt>
      <trkpt lat="46.79823" lon="5.4459">
        <ele>222.7</ele>
        <time>2022-05-08T13:57:10Z</time>
      </trkpt>
      <trkpt lat="46.79828" lon="5.44588">
        <ele>222.8</ele>
        <time>2022-05-08T13:57:14Z</time>
      </trkpt>
      <trkpt lat="46.79832" lon="5.44584">
        <ele>223</ele>
        <time>2022-05-08T13:57:19Z</time>
      </trkpt>
      <trkpt lat="46.79836" lon="5.4458">
        <ele>223.2</ele>
        <time>2022-05-08T13:57:23Z</time>
      </trkpt>
      <trkpt lat="46.7984" lon="5.44577">
        <ele>223.1</ele>
        <time>2022-05-08T13:57:27Z</time>
      </trkpt>
      <trkpt lat="46.79844" lon="5.44573">
        <ele>222.4</ele>
        <time>2022-05-08T13:57:31Z</time>
      </trkpt>
      <trkpt lat="46.79849" lon="5.44573">
        <ele>221.4</ele>
        <time>2022-05-08T13:57:37Z</time>
      </trkpt>
      <trkpt lat="46.79855" lon="5.44574">
        <ele>222.8</ele>
        <time>2022-05-08T13:58:00Z</time>
      </trkpt>
      <trkpt lat="46.79859" lon="5.44578">
        <ele>220.7</ele>
        <time>2022-05-08T13:58:08Z</time>
      </trkpt>
      <trkpt lat="46.79862" lon="5.44584">
        <ele>219.7</ele>
        <time>2022-05-08T13:58:12Z</time>
      </trkpt>
      <trkpt lat="46.79865" lon="5.44589">
        <ele>218.5</ele>
        <time>2022-05-08T13:58:17Z</time>
      </trkpt>
      <trkpt lat="46.79868" lon="5.44594">
        <ele>216.9</ele>
        <time>2022-05-08T13:58:22Z</time>
      </trkpt>
      <trkpt lat="46.79872" lon="5.446">
        <ele>215.8</ele>
        <time>2022-05-08T13:58:27Z</time>
      </trkpt>
      <trkpt lat="46.79875" lon="5.44606">
        <ele>215.9</ele>
        <time>2022-05-08T13:58:32Z</time>
      </trkpt>
      <trkpt lat="46.79878" lon="5.44612">
        <ele>216.1</ele>
        <time>2022-05-08T13:58:37Z</time>
      </trkpt>
      <trkpt lat="46.7988" lon="5.44618">
        <ele>216.3</ele>
        <time>2022-05-08T13:58:41Z</time>
      </trkpt>
      <trkpt lat="46.79883" lon="5.44624">
        <ele>216.9</ele>
        <time>2022-05-08T13:58:46Z</time>
      </trkpt>
      <trkpt lat="46.79886" lon="5.44629">
        <ele>217.3</ele>
        <time>2022-05-08T13:58:51Z</time>
      </trkpt>
      <trkpt lat="46.79889" lon="5.44636">
        <ele>217.1</ele>
        <time>2022-05-08T13:58:56Z</time>
      </trkpt>
      <trkpt lat="46.79893" lon="5.44642">
        <ele>216.9</ele>
        <time>2022-05-08T13:59:00Z</time>
      </trkpt>
      <trkpt lat="46.79894" lon="5.44648">
        <ele>216.5</ele>
        <time>2022-05-08T13:59:04Z</time>
      </trkpt>
      <trkpt lat="46.79896" lon="5.44654">
        <ele>216</ele>
        <time>2022-05-08T13:59:09Z</time>
      </trkpt>
      <trkpt lat="46.799" lon="5.4466">
        <ele>215.3</ele>
        <time>2022-05-08T13:59:15Z</time>
      </trkpt>
      <trkpt lat="46.79902" lon="5.44666">
        <ele>215.1</ele>
        <time>2022-05-08T13:59:21Z</time>
      </trkpt>
      <trkpt lat="46.79905" lon="5.44672">
        <ele>216</ele>
        <time>2022-05-08T13:59:26Z</time>
      </trkpt>
      <trkpt lat="46.79908" lon="5.44679">
        <ele>217.5</ele>
        <time>2022-05-08T13:59:31Z</time>
      </trkpt>
      <trkpt lat="46.79909" lon="5.44686">
        <ele>218.9</ele>
        <time>2022-05-08T13:59:35Z</time>
      </trkpt>
      <trkpt lat="46.79913" lon="5.44693">
        <ele>220.4</ele>
        <time>2022-05-08T13:59:39Z</time>
      </trkpt>
      <trkpt lat="46.79917" lon="5.44697">
        <ele>222.1</ele>
        <time>2022-05-08T13:59:43Z</time>
      </trkpt>
      <trkpt lat="46.7992" lon="5.44702">
        <ele>223.7</ele>
        <time>2022-05-08T13:59:47Z</time>
      </trkpt>
      <trkpt lat="46.79923" lon="5.44708">
        <ele>225</ele>
        <time>2022-05-08T13:59:51Z</time>
      </trkpt>
      <trkpt lat="46.79926" lon="5.44713">
        <ele>226</ele>
        <time>2022-05-08T13:59:56Z</time>
      </trkpt>
      <trkpt lat="46.7993" lon="5.44719">
        <ele>226.9</ele>
        <time>2022-05-08T14:00:00Z</time>
      </trkpt>
      <trkpt lat="46.79933" lon="5.44724">
        <ele>227.8</ele>
        <time>2022-05-08T14:00:04Z</time>
      </trkpt>
      <trkpt lat="46.79937" lon="5.44728">
        <ele>228.4</ele>
        <time>2022-05-08T14:00:08Z</time>
      </trkpt>
      <trkpt lat="46.79941" lon="5.44733">
        <ele>229.2</ele>
        <time>2022-05-08T14:00:13Z</time>
      </trkpt>
      <trkpt lat="46.79945" lon="5.44739">
        <ele>228.8</ele>
        <time>2022-05-08T14:00:18Z</time>
      </trkpt>
      <trkpt lat="46.79949" lon="5.44745">
        <ele>226.9</ele>
        <time>2022-05-08T14:00:23Z</time>
      </trkpt>
      <trkpt lat="46.79952" lon="5.44749">
        <ele>224.8</ele>
        <time>2022-05-08T14:00:27Z</time>
      </trkpt>
      <trkpt lat="46.79955" lon="5.44755">
        <ele>222.5</ele>
        <time>2022-05-08T14:00:31Z</time>
      </trkpt>
      <trkpt lat="46.79958" lon="5.44761">
        <ele>220.2</ele>
        <time>2022-05-08T14:00:36Z</time>
      </trkpt>
      <trkpt lat="46.79961" lon="5.44766">
        <ele>218.9</ele>
        <time>2022-05-08T14:00:40Z</time>
      </trkpt>
      <trkpt lat="46.79963" lon="5.44772">
        <ele>218</ele>
        <time>2022-05-08T14:00:44Z</time>
      </trkpt>
      <trkpt lat="46.79965" lon="5.44778">
        <ele>217.8</ele>
        <time>2022-05-08T14:00:48Z</time>
      </trkpt>
      <trkpt lat="46.79967" lon="5.44786">
        <ele>218.1</ele>
        <time>2022-05-08T14:00:52Z</time>
      </trkpt>
      <trkpt lat="46.79969" lon="5.44792">
        <ele>218.5</ele>
        <time>2022-05-08T14:00:56Z</time>
      </trkpt>
      <trkpt lat="46.79972" lon="5.44798">
        <ele>218.7</ele>
        <time>2022-05-08T14:01:00Z</time>
      </trkpt>
      <trkpt lat="46.79975" lon="5.44804">
        <ele>219.2</ele>
        <time>2022-05-08T14:01:04Z</time>
      </trkpt>
      <trkpt lat="46.79978" lon="5.44809">
        <ele>219.5</ele>
        <time>2022-05-08T14:01:08Z</time>
      </trkpt>
      <trkpt lat="46.79982" lon="5.44814">
        <ele>219.4</ele>
        <time>2022-05-08T14:01:12Z</time>
      </trkpt>
      <trkpt lat="46.79986" lon="5.44819">
        <ele>218.6</ele>
        <time>2022-05-08T14:01:16Z</time>
      </trkpt>
      <trkpt lat="46.7999" lon="5.44823">
        <ele>217.2</ele>
        <time>2022-05-08T14:01:21Z</time>
      </trkpt>
      <trkpt lat="46.79994" lon="5.44829">
        <ele>216.7</ele>
        <time>2022-05-08T14:01:26Z</time>
      </trkpt>
      <trkpt lat="46.79998" lon="5.44832">
        <ele>216.4</ele>
        <time>2022-05-08T14:01:30Z</time>
      </trkpt>
      <trkpt lat="46.80003" lon="5.44834">
        <ele>215.6</ele>
        <time>2022-05-08T14:01:34Z</time>
      </trkpt>
      <trkpt lat="46.80008" lon="5.44835">
        <ele>214.6</ele>
        <time>2022-05-08T14:01:38Z</time>
      </trkpt>
      <trkpt lat="46.80012" lon="5.44838">
        <ele>214.2</ele>
        <time>2022-05-08T14:01:42Z</time>
      </trkpt>
      <trkpt lat="46.80016" lon="5.44842">
        <ele>214.5</ele>
        <time>2022-05-08T14:01:46Z</time>
      </trkpt>
      <trkpt lat="46.80021" lon="5.44846">
        <ele>214.8</ele>
        <time>2022-05-08T14:01:51Z</time>
      </trkpt>
      <trkpt lat="46.80025" lon="5.44848">
        <ele>215</ele>
        <time>2022-05-08T14:01:55Z</time>
      </trkpt>
      <trkpt lat="46.8003" lon="5.44851">
        <ele>215.5</ele>
        <time>2022-05-08T14:02:00Z</time>
      </trkpt>
      <trkpt lat="46.80035" lon="5.44853">
        <ele>215.8</ele>
        <time>2022-05-08T14:02:04Z</time>
      </trkpt>
      <trkpt lat="46.80039" lon="5.44855">
        <ele>216.4</ele>
        <time>2022-05-08T14:02:08Z</time>
      </trkpt>
      <trkpt lat="46.80044" lon="5.44857">
        <ele>217.6</ele>
        <time>2022-05-08T14:02:12Z</time>
      </trkpt>
      <trkpt lat="46.80048" lon="5.44862">
        <ele>218.9</ele>
        <time>2022-05-08T14:02:16Z</time>
      </trkpt>
      <trkpt lat="46.80053" lon="5.44866">
        <ele>220.1</ele>
        <time>2022-05-08T14:02:20Z</time>
      </trkpt>
      <trkpt lat="46.80058" lon="5.4487">
        <ele>220.6</ele>
        <time>2022-05-08T14:02:23Z</time>
      </trkpt>
      <trkpt lat="46.80062" lon="5.44873">
        <ele>221</ele>
        <time>2022-05-08T14:02:26Z</time>
      </trkpt>
      <trkpt lat="46.80066" lon="5.44876">
        <ele>220.9</ele>
        <time>2022-05-08T14:02:30Z</time>
      </trkpt>
      <trkpt lat="46.80069" lon="5.44883">
        <ele>220.5</ele>
        <time>2022-05-08T14:02:35Z</time>
      </trkpt>
      <trkpt lat="46.80071" lon="5.44889">
        <ele>220.4</ele>
        <time>2022-05-08T14:02:40Z</time>
      </trkpt>
      <trkpt lat="46.8007" lon="5.44896">
        <ele>220.6</ele>
        <time>2022-05-08T14:02:45Z</time>
      </trkpt>
      <trkpt lat="46.8007" lon="5.44903">
        <ele>220</ele>
        <time>2022-05-08T14:02:52Z</time>
      </trkpt>
      <trkpt lat="46.80071" lon="5.4491">
        <ele>219.2</ele>
        <time>2022-05-08T14:02:59Z</time>
      </trkpt>
      <trkpt lat="46.80072" lon="5.44917">
        <ele>220.4</ele>
        <time>2022-05-08T14:03:04Z</time>
      </trkpt>
      <trkpt lat="46.80075" lon="5.44923">
        <ele>221.1</ele>
        <time>2022-05-08T14:03:09Z</time>
      </trkpt>
      <trkpt lat="46.80079" lon="5.44928">
        <ele>221.9</ele>
        <time>2022-05-08T14:03:15Z</time>
      </trkpt>
      <trkpt lat="46.80083" lon="5.4493">
        <ele>222.7</ele>
        <time>2022-05-08T14:03:20Z</time>
      </trkpt>
      <trkpt lat="46.80088" lon="5.44932">
        <ele>223</ele>
        <time>2022-05-08T14:03:24Z</time>
      </trkpt>
      <trkpt lat="46.80092" lon="5.44934">
        <ele>223.6</ele>
        <time>2022-05-08T14:03:28Z</time>
      </trkpt>
      <trkpt lat="46.80097" lon="5.44936">
        <ele>224.2</ele>
        <time>2022-05-08T14:03:33Z</time>
      </trkpt>
      <trkpt lat="46.80101" lon="5.44938">
        <ele>224.7</ele>
        <time>2022-05-08T14:03:38Z</time>
      </trkpt>
      <trkpt lat="46.80106" lon="5.44938">
        <ele>224.6</ele>
        <time>2022-05-08T14:03:43Z</time>
      </trkpt>
      <trkpt lat="46.80111" lon="5.4494">
        <ele>224.9</ele>
        <time>2022-05-08T14:03:48Z</time>
      </trkpt>
      <trkpt lat="46.80117" lon="5.44941">
        <ele>224.7</ele>
        <time>2022-05-08T14:03:53Z</time>
      </trkpt>
      <trkpt lat="46.80122" lon="5.44941">
        <ele>224.4</ele>
        <time>2022-05-08T14:03:57Z</time>
      </trkpt>
      <trkpt lat="46.80127" lon="5.4494">
        <ele>224.4</ele>
        <time>2022-05-08T14:04:02Z</time>
      </trkpt>
      <trkpt lat="46.80132" lon="5.44939">
        <ele>223.9</ele>
        <time>2022-05-08T14:04:08Z</time>
      </trkpt>
      <trkpt lat="46.80137" lon="5.44941">
        <ele>224</ele>
        <time>2022-05-08T14:04:15Z</time>
      </trkpt>
    </trkseg>
  </trk>
</gpx>